<?xml version="1.0" encoding="UTF-8" standalone="no" ?>
<gpx xmlns="http://www.topografix.com/GPX/1/1" xmlns:xsi="http://www.w3.org/2001/XMLSchema-instance" xsi:schemaLocation="http://www.topografix.com/GPX/1/1 http://www.topografix.com/GPX/1/1/gpx.xsd" version="1.1" creator="VisuGPX - https://www.visugpx.com">
  <metadata>
    <name>rando chirens-flachères-saint jean de bournay (2)</name>
    <desc><![CDATA[départ à cheval de chirens jusqu\'à saint jean de bournay en passant par charavines, la chapelle de bévenais, flachères, champier, chtaonnay
durée : 2 jours
(3 fichiers GPX)]]></desc>
  </metadata>
  <trk>
    <name><![CDATA[2011-08-15 15:15]]></name>
    <desc><![CDATA[]]></desc>
    <trkseg>
      <trkpt lat="45.41669" lon="5.38807">
        <ele>733</ele>
        <time>2011-08-15T13:15:39Z</time>
      </trkpt>
      <trkpt lat="45.41673" lon="5.38806">
        <ele>731</ele>
        <time>2011-08-15T13:15:50Z</time>
      </trkpt>
      <trkpt lat="45.41673" lon="5.38806">
        <ele>731</ele>
        <time>2011-08-15T13:15:50Z</time>
      </trkpt>
      <trkpt lat="45.41673" lon="5.38806">
        <ele>731</ele>
        <time>2011-08-15T13:15:51Z</time>
      </trkpt>
      <trkpt lat="45.41677" lon="5.388">
        <ele>730</ele>
        <time>2011-08-15T13:16:07Z</time>
      </trkpt>
      <trkpt lat="45.41682" lon="5.38796">
        <ele>730</ele>
        <time>2011-08-15T13:16:09Z</time>
      </trkpt>
      <trkpt lat="45.41687" lon="5.38793">
        <ele>729</ele>
        <time>2011-08-15T13:16:11Z</time>
      </trkpt>
      <trkpt lat="45.41691" lon="5.38788">
        <ele>728</ele>
        <time>2011-08-15T13:16:13Z</time>
      </trkpt>
      <trkpt lat="45.41695" lon="5.3878">
        <ele>728</ele>
        <time>2011-08-15T13:16:17Z</time>
      </trkpt>
      <trkpt lat="45.41698" lon="5.38775">
        <ele>728</ele>
        <time>2011-08-15T13:17:29Z</time>
      </trkpt>
      <trkpt lat="45.41704" lon="5.38764">
        <ele>727</ele>
        <time>2011-08-15T13:17:32Z</time>
      </trkpt>
      <trkpt lat="45.41709" lon="5.3876">
        <ele>728</ele>
        <time>2011-08-15T13:17:33Z</time>
      </trkpt>
      <trkpt lat="45.41715" lon="5.38752">
        <ele>729</ele>
        <time>2011-08-15T13:17:35Z</time>
      </trkpt>
      <trkpt lat="45.4172" lon="5.38746">
        <ele>728</ele>
        <time>2011-08-15T13:17:37Z</time>
      </trkpt>
      <trkpt lat="45.41723" lon="5.38738">
        <ele>727</ele>
        <time>2011-08-15T13:17:40Z</time>
      </trkpt>
      <trkpt lat="45.41725" lon="5.38732">
        <ele>727</ele>
        <time>2011-08-15T13:17:42Z</time>
      </trkpt>
      <trkpt lat="45.41729" lon="5.38726">
        <ele>726</ele>
        <time>2011-08-15T13:17:45Z</time>
      </trkpt>
      <trkpt lat="45.41726" lon="5.38718">
        <ele>723</ele>
        <time>2011-08-15T13:17:48Z</time>
      </trkpt>
      <trkpt lat="45.41726" lon="5.3871">
        <ele>722</ele>
        <time>2011-08-15T13:17:51Z</time>
      </trkpt>
      <trkpt lat="45.41723" lon="5.38705">
        <ele>722</ele>
        <time>2011-08-15T13:17:54Z</time>
      </trkpt>
      <trkpt lat="45.41723" lon="5.38697">
        <ele>721</ele>
        <time>2011-08-15T13:17:58Z</time>
      </trkpt>
      <trkpt lat="45.4172" lon="5.38691">
        <ele>719</ele>
        <time>2011-08-15T13:18:02Z</time>
      </trkpt>
      <trkpt lat="45.4172" lon="5.38682">
        <ele>720</ele>
        <time>2011-08-15T13:18:27Z</time>
      </trkpt>
      <trkpt lat="45.41723" lon="5.38673">
        <ele>721</ele>
        <time>2011-08-15T13:18:28Z</time>
      </trkpt>
      <trkpt lat="45.41723" lon="5.38662">
        <ele>721</ele>
        <time>2011-08-15T13:18:30Z</time>
      </trkpt>
      <trkpt lat="45.41719" lon="5.38654">
        <ele>723</ele>
        <time>2011-08-15T13:18:32Z</time>
      </trkpt>
      <trkpt lat="45.41717" lon="5.38646">
        <ele>723</ele>
        <time>2011-08-15T13:18:34Z</time>
      </trkpt>
      <trkpt lat="45.41716" lon="5.38638">
        <ele>722</ele>
        <time>2011-08-15T13:18:37Z</time>
      </trkpt>
      <trkpt lat="45.41717" lon="5.38632">
        <ele>722</ele>
        <time>2011-08-15T13:18:40Z</time>
      </trkpt>
      <trkpt lat="45.41714" lon="5.38624">
        <ele>720</ele>
        <time>2011-08-15T13:18:42Z</time>
      </trkpt>
      <trkpt lat="45.41714" lon="5.38615">
        <ele>720</ele>
        <time>2011-08-15T13:18:45Z</time>
      </trkpt>
      <trkpt lat="45.41712" lon="5.38609">
        <ele>718</ele>
        <time>2011-08-15T13:18:47Z</time>
      </trkpt>
      <trkpt lat="45.41708" lon="5.38603">
        <ele>717</ele>
        <time>2011-08-15T13:18:49Z</time>
      </trkpt>
      <trkpt lat="45.41707" lon="5.38596">
        <ele>717</ele>
        <time>2011-08-15T13:18:51Z</time>
      </trkpt>
      <trkpt lat="45.41704" lon="5.3859">
        <ele>716</ele>
        <time>2011-08-15T13:18:54Z</time>
      </trkpt>
      <trkpt lat="45.41706" lon="5.38583">
        <ele>716</ele>
        <time>2011-08-15T13:18:57Z</time>
      </trkpt>
      <trkpt lat="45.41707" lon="5.38575">
        <ele>717</ele>
        <time>2011-08-15T13:19:01Z</time>
      </trkpt>
      <trkpt lat="45.41709" lon="5.38567">
        <ele>717</ele>
        <time>2011-08-15T13:19:06Z</time>
      </trkpt>
      <trkpt lat="45.41712" lon="5.3856">
        <ele>717</ele>
        <time>2011-08-15T13:19:09Z</time>
      </trkpt>
      <trkpt lat="45.41712" lon="5.38551">
        <ele>716</ele>
        <time>2011-08-15T13:19:11Z</time>
      </trkpt>
      <trkpt lat="45.4171" lon="5.38541">
        <ele>717</ele>
        <time>2011-08-15T13:19:14Z</time>
      </trkpt>
      <trkpt lat="45.41713" lon="5.38534">
        <ele>718</ele>
        <time>2011-08-15T13:19:16Z</time>
      </trkpt>
      <trkpt lat="45.41715" lon="5.38529">
        <ele>717</ele>
        <time>2011-08-15T13:19:19Z</time>
      </trkpt>
      <trkpt lat="45.41713" lon="5.38521">
        <ele>717</ele>
        <time>2011-08-15T13:19:22Z</time>
      </trkpt>
      <trkpt lat="45.41713" lon="5.38521">
        <ele>717</ele>
        <time>2011-08-15T13:19:22Z</time>
      </trkpt>
      <trkpt lat="45.41713" lon="5.38521">
        <ele>717</ele>
        <time>2011-08-15T13:19:23Z</time>
      </trkpt>
      <trkpt lat="45.41708" lon="5.38516">
        <ele>717</ele>
        <time>2011-08-15T13:19:27Z</time>
      </trkpt>
      <trkpt lat="45.41704" lon="5.38512">
        <ele>717</ele>
        <time>2011-08-15T13:19:29Z</time>
      </trkpt>
      <trkpt lat="45.41702" lon="5.38505">
        <ele>717</ele>
        <time>2011-08-15T13:19:32Z</time>
      </trkpt>
      <trkpt lat="45.41701" lon="5.38498">
        <ele>718</ele>
        <time>2011-08-15T13:19:34Z</time>
      </trkpt>
      <trkpt lat="45.41696" lon="5.38489">
        <ele>715</ele>
        <time>2011-08-15T13:20:13Z</time>
      </trkpt>
      <trkpt lat="45.417" lon="5.38483">
        <ele>715</ele>
        <time>2011-08-15T13:20:14Z</time>
      </trkpt>
      <trkpt lat="45.41697" lon="5.3847">
        <ele>714</ele>
        <time>2011-08-15T13:20:16Z</time>
      </trkpt>
      <trkpt lat="45.41696" lon="5.38463">
        <ele>713</ele>
        <time>2011-08-15T13:20:17Z</time>
      </trkpt>
      <trkpt lat="45.41696" lon="5.38456">
        <ele>712</ele>
        <time>2011-08-15T13:20:19Z</time>
      </trkpt>
      <trkpt lat="45.41693" lon="5.38445">
        <ele>712</ele>
        <time>2011-08-15T13:20:21Z</time>
      </trkpt>
      <trkpt lat="45.41695" lon="5.38435">
        <ele>714</ele>
        <time>2011-08-15T13:20:23Z</time>
      </trkpt>
      <trkpt lat="45.41691" lon="5.3843">
        <ele>715</ele>
        <time>2011-08-15T13:20:25Z</time>
      </trkpt>
      <trkpt lat="45.41688" lon="5.38424">
        <ele>714</ele>
        <time>2011-08-15T13:20:28Z</time>
      </trkpt>
      <trkpt lat="45.41683" lon="5.3842">
        <ele>711</ele>
        <time>2011-08-15T13:20:30Z</time>
      </trkpt>
      <trkpt lat="45.41685" lon="5.38412">
        <ele>712</ele>
        <time>2011-08-15T13:20:33Z</time>
      </trkpt>
      <trkpt lat="45.41683" lon="5.38404">
        <ele>710</ele>
        <time>2011-08-15T13:20:37Z</time>
      </trkpt>
      <trkpt lat="45.41679" lon="5.38399">
        <ele>711</ele>
        <time>2011-08-15T13:20:41Z</time>
      </trkpt>
      <trkpt lat="45.4168" lon="5.38392">
        <ele>711</ele>
        <time>2011-08-15T13:20:44Z</time>
      </trkpt>
      <trkpt lat="45.4168" lon="5.38386">
        <ele>712</ele>
        <time>2011-08-15T13:20:48Z</time>
      </trkpt>
      <trkpt lat="45.4168" lon="5.38378">
        <ele>713</ele>
        <time>2011-08-15T13:20:51Z</time>
      </trkpt>
      <trkpt lat="45.41679" lon="5.38372">
        <ele>714</ele>
        <time>2011-08-15T13:20:56Z</time>
      </trkpt>
      <trkpt lat="45.41674" lon="5.38363">
        <ele>715</ele>
        <time>2011-08-15T13:21:00Z</time>
      </trkpt>
      <trkpt lat="45.41669" lon="5.38361">
        <ele>715</ele>
        <time>2011-08-15T13:21:01Z</time>
      </trkpt>
      <trkpt lat="45.41669" lon="5.38353">
        <ele>716</ele>
        <time>2011-08-15T13:21:04Z</time>
      </trkpt>
      <trkpt lat="45.41668" lon="5.38343">
        <ele>717</ele>
        <time>2011-08-15T13:21:07Z</time>
      </trkpt>
      <trkpt lat="45.41662" lon="5.38338">
        <ele>719</ele>
        <time>2011-08-15T13:21:10Z</time>
      </trkpt>
      <trkpt lat="45.41662" lon="5.38331">
        <ele>720</ele>
        <time>2011-08-15T13:21:13Z</time>
      </trkpt>
      <trkpt lat="45.41665" lon="5.38325">
        <ele>721</ele>
        <time>2011-08-15T13:21:15Z</time>
      </trkpt>
      <trkpt lat="45.41663" lon="5.38319">
        <ele>721</ele>
        <time>2011-08-15T13:21:19Z</time>
      </trkpt>
      <trkpt lat="45.4166" lon="5.38314">
        <ele>721</ele>
        <time>2011-08-15T13:21:28Z</time>
      </trkpt>
      <trkpt lat="45.4166" lon="5.38314">
        <ele>721</ele>
        <time>2011-08-15T13:21:28Z</time>
      </trkpt>
      <trkpt lat="45.4166" lon="5.38314">
        <ele>721</ele>
        <time>2011-08-15T13:21:29Z</time>
      </trkpt>
      <trkpt lat="45.41657" lon="5.38305">
        <ele>720</ele>
        <time>2011-08-15T13:21:46Z</time>
      </trkpt>
      <trkpt lat="45.41654" lon="5.383">
        <ele>721</ele>
        <time>2011-08-15T13:21:49Z</time>
      </trkpt>
      <trkpt lat="45.41651" lon="5.3829">
        <ele>721</ele>
        <time>2011-08-15T13:21:52Z</time>
      </trkpt>
      <trkpt lat="45.41652" lon="5.38282">
        <ele>721</ele>
        <time>2011-08-15T13:21:54Z</time>
      </trkpt>
      <trkpt lat="45.41649" lon="5.38275">
        <ele>720</ele>
        <time>2011-08-15T13:21:56Z</time>
      </trkpt>
      <trkpt lat="45.41651" lon="5.38268">
        <ele>721</ele>
        <time>2011-08-15T13:21:58Z</time>
      </trkpt>
      <trkpt lat="45.41647" lon="5.3826">
        <ele>719</ele>
        <time>2011-08-15T13:22:01Z</time>
      </trkpt>
      <trkpt lat="45.41647" lon="5.38254">
        <ele>717</ele>
        <time>2011-08-15T13:22:03Z</time>
      </trkpt>
      <trkpt lat="45.41645" lon="5.38246">
        <ele>717</ele>
        <time>2011-08-15T13:22:06Z</time>
      </trkpt>
      <trkpt lat="45.41641" lon="5.38241">
        <ele>716</ele>
        <time>2011-08-15T13:22:08Z</time>
      </trkpt>
      <trkpt lat="45.41638" lon="5.38234">
        <ele>713</ele>
        <time>2011-08-15T13:22:11Z</time>
      </trkpt>
      <trkpt lat="45.41634" lon="5.38229">
        <ele>712</ele>
        <time>2011-08-15T13:22:14Z</time>
      </trkpt>
      <trkpt lat="45.41628" lon="5.38223">
        <ele>710</ele>
        <time>2011-08-15T13:22:16Z</time>
      </trkpt>
      <trkpt lat="45.41625" lon="5.38218">
        <ele>709</ele>
        <time>2011-08-15T13:22:19Z</time>
      </trkpt>
      <trkpt lat="45.41621" lon="5.38213">
        <ele>708</ele>
        <time>2011-08-15T13:22:22Z</time>
      </trkpt>
      <trkpt lat="45.41617" lon="5.38206">
        <ele>707</ele>
        <time>2011-08-15T13:22:25Z</time>
      </trkpt>
      <trkpt lat="45.41618" lon="5.38198">
        <ele>707</ele>
        <time>2011-08-15T13:22:28Z</time>
      </trkpt>
      <trkpt lat="45.41617" lon="5.3819">
        <ele>707</ele>
        <time>2011-08-15T13:22:38Z</time>
      </trkpt>
      <trkpt lat="45.41614" lon="5.38185">
        <ele>708</ele>
        <time>2011-08-15T13:22:43Z</time>
      </trkpt>
      <trkpt lat="45.41614" lon="5.38173">
        <ele>710</ele>
        <time>2011-08-15T13:22:45Z</time>
      </trkpt>
      <trkpt lat="45.4161" lon="5.38166">
        <ele>711</ele>
        <time>2011-08-15T13:22:47Z</time>
      </trkpt>
      <trkpt lat="45.41605" lon="5.38161">
        <ele>714</ele>
        <time>2011-08-15T13:22:49Z</time>
      </trkpt>
      <trkpt lat="45.41599" lon="5.38155">
        <ele>716</ele>
        <time>2011-08-15T13:22:51Z</time>
      </trkpt>
      <trkpt lat="45.41597" lon="5.38148">
        <ele>717</ele>
        <time>2011-08-15T13:22:54Z</time>
      </trkpt>
      <trkpt lat="45.41596" lon="5.38141">
        <ele>717</ele>
        <time>2011-08-15T13:22:56Z</time>
      </trkpt>
      <trkpt lat="45.41594" lon="5.38134">
        <ele>717</ele>
        <time>2011-08-15T13:23:00Z</time>
      </trkpt>
      <trkpt lat="45.41594" lon="5.38134">
        <ele>717</ele>
        <time>2011-08-15T13:23:00Z</time>
      </trkpt>
      <trkpt lat="45.41594" lon="5.38134">
        <ele>718</ele>
        <time>2011-08-15T13:23:01Z</time>
      </trkpt>
      <trkpt lat="45.41592" lon="5.38127">
        <ele>718</ele>
        <time>2011-08-15T13:23:30Z</time>
      </trkpt>
      <trkpt lat="45.4159" lon="5.38118">
        <ele>717</ele>
        <time>2011-08-15T13:23:32Z</time>
      </trkpt>
      <trkpt lat="45.41586" lon="5.38113">
        <ele>715</ele>
        <time>2011-08-15T13:23:34Z</time>
      </trkpt>
      <trkpt lat="45.41583" lon="5.38107">
        <ele>714</ele>
        <time>2011-08-15T13:23:36Z</time>
      </trkpt>
      <trkpt lat="45.4158" lon="5.38102">
        <ele>712</ele>
        <time>2011-08-15T13:23:38Z</time>
      </trkpt>
      <trkpt lat="45.41582" lon="5.38094">
        <ele>711</ele>
        <time>2011-08-15T13:23:40Z</time>
      </trkpt>
      <trkpt lat="45.41579" lon="5.38088">
        <ele>711</ele>
        <time>2011-08-15T13:23:44Z</time>
      </trkpt>
      <trkpt lat="45.41578" lon="5.38081">
        <ele>710</ele>
        <time>2011-08-15T13:23:46Z</time>
      </trkpt>
      <trkpt lat="45.41581" lon="5.38074">
        <ele>710</ele>
        <time>2011-08-15T13:23:48Z</time>
      </trkpt>
      <trkpt lat="45.41582" lon="5.38063">
        <ele>712</ele>
        <time>2011-08-15T13:23:50Z</time>
      </trkpt>
      <trkpt lat="45.4158" lon="5.38055">
        <ele>715</ele>
        <time>2011-08-15T13:23:52Z</time>
      </trkpt>
      <trkpt lat="45.41575" lon="5.3805">
        <ele>716</ele>
        <time>2011-08-15T13:23:54Z</time>
      </trkpt>
      <trkpt lat="45.41571" lon="5.38044">
        <ele>717</ele>
        <time>2011-08-15T13:23:57Z</time>
      </trkpt>
      <trkpt lat="45.4157" lon="5.38037">
        <ele>718</ele>
        <time>2011-08-15T13:24:00Z</time>
      </trkpt>
      <trkpt lat="45.41566" lon="5.38031">
        <ele>718</ele>
        <time>2011-08-15T13:24:03Z</time>
      </trkpt>
      <trkpt lat="45.41564" lon="5.38023">
        <ele>718</ele>
        <time>2011-08-15T13:24:06Z</time>
      </trkpt>
      <trkpt lat="45.41561" lon="5.38016">
        <ele>718</ele>
        <time>2011-08-15T13:24:10Z</time>
      </trkpt>
      <trkpt lat="45.41558" lon="5.38011">
        <ele>717</ele>
        <time>2011-08-15T13:24:23Z</time>
      </trkpt>
      <trkpt lat="45.41558" lon="5.38011">
        <ele>717</ele>
        <time>2011-08-15T13:24:23Z</time>
      </trkpt>
      <trkpt lat="45.41558" lon="5.38011">
        <ele>717</ele>
        <time>2011-08-15T13:24:24Z</time>
      </trkpt>
      <trkpt lat="45.41554" lon="5.38002">
        <ele>715</ele>
        <time>2011-08-15T13:24:31Z</time>
      </trkpt>
      <trkpt lat="45.41552" lon="5.37994">
        <ele>713</ele>
        <time>2011-08-15T13:24:35Z</time>
      </trkpt>
      <trkpt lat="45.41548" lon="5.37991">
        <ele>709</ele>
        <time>2011-08-15T13:24:38Z</time>
      </trkpt>
      <trkpt lat="45.41541" lon="5.37981">
        <ele>706</ele>
        <time>2011-08-15T13:24:45Z</time>
      </trkpt>
      <trkpt lat="45.41538" lon="5.37971">
        <ele>706</ele>
        <time>2011-08-15T13:24:46Z</time>
      </trkpt>
      <trkpt lat="45.41539" lon="5.37964">
        <ele>705</ele>
        <time>2011-08-15T13:24:47Z</time>
      </trkpt>
      <trkpt lat="45.4154" lon="5.37957">
        <ele>706</ele>
        <time>2011-08-15T13:24:48Z</time>
      </trkpt>
      <trkpt lat="45.41541" lon="5.3795">
        <ele>707</ele>
        <time>2011-08-15T13:24:49Z</time>
      </trkpt>
      <trkpt lat="45.41539" lon="5.3794">
        <ele>707</ele>
        <time>2011-08-15T13:24:51Z</time>
      </trkpt>
      <trkpt lat="45.41539" lon="5.3793">
        <ele>708</ele>
        <time>2011-08-15T13:24:53Z</time>
      </trkpt>
      <trkpt lat="45.41538" lon="5.37922">
        <ele>710</ele>
        <time>2011-08-15T13:24:55Z</time>
      </trkpt>
      <trkpt lat="45.41534" lon="5.37913">
        <ele>712</ele>
        <time>2011-08-15T13:24:58Z</time>
      </trkpt>
      <trkpt lat="45.41531" lon="5.37907">
        <ele>712</ele>
        <time>2011-08-15T13:25:00Z</time>
      </trkpt>
      <trkpt lat="45.41529" lon="5.37901">
        <ele>712</ele>
        <time>2011-08-15T13:25:02Z</time>
      </trkpt>
      <trkpt lat="45.41528" lon="5.37893">
        <ele>711</ele>
        <time>2011-08-15T13:25:06Z</time>
      </trkpt>
      <trkpt lat="45.41528" lon="5.37886">
        <ele>710</ele>
        <time>2011-08-15T13:25:09Z</time>
      </trkpt>
      <trkpt lat="45.41524" lon="5.37881">
        <ele>709</ele>
        <time>2011-08-15T13:25:11Z</time>
      </trkpt>
      <trkpt lat="45.4152" lon="5.37877">
        <ele>710</ele>
        <time>2011-08-15T13:25:13Z</time>
      </trkpt>
      <trkpt lat="45.41515" lon="5.37873">
        <ele>709</ele>
        <time>2011-08-15T13:25:17Z</time>
      </trkpt>
      <trkpt lat="45.4151" lon="5.3787">
        <ele>708</ele>
        <time>2011-08-15T13:25:21Z</time>
      </trkpt>
      <trkpt lat="45.41509" lon="5.37863">
        <ele>707</ele>
        <time>2011-08-15T13:25:26Z</time>
      </trkpt>
      <trkpt lat="45.41504" lon="5.37858">
        <ele>706</ele>
        <time>2011-08-15T13:25:29Z</time>
      </trkpt>
      <trkpt lat="45.415" lon="5.37854">
        <ele>706</ele>
        <time>2011-08-15T13:25:32Z</time>
      </trkpt>
      <trkpt lat="45.41495" lon="5.3785">
        <ele>706</ele>
        <time>2011-08-15T13:25:36Z</time>
      </trkpt>
      <trkpt lat="45.41491" lon="5.37846">
        <ele>703</ele>
        <time>2011-08-15T13:25:41Z</time>
      </trkpt>
      <trkpt lat="45.41488" lon="5.37841">
        <ele>702</ele>
        <time>2011-08-15T13:25:46Z</time>
      </trkpt>
      <trkpt lat="45.41482" lon="5.3784">
        <ele>702</ele>
        <time>2011-08-15T13:25:49Z</time>
      </trkpt>
      <trkpt lat="45.41476" lon="5.37838">
        <ele>703</ele>
        <time>2011-08-15T13:25:52Z</time>
      </trkpt>
      <trkpt lat="45.41476" lon="5.37838">
        <ele>703</ele>
        <time>2011-08-15T13:25:52Z</time>
      </trkpt>
      <trkpt lat="45.41476" lon="5.37838">
        <ele>703</ele>
        <time>2011-08-15T13:25:53Z</time>
      </trkpt>
      <trkpt lat="45.41473" lon="5.37832">
        <ele>702</ele>
        <time>2011-08-15T13:25:57Z</time>
      </trkpt>
      <trkpt lat="45.41469" lon="5.37828">
        <ele>704</ele>
        <time>2011-08-15T13:26:01Z</time>
      </trkpt>
      <trkpt lat="45.41466" lon="5.37823">
        <ele>704</ele>
        <time>2011-08-15T13:26:04Z</time>
      </trkpt>
      <trkpt lat="45.41461" lon="5.37822">
        <ele>705</ele>
        <time>2011-08-15T13:26:08Z</time>
      </trkpt>
      <trkpt lat="45.41457" lon="5.37818">
        <ele>706</ele>
        <time>2011-08-15T13:26:11Z</time>
      </trkpt>
      <trkpt lat="45.41454" lon="5.37814">
        <ele>707</ele>
        <time>2011-08-15T13:26:15Z</time>
      </trkpt>
      <trkpt lat="45.4145" lon="5.3781">
        <ele>708</ele>
        <time>2011-08-15T13:26:18Z</time>
      </trkpt>
      <trkpt lat="45.41448" lon="5.37802">
        <ele>709</ele>
        <time>2011-08-15T13:26:24Z</time>
      </trkpt>
      <trkpt lat="45.41444" lon="5.37798">
        <ele>710</ele>
        <time>2011-08-15T13:26:28Z</time>
      </trkpt>
      <trkpt lat="45.41441" lon="5.37792">
        <ele>709</ele>
        <time>2011-08-15T13:26:32Z</time>
      </trkpt>
      <trkpt lat="45.41437" lon="5.37789">
        <ele>708</ele>
        <time>2011-08-15T13:26:35Z</time>
      </trkpt>
      <trkpt lat="45.41432" lon="5.37783">
        <ele>706</ele>
        <time>2011-08-15T13:26:39Z</time>
      </trkpt>
      <trkpt lat="45.41432" lon="5.37775">
        <ele>706</ele>
        <time>2011-08-15T13:26:41Z</time>
      </trkpt>
      <trkpt lat="45.41429" lon="5.37769">
        <ele>705</ele>
        <time>2011-08-15T13:26:45Z</time>
      </trkpt>
      <trkpt lat="45.41424" lon="5.37763">
        <ele>703</ele>
        <time>2011-08-15T13:26:48Z</time>
      </trkpt>
      <trkpt lat="45.4142" lon="5.37758">
        <ele>701</ele>
        <time>2011-08-15T13:26:50Z</time>
      </trkpt>
      <trkpt lat="45.41415" lon="5.37756">
        <ele>699</ele>
        <time>2011-08-15T13:26:52Z</time>
      </trkpt>
      <trkpt lat="45.41414" lon="5.37747">
        <ele>698</ele>
        <time>2011-08-15T13:26:56Z</time>
      </trkpt>
      <trkpt lat="45.41411" lon="5.3774">
        <ele>696</ele>
        <time>2011-08-15T13:26:59Z</time>
      </trkpt>
      <trkpt lat="45.41407" lon="5.37735">
        <ele>695</ele>
        <time>2011-08-15T13:27:03Z</time>
      </trkpt>
      <trkpt lat="45.41404" lon="5.37729">
        <ele>695</ele>
        <time>2011-08-15T13:27:07Z</time>
      </trkpt>
      <trkpt lat="45.41403" lon="5.37722">
        <ele>694</ele>
        <time>2011-08-15T13:27:11Z</time>
      </trkpt>
      <trkpt lat="45.41402" lon="5.37716">
        <ele>693</ele>
        <time>2011-08-15T13:27:14Z</time>
      </trkpt>
      <trkpt lat="45.41401" lon="5.37709">
        <ele>692</ele>
        <time>2011-08-15T13:27:17Z</time>
      </trkpt>
      <trkpt lat="45.41398" lon="5.37704">
        <ele>692</ele>
        <time>2011-08-15T13:27:20Z</time>
      </trkpt>
      <trkpt lat="45.41397" lon="5.37696">
        <ele>692</ele>
        <time>2011-08-15T13:27:24Z</time>
      </trkpt>
      <trkpt lat="45.41398" lon="5.37688">
        <ele>692</ele>
        <time>2011-08-15T13:27:28Z</time>
      </trkpt>
      <trkpt lat="45.41398" lon="5.37681">
        <ele>692</ele>
        <time>2011-08-15T13:27:32Z</time>
      </trkpt>
      <trkpt lat="45.414" lon="5.37675">
        <ele>691</ele>
        <time>2011-08-15T13:27:35Z</time>
      </trkpt>
      <trkpt lat="45.414" lon="5.37668">
        <ele>691</ele>
        <time>2011-08-15T13:27:40Z</time>
      </trkpt>
      <trkpt lat="45.41397" lon="5.37662">
        <ele>692</ele>
        <time>2011-08-15T13:27:43Z</time>
      </trkpt>
      <trkpt lat="45.41397" lon="5.37654">
        <ele>691</ele>
        <time>2011-08-15T13:27:46Z</time>
      </trkpt>
      <trkpt lat="45.41398" lon="5.37646">
        <ele>691</ele>
        <time>2011-08-15T13:27:49Z</time>
      </trkpt>
      <trkpt lat="45.41398" lon="5.37646">
        <ele>691</ele>
        <time>2011-08-15T13:27:49Z</time>
      </trkpt>
      <trkpt lat="45.41398" lon="5.37646">
        <ele>690</ele>
        <time>2011-08-15T13:27:50Z</time>
      </trkpt>
      <trkpt lat="45.41398" lon="5.37639">
        <ele>689</ele>
        <time>2011-08-15T13:27:54Z</time>
      </trkpt>
      <trkpt lat="45.41399" lon="5.37632">
        <ele>688</ele>
        <time>2011-08-15T13:27:58Z</time>
      </trkpt>
      <trkpt lat="45.414" lon="5.37625">
        <ele>687</ele>
        <time>2011-08-15T13:28:01Z</time>
      </trkpt>
      <trkpt lat="45.41402" lon="5.37619">
        <ele>687</ele>
        <time>2011-08-15T13:28:05Z</time>
      </trkpt>
      <trkpt lat="45.41404" lon="5.37612">
        <ele>687</ele>
        <time>2011-08-15T13:28:11Z</time>
      </trkpt>
      <trkpt lat="45.41399" lon="5.37605">
        <ele>687</ele>
        <time>2011-08-15T13:28:15Z</time>
      </trkpt>
      <trkpt lat="45.41397" lon="5.37598">
        <ele>686</ele>
        <time>2011-08-15T13:28:17Z</time>
      </trkpt>
      <trkpt lat="45.41394" lon="5.37591">
        <ele>684</ele>
        <time>2011-08-15T13:28:20Z</time>
      </trkpt>
      <trkpt lat="45.41397" lon="5.37583">
        <ele>682</ele>
        <time>2011-08-15T13:28:24Z</time>
      </trkpt>
      <trkpt lat="45.41399" lon="5.37575">
        <ele>681</ele>
        <time>2011-08-15T13:28:27Z</time>
      </trkpt>
      <trkpt lat="45.41397" lon="5.37568">
        <ele>680</ele>
        <time>2011-08-15T13:28:32Z</time>
      </trkpt>
      <trkpt lat="45.41397" lon="5.3756">
        <ele>680</ele>
        <time>2011-08-15T13:28:36Z</time>
      </trkpt>
      <trkpt lat="45.41399" lon="5.37554">
        <ele>680</ele>
        <time>2011-08-15T13:28:38Z</time>
      </trkpt>
      <trkpt lat="45.414" lon="5.37547">
        <ele>681</ele>
        <time>2011-08-15T13:28:41Z</time>
      </trkpt>
      <trkpt lat="45.41397" lon="5.37541">
        <ele>681</ele>
        <time>2011-08-15T13:28:44Z</time>
      </trkpt>
      <trkpt lat="45.41393" lon="5.37536">
        <ele>681</ele>
        <time>2011-08-15T13:28:48Z</time>
      </trkpt>
      <trkpt lat="45.41393" lon="5.37529">
        <ele>683</ele>
        <time>2011-08-15T13:28:50Z</time>
      </trkpt>
      <trkpt lat="45.41394" lon="5.37523">
        <ele>683</ele>
        <time>2011-08-15T13:28:54Z</time>
      </trkpt>
      <trkpt lat="45.41391" lon="5.37517">
        <ele>683</ele>
        <time>2011-08-15T13:29:00Z</time>
      </trkpt>
      <trkpt lat="45.41391" lon="5.3751">
        <ele>683</ele>
        <time>2011-08-15T13:29:03Z</time>
      </trkpt>
      <trkpt lat="45.4139" lon="5.37503">
        <ele>683</ele>
        <time>2011-08-15T13:29:05Z</time>
      </trkpt>
      <trkpt lat="45.41388" lon="5.37496">
        <ele>682</ele>
        <time>2011-08-15T13:29:07Z</time>
      </trkpt>
      <trkpt lat="45.41384" lon="5.37492">
        <ele>681</ele>
        <time>2011-08-15T13:29:10Z</time>
      </trkpt>
      <trkpt lat="45.41384" lon="5.37485">
        <ele>681</ele>
        <time>2011-08-15T13:29:15Z</time>
      </trkpt>
      <trkpt lat="45.4138" lon="5.37479">
        <ele>681</ele>
        <time>2011-08-15T13:29:19Z</time>
      </trkpt>
      <trkpt lat="45.41379" lon="5.3747">
        <ele>682</ele>
        <time>2011-08-15T13:29:24Z</time>
      </trkpt>
      <trkpt lat="45.41378" lon="5.37462">
        <ele>681</ele>
        <time>2011-08-15T13:29:28Z</time>
      </trkpt>
      <trkpt lat="45.41374" lon="5.37457">
        <ele>680</ele>
        <time>2011-08-15T13:29:31Z</time>
      </trkpt>
      <trkpt lat="45.4137" lon="5.37451">
        <ele>677</ele>
        <time>2011-08-15T13:29:33Z</time>
      </trkpt>
      <trkpt lat="45.41366" lon="5.37446">
        <ele>676</ele>
        <time>2011-08-15T13:29:37Z</time>
      </trkpt>
      <trkpt lat="45.41369" lon="5.37437">
        <ele>674</ele>
        <time>2011-08-15T13:29:42Z</time>
      </trkpt>
      <trkpt lat="45.41367" lon="5.3743">
        <ele>676</ele>
        <time>2011-08-15T13:29:46Z</time>
      </trkpt>
      <trkpt lat="45.41362" lon="5.37425">
        <ele>677</ele>
        <time>2011-08-15T13:29:49Z</time>
      </trkpt>
      <trkpt lat="45.41358" lon="5.3742">
        <ele>677</ele>
        <time>2011-08-15T13:29:52Z</time>
      </trkpt>
      <trkpt lat="45.41352" lon="5.37417">
        <ele>676</ele>
        <time>2011-08-15T13:29:55Z</time>
      </trkpt>
      <trkpt lat="45.41347" lon="5.37412">
        <ele>675</ele>
        <time>2011-08-15T13:29:57Z</time>
      </trkpt>
      <trkpt lat="45.41346" lon="5.37406">
        <ele>675</ele>
        <time>2011-08-15T13:30:01Z</time>
      </trkpt>
      <trkpt lat="45.41343" lon="5.37397">
        <ele>675</ele>
        <time>2011-08-15T13:30:34Z</time>
      </trkpt>
      <trkpt lat="45.41336" lon="5.37389">
        <ele>674</ele>
        <time>2011-08-15T13:30:35Z</time>
      </trkpt>
      <trkpt lat="45.41333" lon="5.3738">
        <ele>673</ele>
        <time>2011-08-15T13:30:37Z</time>
      </trkpt>
      <trkpt lat="45.41328" lon="5.37368">
        <ele>671</ele>
        <time>2011-08-15T13:30:40Z</time>
      </trkpt>
      <trkpt lat="45.41325" lon="5.37361">
        <ele>672</ele>
        <time>2011-08-15T13:30:42Z</time>
      </trkpt>
      <trkpt lat="45.41323" lon="5.37352">
        <ele>673</ele>
        <time>2011-08-15T13:30:44Z</time>
      </trkpt>
      <trkpt lat="45.41322" lon="5.37344">
        <ele>674</ele>
        <time>2011-08-15T13:30:48Z</time>
      </trkpt>
      <trkpt lat="45.41319" lon="5.37339">
        <ele>677</ele>
        <time>2011-08-15T13:30:53Z</time>
      </trkpt>
      <trkpt lat="45.41316" lon="5.37332">
        <ele>675</ele>
        <time>2011-08-15T13:32:32Z</time>
      </trkpt>
      <trkpt lat="45.41309" lon="5.37331">
        <ele>674</ele>
        <time>2011-08-15T13:32:34Z</time>
      </trkpt>
      <trkpt lat="45.41304" lon="5.37325">
        <ele>674</ele>
        <time>2011-08-15T13:32:36Z</time>
      </trkpt>
      <trkpt lat="45.41296" lon="5.37321">
        <ele>673</ele>
        <time>2011-08-15T13:32:41Z</time>
      </trkpt>
      <trkpt lat="45.41292" lon="5.37317">
        <ele>671</ele>
        <time>2011-08-15T13:32:44Z</time>
      </trkpt>
      <trkpt lat="45.41284" lon="5.37314">
        <ele>671</ele>
        <time>2011-08-15T13:32:47Z</time>
      </trkpt>
      <trkpt lat="45.41282" lon="5.37309">
        <ele>669</ele>
        <time>2011-08-15T13:32:55Z</time>
      </trkpt>
      <trkpt lat="45.41277" lon="5.37309">
        <ele>669</ele>
        <time>2011-08-15T13:32:59Z</time>
      </trkpt>
      <trkpt lat="45.41271" lon="5.3731">
        <ele>667</ele>
        <time>2011-08-15T13:33:05Z</time>
      </trkpt>
      <trkpt lat="45.41264" lon="5.3731">
        <ele>666</ele>
        <time>2011-08-15T13:33:08Z</time>
      </trkpt>
      <trkpt lat="45.41257" lon="5.37312">
        <ele>666</ele>
        <time>2011-08-15T13:33:11Z</time>
      </trkpt>
      <trkpt lat="45.41252" lon="5.37313">
        <ele>668</ele>
        <time>2011-08-15T13:33:41Z</time>
      </trkpt>
      <trkpt lat="45.41246" lon="5.37321">
        <ele>669</ele>
        <time>2011-08-15T13:33:44Z</time>
      </trkpt>
      <trkpt lat="45.41242" lon="5.37323">
        <ele>669</ele>
        <time>2011-08-15T13:33:45Z</time>
      </trkpt>
      <trkpt lat="45.41241" lon="5.3733">
        <ele>668</ele>
        <time>2011-08-15T13:33:47Z</time>
      </trkpt>
      <trkpt lat="45.41238" lon="5.37335">
        <ele>668</ele>
        <time>2011-08-15T13:33:49Z</time>
      </trkpt>
      <trkpt lat="45.41234" lon="5.3734">
        <ele>667</ele>
        <time>2011-08-15T13:33:51Z</time>
      </trkpt>
      <trkpt lat="45.4123" lon="5.37346">
        <ele>668</ele>
        <time>2011-08-15T13:33:54Z</time>
      </trkpt>
      <trkpt lat="45.41228" lon="5.37355">
        <ele>667</ele>
        <time>2011-08-15T13:33:57Z</time>
      </trkpt>
      <trkpt lat="45.41226" lon="5.37362">
        <ele>663</ele>
        <time>2011-08-15T13:34:02Z</time>
      </trkpt>
      <trkpt lat="45.41219" lon="5.37367">
        <ele>663</ele>
        <time>2011-08-15T13:34:05Z</time>
      </trkpt>
      <trkpt lat="45.41215" lon="5.37369">
        <ele>661</ele>
        <time>2011-08-15T13:34:07Z</time>
      </trkpt>
      <trkpt lat="45.4121" lon="5.3737">
        <ele>660</ele>
        <time>2011-08-15T13:34:09Z</time>
      </trkpt>
      <trkpt lat="45.41205" lon="5.3737">
        <ele>658</ele>
        <time>2011-08-15T13:34:12Z</time>
      </trkpt>
      <trkpt lat="45.41199" lon="5.37372">
        <ele>657</ele>
        <time>2011-08-15T13:34:17Z</time>
      </trkpt>
      <trkpt lat="45.41193" lon="5.37375">
        <ele>656</ele>
        <time>2011-08-15T13:34:19Z</time>
      </trkpt>
      <trkpt lat="45.41188" lon="5.37378">
        <ele>656</ele>
        <time>2011-08-15T13:34:21Z</time>
      </trkpt>
      <trkpt lat="45.41183" lon="5.3738">
        <ele>654</ele>
        <time>2011-08-15T13:34:25Z</time>
      </trkpt>
      <trkpt lat="45.41178" lon="5.37382">
        <ele>654</ele>
        <time>2011-08-15T13:34:28Z</time>
      </trkpt>
      <trkpt lat="45.41173" lon="5.37384">
        <ele>653</ele>
        <time>2011-08-15T13:34:31Z</time>
      </trkpt>
      <trkpt lat="45.41168" lon="5.37386">
        <ele>653</ele>
        <time>2011-08-15T13:34:35Z</time>
      </trkpt>
      <trkpt lat="45.41163" lon="5.37389">
        <ele>652</ele>
        <time>2011-08-15T13:34:40Z</time>
      </trkpt>
      <trkpt lat="45.41157" lon="5.37389">
        <ele>653</ele>
        <time>2011-08-15T13:34:43Z</time>
      </trkpt>
      <trkpt lat="45.41152" lon="5.37391">
        <ele>650</ele>
        <time>2011-08-15T13:34:49Z</time>
      </trkpt>
      <trkpt lat="45.41147" lon="5.37395">
        <ele>650</ele>
        <time>2011-08-15T13:34:55Z</time>
      </trkpt>
      <trkpt lat="45.41142" lon="5.37393">
        <ele>650</ele>
        <time>2011-08-15T13:35:01Z</time>
      </trkpt>
      <trkpt lat="45.41138" lon="5.37387">
        <ele>650</ele>
        <time>2011-08-15T13:35:06Z</time>
      </trkpt>
      <trkpt lat="45.41134" lon="5.37384">
        <ele>651</ele>
        <time>2011-08-15T13:35:09Z</time>
      </trkpt>
      <trkpt lat="45.41131" lon="5.37379">
        <ele>651</ele>
        <time>2011-08-15T13:35:15Z</time>
      </trkpt>
      <trkpt lat="45.41127" lon="5.37369">
        <ele>650</ele>
        <time>2011-08-15T13:35:21Z</time>
      </trkpt>
      <trkpt lat="45.41122" lon="5.37363">
        <ele>650</ele>
        <time>2011-08-15T13:35:24Z</time>
      </trkpt>
      <trkpt lat="45.41117" lon="5.37361">
        <ele>649</ele>
        <time>2011-08-15T13:35:26Z</time>
      </trkpt>
      <trkpt lat="45.41114" lon="5.37354">
        <ele>648</ele>
        <time>2011-08-15T13:35:30Z</time>
      </trkpt>
      <trkpt lat="45.41112" lon="5.37346">
        <ele>648</ele>
        <time>2011-08-15T13:35:32Z</time>
      </trkpt>
      <trkpt lat="45.41112" lon="5.37339">
        <ele>648</ele>
        <time>2011-08-15T13:35:35Z</time>
      </trkpt>
      <trkpt lat="45.4111" lon="5.37332">
        <ele>648</ele>
        <time>2011-08-15T13:35:38Z</time>
      </trkpt>
      <trkpt lat="45.41106" lon="5.37327">
        <ele>649</ele>
        <time>2011-08-15T13:35:41Z</time>
      </trkpt>
      <trkpt lat="45.41103" lon="5.37318">
        <ele>648</ele>
        <time>2011-08-15T13:35:48Z</time>
      </trkpt>
      <trkpt lat="45.411" lon="5.37313">
        <ele>648</ele>
        <time>2011-08-15T13:35:51Z</time>
      </trkpt>
      <trkpt lat="45.41103" lon="5.37305">
        <ele>650</ele>
        <time>2011-08-15T13:35:54Z</time>
      </trkpt>
      <trkpt lat="45.41102" lon="5.37298">
        <ele>650</ele>
        <time>2011-08-15T13:35:57Z</time>
      </trkpt>
      <trkpt lat="45.411" lon="5.37292">
        <ele>650</ele>
        <time>2011-08-15T13:36:00Z</time>
      </trkpt>
      <trkpt lat="45.41096" lon="5.37287">
        <ele>648</ele>
        <time>2011-08-15T13:36:03Z</time>
      </trkpt>
      <trkpt lat="45.41094" lon="5.3728">
        <ele>647</ele>
        <time>2011-08-15T13:36:08Z</time>
      </trkpt>
      <trkpt lat="45.41095" lon="5.37286">
        <ele>646</ele>
        <time>2011-08-15T13:36:43Z</time>
      </trkpt>
      <trkpt lat="45.41092" lon="5.37295">
        <ele>645</ele>
        <time>2011-08-15T13:36:45Z</time>
      </trkpt>
      <trkpt lat="45.41094" lon="5.37303">
        <ele>645</ele>
        <time>2011-08-15T13:36:47Z</time>
      </trkpt>
      <trkpt lat="45.41093" lon="5.3731">
        <ele>645</ele>
        <time>2011-08-15T13:36:49Z</time>
      </trkpt>
      <trkpt lat="45.41096" lon="5.37317">
        <ele>647</ele>
        <time>2011-08-15T13:36:51Z</time>
      </trkpt>
      <trkpt lat="45.411" lon="5.37323">
        <ele>647</ele>
        <time>2011-08-15T13:36:58Z</time>
      </trkpt>
      <trkpt lat="45.41103" lon="5.37331">
        <ele>647</ele>
        <time>2011-08-15T13:37:00Z</time>
      </trkpt>
      <trkpt lat="45.41107" lon="5.37339">
        <ele>647</ele>
        <time>2011-08-15T13:37:03Z</time>
      </trkpt>
      <trkpt lat="45.41109" lon="5.37347">
        <ele>647</ele>
        <time>2011-08-15T13:37:07Z</time>
      </trkpt>
      <trkpt lat="45.41111" lon="5.37354">
        <ele>647</ele>
        <time>2011-08-15T13:37:10Z</time>
      </trkpt>
      <trkpt lat="45.41112" lon="5.37361">
        <ele>647</ele>
        <time>2011-08-15T13:37:13Z</time>
      </trkpt>
      <trkpt lat="45.41113" lon="5.37369">
        <ele>647</ele>
        <time>2011-08-15T13:37:17Z</time>
      </trkpt>
      <trkpt lat="45.41117" lon="5.37373">
        <ele>647</ele>
        <time>2011-08-15T13:37:21Z</time>
      </trkpt>
      <trkpt lat="45.41124" lon="5.37376">
        <ele>647</ele>
        <time>2011-08-15T13:37:24Z</time>
      </trkpt>
      <trkpt lat="45.4113" lon="5.37382">
        <ele>649</ele>
        <time>2011-08-15T13:37:28Z</time>
      </trkpt>
      <trkpt lat="45.41128" lon="5.37392">
        <ele>649</ele>
        <time>2011-08-15T13:37:31Z</time>
      </trkpt>
      <trkpt lat="45.41124" lon="5.37397">
        <ele>651</ele>
        <time>2011-08-15T13:37:34Z</time>
      </trkpt>
      <trkpt lat="45.41124" lon="5.37397">
        <ele>651</ele>
        <time>2011-08-15T13:37:34Z</time>
      </trkpt>
      <trkpt lat="45.41124" lon="5.37397">
        <ele>650</ele>
        <time>2011-08-15T13:38:18Z</time>
      </trkpt>
      <trkpt lat="45.41118" lon="5.37398">
        <ele>649</ele>
        <time>2011-08-15T13:38:19Z</time>
      </trkpt>
      <trkpt lat="45.41111" lon="5.37399">
        <ele>647</ele>
        <time>2011-08-15T13:38:21Z</time>
      </trkpt>
      <trkpt lat="45.41106" lon="5.37399">
        <ele>646</ele>
        <time>2011-08-15T13:38:24Z</time>
      </trkpt>
      <trkpt lat="45.41101" lon="5.37399">
        <ele>644</ele>
        <time>2011-08-15T13:38:28Z</time>
      </trkpt>
      <trkpt lat="45.41094" lon="5.37397">
        <ele>644</ele>
        <time>2011-08-15T13:38:32Z</time>
      </trkpt>
      <trkpt lat="45.4109" lon="5.37404">
        <ele>643</ele>
        <time>2011-08-15T13:38:34Z</time>
      </trkpt>
      <trkpt lat="45.41085" lon="5.37408">
        <ele>642</ele>
        <time>2011-08-15T13:38:37Z</time>
      </trkpt>
      <trkpt lat="45.41085" lon="5.37408">
        <ele>642</ele>
        <time>2011-08-15T13:38:37Z</time>
      </trkpt>
      <trkpt lat="45.41085" lon="5.37408">
        <ele>642</ele>
        <time>2011-08-15T13:38:38Z</time>
      </trkpt>
      <trkpt lat="45.41079" lon="5.37409">
        <ele>640</ele>
        <time>2011-08-15T13:38:42Z</time>
      </trkpt>
      <trkpt lat="45.41074" lon="5.3741">
        <ele>639</ele>
        <time>2011-08-15T13:38:45Z</time>
      </trkpt>
      <trkpt lat="45.41074" lon="5.3741">
        <ele>639</ele>
        <time>2011-08-15T13:38:45Z</time>
      </trkpt>
      <trkpt lat="45.41074" lon="5.3741">
        <ele>639</ele>
        <time>2011-08-15T13:38:46Z</time>
      </trkpt>
      <trkpt lat="45.41068" lon="5.37407">
        <ele>639</ele>
        <time>2011-08-15T13:38:48Z</time>
      </trkpt>
      <trkpt lat="45.41061" lon="5.37407">
        <ele>639</ele>
        <time>2011-08-15T13:38:49Z</time>
      </trkpt>
      <trkpt lat="45.41056" lon="5.37407">
        <ele>639</ele>
        <time>2011-08-15T13:38:51Z</time>
      </trkpt>
      <trkpt lat="45.41049" lon="5.37408">
        <ele>639</ele>
        <time>2011-08-15T13:38:53Z</time>
      </trkpt>
      <trkpt lat="45.41043" lon="5.37409">
        <ele>639</ele>
        <time>2011-08-15T13:38:55Z</time>
      </trkpt>
      <trkpt lat="45.41037" lon="5.37415">
        <ele>641</ele>
        <time>2011-08-15T13:38:57Z</time>
      </trkpt>
      <trkpt lat="45.41032" lon="5.37419">
        <ele>642</ele>
        <time>2011-08-15T13:38:59Z</time>
      </trkpt>
      <trkpt lat="45.41028" lon="5.37421">
        <ele>640</ele>
        <time>2011-08-15T13:39:03Z</time>
      </trkpt>
      <trkpt lat="45.41023" lon="5.37423">
        <ele>637</ele>
        <time>2011-08-15T13:39:06Z</time>
      </trkpt>
      <trkpt lat="45.41018" lon="5.37426">
        <ele>636</ele>
        <time>2011-08-15T13:39:08Z</time>
      </trkpt>
      <trkpt lat="45.41012" lon="5.37428">
        <ele>636</ele>
        <time>2011-08-15T13:39:11Z</time>
      </trkpt>
      <trkpt lat="45.41008" lon="5.37429">
        <ele>637</ele>
        <time>2011-08-15T13:39:15Z</time>
      </trkpt>
      <trkpt lat="45.41003" lon="5.37427">
        <ele>637</ele>
        <time>2011-08-15T13:39:19Z</time>
      </trkpt>
      <trkpt lat="45.40999" lon="5.37423">
        <ele>638</ele>
        <time>2011-08-15T13:39:22Z</time>
      </trkpt>
      <trkpt lat="45.40996" lon="5.37416">
        <ele>636</ele>
        <time>2011-08-15T13:39:27Z</time>
      </trkpt>
      <trkpt lat="45.40998" lon="5.3741">
        <ele>634</ele>
        <time>2011-08-15T13:39:30Z</time>
      </trkpt>
      <trkpt lat="45.41001" lon="5.37404">
        <ele>633</ele>
        <time>2011-08-15T13:39:33Z</time>
      </trkpt>
      <trkpt lat="45.41004" lon="5.37399">
        <ele>631</ele>
        <time>2011-08-15T13:39:35Z</time>
      </trkpt>
      <trkpt lat="45.41007" lon="5.37392">
        <ele>631</ele>
        <time>2011-08-15T13:39:38Z</time>
      </trkpt>
      <trkpt lat="45.4101" lon="5.37384">
        <ele>630</ele>
        <time>2011-08-15T13:39:41Z</time>
      </trkpt>
      <trkpt lat="45.4101" lon="5.37377">
        <ele>629</ele>
        <time>2011-08-15T13:39:45Z</time>
      </trkpt>
      <trkpt lat="45.41012" lon="5.37369">
        <ele>629</ele>
        <time>2011-08-15T13:39:48Z</time>
      </trkpt>
      <trkpt lat="45.41013" lon="5.37363">
        <ele>628</ele>
        <time>2011-08-15T13:39:51Z</time>
      </trkpt>
      <trkpt lat="45.41013" lon="5.37355">
        <ele>628</ele>
        <time>2011-08-15T13:39:55Z</time>
      </trkpt>
      <trkpt lat="45.41016" lon="5.37349">
        <ele>628</ele>
        <time>2011-08-15T13:39:59Z</time>
      </trkpt>
      <trkpt lat="45.41015" lon="5.37342">
        <ele>629</ele>
        <time>2011-08-15T13:40:06Z</time>
      </trkpt>
      <trkpt lat="45.41015" lon="5.37334">
        <ele>628</ele>
        <time>2011-08-15T13:40:11Z</time>
      </trkpt>
      <trkpt lat="45.4102" lon="5.37332">
        <ele>628</ele>
        <time>2011-08-15T13:40:14Z</time>
      </trkpt>
      <trkpt lat="45.41018" lon="5.37324">
        <ele>627</ele>
        <time>2011-08-15T13:40:18Z</time>
      </trkpt>
      <trkpt lat="45.41022" lon="5.37317">
        <ele>627</ele>
        <time>2011-08-15T13:40:21Z</time>
      </trkpt>
      <trkpt lat="45.41026" lon="5.37311">
        <ele>628</ele>
        <time>2011-08-15T13:40:24Z</time>
      </trkpt>
      <trkpt lat="45.41028" lon="5.37303">
        <ele>627</ele>
        <time>2011-08-15T13:40:28Z</time>
      </trkpt>
      <trkpt lat="45.41029" lon="5.37296">
        <ele>626</ele>
        <time>2011-08-15T13:40:31Z</time>
      </trkpt>
      <trkpt lat="45.41034" lon="5.37289">
        <ele>626</ele>
        <time>2011-08-15T13:40:35Z</time>
      </trkpt>
      <trkpt lat="45.41036" lon="5.37281">
        <ele>627</ele>
        <time>2011-08-15T13:40:41Z</time>
      </trkpt>
      <trkpt lat="45.41038" lon="5.37273">
        <ele>626</ele>
        <time>2011-08-15T13:40:45Z</time>
      </trkpt>
      <trkpt lat="45.41038" lon="5.37265">
        <ele>626</ele>
        <time>2011-08-15T13:40:47Z</time>
      </trkpt>
      <trkpt lat="45.41041" lon="5.37259">
        <ele>626</ele>
        <time>2011-08-15T13:40:50Z</time>
      </trkpt>
      <trkpt lat="45.41042" lon="5.37253">
        <ele>626</ele>
        <time>2011-08-15T13:40:52Z</time>
      </trkpt>
      <trkpt lat="45.41039" lon="5.37246">
        <ele>626</ele>
        <time>2011-08-15T13:40:55Z</time>
      </trkpt>
      <trkpt lat="45.41042" lon="5.3724">
        <ele>626</ele>
        <time>2011-08-15T13:40:57Z</time>
      </trkpt>
      <trkpt lat="45.4104" lon="5.37235">
        <ele>627</ele>
        <time>2011-08-15T13:41:00Z</time>
      </trkpt>
      <trkpt lat="45.41041" lon="5.37228">
        <ele>628</ele>
        <time>2011-08-15T13:41:04Z</time>
      </trkpt>
      <trkpt lat="45.41043" lon="5.3722">
        <ele>627</ele>
        <time>2011-08-15T13:41:08Z</time>
      </trkpt>
      <trkpt lat="45.41049" lon="5.37217">
        <ele>627</ele>
        <time>2011-08-15T13:41:10Z</time>
      </trkpt>
      <trkpt lat="45.41044" lon="5.37215">
        <ele>627</ele>
        <time>2011-08-15T13:41:11Z</time>
      </trkpt>
      <trkpt lat="45.41045" lon="5.37208">
        <ele>626</ele>
        <time>2011-08-15T13:41:15Z</time>
      </trkpt>
      <trkpt lat="45.41046" lon="5.37201">
        <ele>627</ele>
        <time>2011-08-15T13:41:20Z</time>
      </trkpt>
      <trkpt lat="45.41046" lon="5.37191">
        <ele>627</ele>
        <time>2011-08-15T13:41:25Z</time>
      </trkpt>
      <trkpt lat="45.41048" lon="5.37184">
        <ele>627</ele>
        <time>2011-08-15T13:41:29Z</time>
      </trkpt>
      <trkpt lat="45.41051" lon="5.37178">
        <ele>626</ele>
        <time>2011-08-15T13:41:32Z</time>
      </trkpt>
      <trkpt lat="45.41053" lon="5.37173">
        <ele>626</ele>
        <time>2011-08-15T13:41:35Z</time>
      </trkpt>
      <trkpt lat="45.41052" lon="5.37163">
        <ele>626</ele>
        <time>2011-08-15T13:41:38Z</time>
      </trkpt>
      <trkpt lat="45.41045" lon="5.37155">
        <ele>627</ele>
        <time>2011-08-15T13:41:40Z</time>
      </trkpt>
      <trkpt lat="45.41043" lon="5.37147">
        <ele>627</ele>
        <time>2011-08-15T13:41:42Z</time>
      </trkpt>
      <trkpt lat="45.41041" lon="5.37141">
        <ele>628</ele>
        <time>2011-08-15T13:41:45Z</time>
      </trkpt>
      <trkpt lat="45.41043" lon="5.37134">
        <ele>627</ele>
        <time>2011-08-15T13:41:49Z</time>
      </trkpt>
      <trkpt lat="45.41045" lon="5.37126">
        <ele>626</ele>
        <time>2011-08-15T13:41:51Z</time>
      </trkpt>
      <trkpt lat="45.41043" lon="5.37118">
        <ele>625</ele>
        <time>2011-08-15T13:41:55Z</time>
      </trkpt>
      <trkpt lat="45.41071" lon="5.37069">
        <ele>623</ele>
        <time>2011-08-15T13:42:19Z</time>
      </trkpt>
      <trkpt lat="45.41082" lon="5.37065">
        <ele>624</ele>
        <time>2011-08-15T13:42:22Z</time>
      </trkpt>
      <trkpt lat="45.41089" lon="5.37066">
        <ele>624</ele>
        <time>2011-08-15T13:42:24Z</time>
      </trkpt>
      <trkpt lat="45.41093" lon="5.3706">
        <ele>624</ele>
        <time>2011-08-15T13:42:30Z</time>
      </trkpt>
      <trkpt lat="45.41098" lon="5.3706">
        <ele>625</ele>
        <time>2011-08-15T13:42:33Z</time>
      </trkpt>
      <trkpt lat="45.41092" lon="5.37055">
        <ele>624</ele>
        <time>2011-08-15T13:42:37Z</time>
      </trkpt>
      <trkpt lat="45.41096" lon="5.37058">
        <ele>624</ele>
        <time>2011-08-15T13:42:38Z</time>
      </trkpt>
      <trkpt lat="45.41104" lon="5.37061">
        <ele>624</ele>
        <time>2011-08-15T13:42:41Z</time>
      </trkpt>
      <trkpt lat="45.41109" lon="5.3706">
        <ele>623</ele>
        <time>2011-08-15T13:42:47Z</time>
      </trkpt>
      <trkpt lat="45.41113" lon="5.37055">
        <ele>623</ele>
        <time>2011-08-15T13:42:50Z</time>
      </trkpt>
      <trkpt lat="45.41116" lon="5.37047">
        <ele>625</ele>
        <time>2011-08-15T13:42:57Z</time>
      </trkpt>
      <trkpt lat="45.41121" lon="5.37041">
        <ele>625</ele>
        <time>2011-08-15T13:43:00Z</time>
      </trkpt>
      <trkpt lat="45.41112" lon="5.37031">
        <ele>624</ele>
        <time>2011-08-15T13:43:03Z</time>
      </trkpt>
      <trkpt lat="45.41113" lon="5.37024">
        <ele>621</ele>
        <time>2011-08-15T13:43:07Z</time>
      </trkpt>
      <trkpt lat="45.41114" lon="5.37018">
        <ele>621</ele>
        <time>2011-08-15T13:43:16Z</time>
      </trkpt>
      <trkpt lat="45.41114" lon="5.37011">
        <ele>621</ele>
        <time>2011-08-15T13:43:19Z</time>
      </trkpt>
      <trkpt lat="45.41113" lon="5.37004">
        <ele>621</ele>
        <time>2011-08-15T13:43:22Z</time>
      </trkpt>
      <trkpt lat="45.41116" lon="5.36997">
        <ele>620</ele>
        <time>2011-08-15T13:43:26Z</time>
      </trkpt>
      <trkpt lat="45.41116" lon="5.36987">
        <ele>620</ele>
        <time>2011-08-15T13:43:30Z</time>
      </trkpt>
      <trkpt lat="45.41114" lon="5.36978">
        <ele>620</ele>
        <time>2011-08-15T13:43:34Z</time>
      </trkpt>
      <trkpt lat="45.41125" lon="5.36975">
        <ele>619</ele>
        <time>2011-08-15T13:43:37Z</time>
      </trkpt>
      <trkpt lat="45.41128" lon="5.36892">
        <ele>617</ele>
        <time>2011-08-15T13:44:16Z</time>
      </trkpt>
      <trkpt lat="45.41132" lon="5.36886">
        <ele>617</ele>
        <time>2011-08-15T13:44:19Z</time>
      </trkpt>
      <trkpt lat="45.41129" lon="5.36879">
        <ele>618</ele>
        <time>2011-08-15T13:44:22Z</time>
      </trkpt>
      <trkpt lat="45.41135" lon="5.36878">
        <ele>617</ele>
        <time>2011-08-15T13:44:23Z</time>
      </trkpt>
      <trkpt lat="45.4114" lon="5.36876">
        <ele>616</ele>
        <time>2011-08-15T13:44:25Z</time>
      </trkpt>
      <trkpt lat="45.41138" lon="5.3687">
        <ele>616</ele>
        <time>2011-08-15T13:44:28Z</time>
      </trkpt>
      <trkpt lat="45.41135" lon="5.36864">
        <ele>614</ele>
        <time>2011-08-15T13:44:32Z</time>
      </trkpt>
      <trkpt lat="45.41136" lon="5.36858">
        <ele>614</ele>
        <time>2011-08-15T13:44:36Z</time>
      </trkpt>
      <trkpt lat="45.41133" lon="5.36853">
        <ele>614</ele>
        <time>2011-08-15T13:44:37Z</time>
      </trkpt>
      <trkpt lat="45.4113" lon="5.36847">
        <ele>613</ele>
        <time>2011-08-15T13:44:38Z</time>
      </trkpt>
      <trkpt lat="45.41128" lon="5.3684">
        <ele>613</ele>
        <time>2011-08-15T13:44:41Z</time>
      </trkpt>
      <trkpt lat="45.41129" lon="5.36834">
        <ele>614</ele>
        <time>2011-08-15T13:44:45Z</time>
      </trkpt>
      <trkpt lat="45.41128" lon="5.36826">
        <ele>613</ele>
        <time>2011-08-15T13:44:51Z</time>
      </trkpt>
      <trkpt lat="45.41122" lon="5.3682">
        <ele>612</ele>
        <time>2011-08-15T13:44:54Z</time>
      </trkpt>
      <trkpt lat="45.41126" lon="5.36816">
        <ele>613</ele>
        <time>2011-08-15T13:44:57Z</time>
      </trkpt>
      <trkpt lat="45.40828" lon="5.36653">
        <ele>654</ele>
        <time>2011-08-15T13:49:26Z</time>
      </trkpt>
      <trkpt lat="45.40823" lon="5.36652">
        <ele>658</ele>
        <time>2011-08-15T13:49:30Z</time>
      </trkpt>
      <trkpt lat="45.40818" lon="5.36652">
        <ele>656</ele>
        <time>2011-08-15T13:49:36Z</time>
      </trkpt>
      <trkpt lat="45.40803" lon="5.36652">
        <ele>655</ele>
        <time>2011-08-15T13:49:41Z</time>
      </trkpt>
      <trkpt lat="45.40798" lon="5.36651">
        <ele>653</ele>
        <time>2011-08-15T13:49:50Z</time>
      </trkpt>
      <trkpt lat="45.40793" lon="5.36652">
        <ele>655</ele>
        <time>2011-08-15T13:49:56Z</time>
      </trkpt>
      <trkpt lat="45.40788" lon="5.36649">
        <ele>651</ele>
        <time>2011-08-15T13:50:02Z</time>
      </trkpt>
      <trkpt lat="45.40788" lon="5.36649">
        <ele>651</ele>
        <time>2011-08-15T13:50:02Z</time>
      </trkpt>
      <trkpt lat="45.40788" lon="5.36649">
        <ele>649</ele>
        <time>2011-08-15T13:50:08Z</time>
      </trkpt>
      <trkpt lat="45.40775" lon="5.36652">
        <ele>649</ele>
        <time>2011-08-15T13:50:27Z</time>
      </trkpt>
      <trkpt lat="45.40772" lon="5.36655">
        <ele>647</ele>
        <time>2011-08-15T13:50:29Z</time>
      </trkpt>
      <trkpt lat="45.40764" lon="5.36659">
        <ele>645</ele>
        <time>2011-08-15T13:50:32Z</time>
      </trkpt>
      <trkpt lat="45.40758" lon="5.3666">
        <ele>645</ele>
        <time>2011-08-15T13:50:33Z</time>
      </trkpt>
      <trkpt lat="45.40756" lon="5.36665">
        <ele>646</ele>
        <time>2011-08-15T13:50:38Z</time>
      </trkpt>
      <trkpt lat="45.40751" lon="5.36668">
        <ele>647</ele>
        <time>2011-08-15T13:50:51Z</time>
      </trkpt>
      <trkpt lat="45.40746" lon="5.36669">
        <ele>645</ele>
        <time>2011-08-15T13:50:53Z</time>
      </trkpt>
      <trkpt lat="45.40741" lon="5.36667">
        <ele>646</ele>
        <time>2011-08-15T13:50:54Z</time>
      </trkpt>
      <trkpt lat="45.40734" lon="5.36668">
        <ele>646</ele>
        <time>2011-08-15T13:50:57Z</time>
      </trkpt>
      <trkpt lat="45.40726" lon="5.36671">
        <ele>647</ele>
        <time>2011-08-15T13:51:01Z</time>
      </trkpt>
      <trkpt lat="45.40719" lon="5.36673">
        <ele>647</ele>
        <time>2011-08-15T13:51:03Z</time>
      </trkpt>
      <trkpt lat="45.40714" lon="5.36678">
        <ele>649</ele>
        <time>2011-08-15T13:51:11Z</time>
      </trkpt>
      <trkpt lat="45.40709" lon="5.36679">
        <ele>648</ele>
        <time>2011-08-15T13:51:24Z</time>
      </trkpt>
      <trkpt lat="45.40702" lon="5.36682">
        <ele>649</ele>
        <time>2011-08-15T13:51:27Z</time>
      </trkpt>
      <trkpt lat="45.40697" lon="5.36679">
        <ele>647</ele>
        <time>2011-08-15T13:51:28Z</time>
      </trkpt>
      <trkpt lat="45.40691" lon="5.36679">
        <ele>647</ele>
        <time>2011-08-15T13:51:29Z</time>
      </trkpt>
      <trkpt lat="45.40686" lon="5.36679">
        <ele>647</ele>
        <time>2011-08-15T13:51:31Z</time>
      </trkpt>
      <trkpt lat="45.4068" lon="5.36679">
        <ele>648</ele>
        <time>2011-08-15T13:51:34Z</time>
      </trkpt>
      <trkpt lat="45.4068" lon="5.36672">
        <ele>648</ele>
        <time>2011-08-15T13:51:39Z</time>
      </trkpt>
      <trkpt lat="45.40683" lon="5.36666">
        <ele>647</ele>
        <time>2011-08-15T13:51:43Z</time>
      </trkpt>
      <trkpt lat="45.40686" lon="5.36659">
        <ele>647</ele>
        <time>2011-08-15T13:51:48Z</time>
      </trkpt>
      <trkpt lat="45.40692" lon="5.36654">
        <ele>645</ele>
        <time>2011-08-15T13:51:52Z</time>
      </trkpt>
      <trkpt lat="45.40696" lon="5.36649">
        <ele>643</ele>
        <time>2011-08-15T13:51:56Z</time>
      </trkpt>
      <trkpt lat="45.407" lon="5.36647">
        <ele>643</ele>
        <time>2011-08-15T13:51:58Z</time>
      </trkpt>
      <trkpt lat="45.40702" lon="5.36641">
        <ele>644</ele>
        <time>2011-08-15T13:52:01Z</time>
      </trkpt>
      <trkpt lat="45.40705" lon="5.36634">
        <ele>644</ele>
        <time>2011-08-15T13:52:06Z</time>
      </trkpt>
      <trkpt lat="45.40708" lon="5.36627">
        <ele>643</ele>
        <time>2011-08-15T13:52:10Z</time>
      </trkpt>
      <trkpt lat="45.40712" lon="5.36623">
        <ele>643</ele>
        <time>2011-08-15T13:52:12Z</time>
      </trkpt>
      <trkpt lat="45.40716" lon="5.36618">
        <ele>645</ele>
        <time>2011-08-15T13:52:15Z</time>
      </trkpt>
      <trkpt lat="45.40719" lon="5.36612">
        <ele>643</ele>
        <time>2011-08-15T13:52:20Z</time>
      </trkpt>
      <trkpt lat="45.40721" lon="5.36603">
        <ele>644</ele>
        <time>2011-08-15T13:52:25Z</time>
      </trkpt>
      <trkpt lat="45.40727" lon="5.366">
        <ele>646</ele>
        <time>2011-08-15T13:52:28Z</time>
      </trkpt>
      <trkpt lat="45.40732" lon="5.36596">
        <ele>647</ele>
        <time>2011-08-15T13:52:31Z</time>
      </trkpt>
      <trkpt lat="45.40731" lon="5.36589">
        <ele>647</ele>
        <time>2011-08-15T13:52:35Z</time>
      </trkpt>
      <trkpt lat="45.40735" lon="5.36584">
        <ele>648</ele>
        <time>2011-08-15T13:52:42Z</time>
      </trkpt>
      <trkpt lat="45.40739" lon="5.36581">
        <ele>648</ele>
        <time>2011-08-15T13:52:46Z</time>
      </trkpt>
      <trkpt lat="45.40745" lon="5.36576">
        <ele>647</ele>
        <time>2011-08-15T13:52:50Z</time>
      </trkpt>
      <trkpt lat="45.40745" lon="5.36576">
        <ele>647</ele>
        <time>2011-08-15T13:52:50Z</time>
      </trkpt>
      <trkpt lat="45.40745" lon="5.36576">
        <ele>647</ele>
        <time>2011-08-15T13:52:51Z</time>
      </trkpt>
      <trkpt lat="45.40751" lon="5.36573">
        <ele>648</ele>
        <time>2011-08-15T13:52:54Z</time>
      </trkpt>
      <trkpt lat="45.40757" lon="5.36568">
        <ele>647</ele>
        <time>2011-08-15T13:52:57Z</time>
      </trkpt>
      <trkpt lat="45.40762" lon="5.36566">
        <ele>647</ele>
        <time>2011-08-15T13:53:00Z</time>
      </trkpt>
      <trkpt lat="45.40764" lon="5.3656">
        <ele>647</ele>
        <time>2011-08-15T13:53:07Z</time>
      </trkpt>
      <trkpt lat="45.4077" lon="5.36554">
        <ele>646</ele>
        <time>2011-08-15T13:53:10Z</time>
      </trkpt>
      <trkpt lat="45.40771" lon="5.36547">
        <ele>646</ele>
        <time>2011-08-15T13:53:15Z</time>
      </trkpt>
      <trkpt lat="45.40775" lon="5.36543">
        <ele>646</ele>
        <time>2011-08-15T13:53:18Z</time>
      </trkpt>
      <trkpt lat="45.40781" lon="5.36541">
        <ele>647</ele>
        <time>2011-08-15T13:53:21Z</time>
      </trkpt>
      <trkpt lat="45.40788" lon="5.36538">
        <ele>649</ele>
        <time>2011-08-15T13:53:23Z</time>
      </trkpt>
      <trkpt lat="45.40792" lon="5.3653">
        <ele>650</ele>
        <time>2011-08-15T13:53:29Z</time>
      </trkpt>
      <trkpt lat="45.40795" lon="5.36525">
        <ele>651</ele>
        <time>2011-08-15T13:53:32Z</time>
      </trkpt>
      <trkpt lat="45.40798" lon="5.36519">
        <ele>652</ele>
        <time>2011-08-15T13:53:35Z</time>
      </trkpt>
      <trkpt lat="45.40803" lon="5.36517">
        <ele>652</ele>
        <time>2011-08-15T13:53:37Z</time>
      </trkpt>
      <trkpt lat="45.4081" lon="5.36514">
        <ele>654</ele>
        <time>2011-08-15T13:53:42Z</time>
      </trkpt>
      <trkpt lat="45.40809" lon="5.36507">
        <ele>654</ele>
        <time>2011-08-15T13:53:45Z</time>
      </trkpt>
      <trkpt lat="45.40812" lon="5.36501">
        <ele>654</ele>
        <time>2011-08-15T13:53:49Z</time>
      </trkpt>
      <trkpt lat="45.40815" lon="5.36494">
        <ele>654</ele>
        <time>2011-08-15T13:53:53Z</time>
      </trkpt>
      <trkpt lat="45.40817" lon="5.36487">
        <ele>654</ele>
        <time>2011-08-15T13:53:56Z</time>
      </trkpt>
      <trkpt lat="45.40821" lon="5.36481">
        <ele>654</ele>
        <time>2011-08-15T13:53:59Z</time>
      </trkpt>
      <trkpt lat="45.4082" lon="5.36474">
        <ele>655</ele>
        <time>2011-08-15T13:54:04Z</time>
      </trkpt>
      <trkpt lat="45.40819" lon="5.36467">
        <ele>656</ele>
        <time>2011-08-15T13:54:09Z</time>
      </trkpt>
      <trkpt lat="45.40822" lon="5.3646">
        <ele>656</ele>
        <time>2011-08-15T13:54:13Z</time>
      </trkpt>
      <trkpt lat="45.40823" lon="5.36454">
        <ele>655</ele>
        <time>2011-08-15T13:54:19Z</time>
      </trkpt>
      <trkpt lat="45.40828" lon="5.36449">
        <ele>655</ele>
        <time>2011-08-15T13:54:24Z</time>
      </trkpt>
      <trkpt lat="45.40832" lon="5.36446">
        <ele>655</ele>
        <time>2011-08-15T13:54:26Z</time>
      </trkpt>
      <trkpt lat="45.40836" lon="5.3644">
        <ele>654</ele>
        <time>2011-08-15T13:54:29Z</time>
      </trkpt>
      <trkpt lat="45.40842" lon="5.36434">
        <ele>653</ele>
        <time>2011-08-15T13:54:31Z</time>
      </trkpt>
      <trkpt lat="45.40847" lon="5.3643">
        <ele>653</ele>
        <time>2011-08-15T13:54:35Z</time>
      </trkpt>
      <trkpt lat="45.40851" lon="5.36426">
        <ele>652</ele>
        <time>2011-08-15T13:54:38Z</time>
      </trkpt>
      <trkpt lat="45.40857" lon="5.36425">
        <ele>654</ele>
        <time>2011-08-15T13:54:40Z</time>
      </trkpt>
      <trkpt lat="45.40864" lon="5.36424">
        <ele>656</ele>
        <time>2011-08-15T13:54:41Z</time>
      </trkpt>
      <trkpt lat="45.40868" lon="5.36419">
        <ele>655</ele>
        <time>2011-08-15T13:54:47Z</time>
      </trkpt>
      <trkpt lat="45.40872" lon="5.36416">
        <ele>655</ele>
        <time>2011-08-15T13:54:53Z</time>
      </trkpt>
      <trkpt lat="45.40876" lon="5.36413">
        <ele>657</ele>
        <time>2011-08-15T13:54:57Z</time>
      </trkpt>
      <trkpt lat="45.4088" lon="5.3641">
        <ele>657</ele>
        <time>2011-08-15T13:55:00Z</time>
      </trkpt>
      <trkpt lat="45.40885" lon="5.36405">
        <ele>656</ele>
        <time>2011-08-15T13:55:05Z</time>
      </trkpt>
      <trkpt lat="45.4089" lon="5.36403">
        <ele>654</ele>
        <time>2011-08-15T13:55:08Z</time>
      </trkpt>
      <trkpt lat="45.40893" lon="5.36397">
        <ele>652</ele>
        <time>2011-08-15T13:55:13Z</time>
      </trkpt>
      <trkpt lat="45.40898" lon="5.36394">
        <ele>652</ele>
        <time>2011-08-15T13:55:17Z</time>
      </trkpt>
      <trkpt lat="45.40902" lon="5.36391">
        <ele>652</ele>
        <time>2011-08-15T13:55:26Z</time>
      </trkpt>
      <trkpt lat="45.40907" lon="5.36386">
        <ele>651</ele>
        <time>2011-08-15T13:55:29Z</time>
      </trkpt>
      <trkpt lat="45.40912" lon="5.36382">
        <ele>651</ele>
        <time>2011-08-15T13:55:32Z</time>
      </trkpt>
      <trkpt lat="45.40918" lon="5.36381">
        <ele>650</ele>
        <time>2011-08-15T13:55:35Z</time>
      </trkpt>
      <trkpt lat="45.40925" lon="5.3638">
        <ele>651</ele>
        <time>2011-08-15T13:55:39Z</time>
      </trkpt>
      <trkpt lat="45.40932" lon="5.3638">
        <ele>651</ele>
        <time>2011-08-15T13:55:43Z</time>
      </trkpt>
      <trkpt lat="45.40937" lon="5.36374">
        <ele>650</ele>
        <time>2011-08-15T13:55:48Z</time>
      </trkpt>
      <trkpt lat="45.40942" lon="5.3637">
        <ele>650</ele>
        <time>2011-08-15T13:55:51Z</time>
      </trkpt>
      <trkpt lat="45.40947" lon="5.36367">
        <ele>649</ele>
        <time>2011-08-15T13:55:54Z</time>
      </trkpt>
      <trkpt lat="45.40952" lon="5.36362">
        <ele>649</ele>
        <time>2011-08-15T13:55:57Z</time>
      </trkpt>
      <trkpt lat="45.4096" lon="5.36351">
        <ele>649</ele>
        <time>2011-08-15T13:56:34Z</time>
      </trkpt>
      <trkpt lat="45.40962" lon="5.36339">
        <ele>647</ele>
        <time>2011-08-15T13:56:36Z</time>
      </trkpt>
      <trkpt lat="45.40965" lon="5.36333">
        <ele>646</ele>
        <time>2011-08-15T13:56:37Z</time>
      </trkpt>
      <trkpt lat="45.40969" lon="5.3633">
        <ele>646</ele>
        <time>2011-08-15T13:56:38Z</time>
      </trkpt>
      <trkpt lat="45.40979" lon="5.36322">
        <ele>647</ele>
        <time>2011-08-15T13:56:41Z</time>
      </trkpt>
      <trkpt lat="45.40985" lon="5.36318">
        <ele>647</ele>
        <time>2011-08-15T13:56:43Z</time>
      </trkpt>
      <trkpt lat="45.40988" lon="5.36315">
        <ele>646</ele>
        <time>2011-08-15T13:56:45Z</time>
      </trkpt>
      <trkpt lat="45.40995" lon="5.36312">
        <ele>645</ele>
        <time>2011-08-15T13:56:47Z</time>
      </trkpt>
      <trkpt lat="45.41001" lon="5.36311">
        <ele>644</ele>
        <time>2011-08-15T13:56:49Z</time>
      </trkpt>
      <trkpt lat="45.41011" lon="5.36308">
        <ele>642</ele>
        <time>2011-08-15T13:56:53Z</time>
      </trkpt>
      <trkpt lat="45.41014" lon="5.36302">
        <ele>643</ele>
        <time>2011-08-15T13:56:56Z</time>
      </trkpt>
      <trkpt lat="45.4102" lon="5.36296">
        <ele>642</ele>
        <time>2011-08-15T13:56:59Z</time>
      </trkpt>
      <trkpt lat="45.41024" lon="5.3629">
        <ele>642</ele>
        <time>2011-08-15T13:57:04Z</time>
      </trkpt>
      <trkpt lat="45.41029" lon="5.36286">
        <ele>643</ele>
        <time>2011-08-15T13:57:06Z</time>
      </trkpt>
      <trkpt lat="45.41034" lon="5.36279">
        <ele>644</ele>
        <time>2011-08-15T13:57:12Z</time>
      </trkpt>
      <trkpt lat="45.41036" lon="5.36274">
        <ele>643</ele>
        <time>2011-08-15T13:57:16Z</time>
      </trkpt>
      <trkpt lat="45.41039" lon="5.36268">
        <ele>642</ele>
        <time>2011-08-15T13:57:20Z</time>
      </trkpt>
      <trkpt lat="45.41044" lon="5.36264">
        <ele>643</ele>
        <time>2011-08-15T13:57:22Z</time>
      </trkpt>
      <trkpt lat="45.41051" lon="5.36258">
        <ele>643</ele>
        <time>2011-08-15T13:57:25Z</time>
      </trkpt>
      <trkpt lat="45.41053" lon="5.36252">
        <ele>641</ele>
        <time>2011-08-15T13:57:28Z</time>
      </trkpt>
      <trkpt lat="45.41054" lon="5.36245">
        <ele>641</ele>
        <time>2011-08-15T13:57:30Z</time>
      </trkpt>
      <trkpt lat="45.41058" lon="5.36242">
        <ele>640</ele>
        <time>2011-08-15T13:57:35Z</time>
      </trkpt>
      <trkpt lat="45.41062" lon="5.3624">
        <ele>640</ele>
        <time>2011-08-15T13:57:36Z</time>
      </trkpt>
      <trkpt lat="45.4106" lon="5.36227">
        <ele>639</ele>
        <time>2011-08-15T13:58:17Z</time>
      </trkpt>
      <trkpt lat="45.4106" lon="5.36218">
        <ele>638</ele>
        <time>2011-08-15T13:58:18Z</time>
      </trkpt>
      <trkpt lat="45.41062" lon="5.3621">
        <ele>637</ele>
        <time>2011-08-15T13:58:19Z</time>
      </trkpt>
      <trkpt lat="45.41065" lon="5.36204">
        <ele>637</ele>
        <time>2011-08-15T13:58:20Z</time>
      </trkpt>
      <trkpt lat="45.41069" lon="5.36198">
        <ele>636</ele>
        <time>2011-08-15T13:58:21Z</time>
      </trkpt>
      <trkpt lat="45.41073" lon="5.36192">
        <ele>636</ele>
        <time>2011-08-15T13:58:22Z</time>
      </trkpt>
      <trkpt lat="45.41075" lon="5.36186">
        <ele>635</ele>
        <time>2011-08-15T13:58:23Z</time>
      </trkpt>
      <trkpt lat="45.41079" lon="5.36178">
        <ele>635</ele>
        <time>2011-08-15T13:58:25Z</time>
      </trkpt>
      <trkpt lat="45.41083" lon="5.36175">
        <ele>635</ele>
        <time>2011-08-15T13:58:26Z</time>
      </trkpt>
      <trkpt lat="45.41086" lon="5.36169">
        <ele>634</ele>
        <time>2011-08-15T13:58:28Z</time>
      </trkpt>
      <trkpt lat="45.4109" lon="5.36165">
        <ele>633</ele>
        <time>2011-08-15T13:58:30Z</time>
      </trkpt>
      <trkpt lat="45.41097" lon="5.36161">
        <ele>633</ele>
        <time>2011-08-15T13:58:32Z</time>
      </trkpt>
      <trkpt lat="45.41099" lon="5.36155">
        <ele>633</ele>
        <time>2011-08-15T13:58:34Z</time>
      </trkpt>
      <trkpt lat="45.41104" lon="5.36149">
        <ele>634</ele>
        <time>2011-08-15T13:58:37Z</time>
      </trkpt>
      <trkpt lat="45.41111" lon="5.36144">
        <ele>634</ele>
        <time>2011-08-15T13:58:39Z</time>
      </trkpt>
      <trkpt lat="45.41115" lon="5.36139">
        <ele>632</ele>
        <time>2011-08-15T13:58:44Z</time>
      </trkpt>
      <trkpt lat="45.41119" lon="5.36135">
        <ele>632</ele>
        <time>2011-08-15T13:58:48Z</time>
      </trkpt>
      <trkpt lat="45.41122" lon="5.3613">
        <ele>631</ele>
        <time>2011-08-15T13:58:50Z</time>
      </trkpt>
      <trkpt lat="45.41126" lon="5.36125">
        <ele>632</ele>
        <time>2011-08-15T13:58:54Z</time>
      </trkpt>
      <trkpt lat="45.4113" lon="5.3612">
        <ele>632</ele>
        <time>2011-08-15T13:58:56Z</time>
      </trkpt>
      <trkpt lat="45.41136" lon="5.36117">
        <ele>631</ele>
        <time>2011-08-15T13:58:58Z</time>
      </trkpt>
      <trkpt lat="45.41141" lon="5.3611">
        <ele>630</ele>
        <time>2011-08-15T13:59:03Z</time>
      </trkpt>
      <trkpt lat="45.41145" lon="5.36106">
        <ele>631</ele>
        <time>2011-08-15T13:59:07Z</time>
      </trkpt>
      <trkpt lat="45.41149" lon="5.36101">
        <ele>633</ele>
        <time>2011-08-15T13:59:11Z</time>
      </trkpt>
      <trkpt lat="45.41152" lon="5.36094">
        <ele>632</ele>
        <time>2011-08-15T13:59:14Z</time>
      </trkpt>
      <trkpt lat="45.41155" lon="5.36087">
        <ele>632</ele>
        <time>2011-08-15T13:59:19Z</time>
      </trkpt>
      <trkpt lat="45.41158" lon="5.36082">
        <ele>631</ele>
        <time>2011-08-15T13:59:22Z</time>
      </trkpt>
      <trkpt lat="45.41164" lon="5.36078">
        <ele>632</ele>
        <time>2011-08-15T13:59:26Z</time>
      </trkpt>
      <trkpt lat="45.41169" lon="5.36073">
        <ele>631</ele>
        <time>2011-08-15T13:59:31Z</time>
      </trkpt>
      <trkpt lat="45.41181" lon="5.36065">
        <ele>626</ele>
        <time>2011-08-15T14:00:34Z</time>
      </trkpt>
      <trkpt lat="45.41186" lon="5.36059">
        <ele>625</ele>
        <time>2011-08-15T14:00:36Z</time>
      </trkpt>
      <trkpt lat="45.41191" lon="5.36057">
        <ele>625</ele>
        <time>2011-08-15T14:00:38Z</time>
      </trkpt>
      <trkpt lat="45.41199" lon="5.36055">
        <ele>624</ele>
        <time>2011-08-15T14:00:41Z</time>
      </trkpt>
      <trkpt lat="45.41202" lon="5.36049">
        <ele>623</ele>
        <time>2011-08-15T14:00:43Z</time>
      </trkpt>
      <trkpt lat="45.41207" lon="5.36047">
        <ele>623</ele>
        <time>2011-08-15T14:00:45Z</time>
      </trkpt>
      <trkpt lat="45.41213" lon="5.36045">
        <ele>622</ele>
        <time>2011-08-15T14:00:47Z</time>
      </trkpt>
      <trkpt lat="45.41217" lon="5.36041">
        <ele>622</ele>
        <time>2011-08-15T14:00:50Z</time>
      </trkpt>
      <trkpt lat="45.41221" lon="5.36037">
        <ele>622</ele>
        <time>2011-08-15T14:00:53Z</time>
      </trkpt>
      <trkpt lat="45.41226" lon="5.36034">
        <ele>622</ele>
        <time>2011-08-15T14:00:55Z</time>
      </trkpt>
      <trkpt lat="45.41231" lon="5.36026">
        <ele>621</ele>
        <time>2011-08-15T14:00:58Z</time>
      </trkpt>
      <trkpt lat="45.41235" lon="5.36022">
        <ele>621</ele>
        <time>2011-08-15T14:01:02Z</time>
      </trkpt>
      <trkpt lat="45.41239" lon="5.36015">
        <ele>620</ele>
        <time>2011-08-15T14:01:06Z</time>
      </trkpt>
      <trkpt lat="45.41242" lon="5.3601">
        <ele>620</ele>
        <time>2011-08-15T14:01:08Z</time>
      </trkpt>
      <trkpt lat="45.41242" lon="5.36003">
        <ele>619</ele>
        <time>2011-08-15T14:01:13Z</time>
      </trkpt>
      <trkpt lat="45.41245" lon="5.35998">
        <ele>619</ele>
        <time>2011-08-15T14:01:15Z</time>
      </trkpt>
      <trkpt lat="45.41249" lon="5.35991">
        <ele>618</ele>
        <time>2011-08-15T14:01:19Z</time>
      </trkpt>
      <trkpt lat="45.41251" lon="5.35985">
        <ele>616</ele>
        <time>2011-08-15T14:01:23Z</time>
      </trkpt>
      <trkpt lat="45.41249" lon="5.35979">
        <ele>615</ele>
        <time>2011-08-15T14:01:28Z</time>
      </trkpt>
      <trkpt lat="45.4125" lon="5.35972">
        <ele>614</ele>
        <time>2011-08-15T14:01:33Z</time>
      </trkpt>
      <trkpt lat="45.41248" lon="5.35966">
        <ele>614</ele>
        <time>2011-08-15T14:01:34Z</time>
      </trkpt>
      <trkpt lat="45.41239" lon="5.35955">
        <ele>613</ele>
        <time>2011-08-15T14:01:41Z</time>
      </trkpt>
      <trkpt lat="45.41242" lon="5.35949">
        <ele>613</ele>
        <time>2011-08-15T14:01:43Z</time>
      </trkpt>
      <trkpt lat="45.41247" lon="5.35945">
        <ele>613</ele>
        <time>2011-08-15T14:01:45Z</time>
      </trkpt>
      <trkpt lat="45.41243" lon="5.35939">
        <ele>613</ele>
        <time>2011-08-15T14:01:47Z</time>
      </trkpt>
      <trkpt lat="45.41237" lon="5.35935">
        <ele>613</ele>
        <time>2011-08-15T14:01:50Z</time>
      </trkpt>
      <trkpt lat="45.41239" lon="5.35928">
        <ele>612</ele>
        <time>2011-08-15T14:01:54Z</time>
      </trkpt>
      <trkpt lat="45.41236" lon="5.35923">
        <ele>613</ele>
        <time>2011-08-15T14:01:56Z</time>
      </trkpt>
      <trkpt lat="45.41234" lon="5.35917">
        <ele>613</ele>
        <time>2011-08-15T14:01:59Z</time>
      </trkpt>
      <trkpt lat="45.41232" lon="5.35911">
        <ele>612</ele>
        <time>2011-08-15T14:02:03Z</time>
      </trkpt>
      <trkpt lat="45.41231" lon="5.35904">
        <ele>612</ele>
        <time>2011-08-15T14:02:07Z</time>
      </trkpt>
      <trkpt lat="45.41234" lon="5.35898">
        <ele>612</ele>
        <time>2011-08-15T14:02:11Z</time>
      </trkpt>
      <trkpt lat="45.41239" lon="5.35892">
        <ele>612</ele>
        <time>2011-08-15T14:02:17Z</time>
      </trkpt>
      <trkpt lat="45.41234" lon="5.3589">
        <ele>612</ele>
        <time>2011-08-15T14:02:19Z</time>
      </trkpt>
      <trkpt lat="45.41238" lon="5.3589">
        <ele>611</ele>
        <time>2011-08-15T14:02:31Z</time>
      </trkpt>
      <trkpt lat="45.41238" lon="5.3589">
        <ele>611</ele>
        <time>2011-08-15T14:02:31Z</time>
      </trkpt>
      <trkpt lat="45.41238" lon="5.3589">
        <ele>611</ele>
        <time>2011-08-15T14:02:36Z</time>
      </trkpt>
      <trkpt lat="45.41244" lon="5.35888">
        <ele>610</ele>
        <time>2011-08-15T14:03:14Z</time>
      </trkpt>
      <trkpt lat="45.4125" lon="5.35883">
        <ele>611</ele>
        <time>2011-08-15T14:03:15Z</time>
      </trkpt>
      <trkpt lat="45.41257" lon="5.35879">
        <ele>609</ele>
        <time>2011-08-15T14:03:17Z</time>
      </trkpt>
      <trkpt lat="45.41263" lon="5.35876">
        <ele>608</ele>
        <time>2011-08-15T14:03:19Z</time>
      </trkpt>
      <trkpt lat="45.4127" lon="5.3587">
        <ele>606</ele>
        <time>2011-08-15T14:03:21Z</time>
      </trkpt>
      <trkpt lat="45.41276" lon="5.3587">
        <ele>605</ele>
        <time>2011-08-15T14:03:24Z</time>
      </trkpt>
      <trkpt lat="45.41282" lon="5.35867">
        <ele>604</ele>
        <time>2011-08-15T14:03:25Z</time>
      </trkpt>
      <trkpt lat="45.41288" lon="5.35861">
        <ele>605</ele>
        <time>2011-08-15T14:03:27Z</time>
      </trkpt>
      <trkpt lat="45.41293" lon="5.35858">
        <ele>605</ele>
        <time>2011-08-15T14:03:30Z</time>
      </trkpt>
      <trkpt lat="45.41298" lon="5.35853">
        <ele>604</ele>
        <time>2011-08-15T14:03:34Z</time>
      </trkpt>
      <trkpt lat="45.41303" lon="5.35851">
        <ele>605</ele>
        <time>2011-08-15T14:03:36Z</time>
      </trkpt>
      <trkpt lat="45.41309" lon="5.35847">
        <ele>603</ele>
        <time>2011-08-15T14:03:40Z</time>
      </trkpt>
      <trkpt lat="45.41313" lon="5.35844">
        <ele>603</ele>
        <time>2011-08-15T14:03:42Z</time>
      </trkpt>
      <trkpt lat="45.41318" lon="5.35839">
        <ele>603</ele>
        <time>2011-08-15T14:03:46Z</time>
      </trkpt>
      <trkpt lat="45.41324" lon="5.35835">
        <ele>602</ele>
        <time>2011-08-15T14:03:51Z</time>
      </trkpt>
      <trkpt lat="45.41328" lon="5.35829">
        <ele>601</ele>
        <time>2011-08-15T14:03:54Z</time>
      </trkpt>
      <trkpt lat="45.41334" lon="5.35829">
        <ele>601</ele>
        <time>2011-08-15T14:03:57Z</time>
      </trkpt>
      <trkpt lat="45.4134" lon="5.35822">
        <ele>600</ele>
        <time>2011-08-15T14:04:01Z</time>
      </trkpt>
      <trkpt lat="45.41345" lon="5.35818">
        <ele>601</ele>
        <time>2011-08-15T14:04:03Z</time>
      </trkpt>
      <trkpt lat="45.41349" lon="5.35814">
        <ele>602</ele>
        <time>2011-08-15T14:04:05Z</time>
      </trkpt>
      <trkpt lat="45.41356" lon="5.35807">
        <ele>604</ele>
        <time>2011-08-15T14:04:43Z</time>
      </trkpt>
      <trkpt lat="45.41362" lon="5.35802">
        <ele>605</ele>
        <time>2011-08-15T14:04:45Z</time>
      </trkpt>
      <trkpt lat="45.41369" lon="5.358">
        <ele>606</ele>
        <time>2011-08-15T14:04:47Z</time>
      </trkpt>
      <trkpt lat="45.41373" lon="5.35796">
        <ele>605</ele>
        <time>2011-08-15T14:04:49Z</time>
      </trkpt>
      <trkpt lat="45.41379" lon="5.35793">
        <ele>604</ele>
        <time>2011-08-15T14:04:52Z</time>
      </trkpt>
      <trkpt lat="45.4139" lon="5.35789">
        <ele>602</ele>
        <time>2011-08-15T14:04:54Z</time>
      </trkpt>
      <trkpt lat="45.41397" lon="5.35786">
        <ele>600</ele>
        <time>2011-08-15T14:04:57Z</time>
      </trkpt>
      <trkpt lat="45.41402" lon="5.35784">
        <ele>600</ele>
        <time>2011-08-15T14:04:59Z</time>
      </trkpt>
      <trkpt lat="45.41408" lon="5.35782">
        <ele>599</ele>
        <time>2011-08-15T14:05:02Z</time>
      </trkpt>
      <trkpt lat="45.41413" lon="5.35783">
        <ele>599</ele>
        <time>2011-08-15T14:05:05Z</time>
      </trkpt>
      <trkpt lat="45.41418" lon="5.3578">
        <ele>599</ele>
        <time>2011-08-15T14:05:08Z</time>
      </trkpt>
      <trkpt lat="45.41423" lon="5.35776">
        <ele>600</ele>
        <time>2011-08-15T14:05:12Z</time>
      </trkpt>
      <trkpt lat="45.41428" lon="5.35776">
        <ele>599</ele>
        <time>2011-08-15T14:05:14Z</time>
      </trkpt>
      <trkpt lat="45.41432" lon="5.35771">
        <ele>602</ele>
        <time>2011-08-15T14:05:19Z</time>
      </trkpt>
      <trkpt lat="45.41437" lon="5.35767">
        <ele>601</ele>
        <time>2011-08-15T14:05:24Z</time>
      </trkpt>
      <trkpt lat="45.41444" lon="5.35765">
        <ele>601</ele>
        <time>2011-08-15T14:05:26Z</time>
      </trkpt>
      <trkpt lat="45.41449" lon="5.35762">
        <ele>600</ele>
        <time>2011-08-15T14:05:30Z</time>
      </trkpt>
      <trkpt lat="45.41454" lon="5.3576">
        <ele>599</ele>
        <time>2011-08-15T14:05:35Z</time>
      </trkpt>
      <trkpt lat="45.41456" lon="5.35754">
        <ele>599</ele>
        <time>2011-08-15T14:05:38Z</time>
      </trkpt>
      <trkpt lat="45.4146" lon="5.35748">
        <ele>596</ele>
        <time>2011-08-15T14:05:43Z</time>
      </trkpt>
      <trkpt lat="45.41462" lon="5.35742">
        <ele>597</ele>
        <time>2011-08-15T14:05:47Z</time>
      </trkpt>
      <trkpt lat="45.41464" lon="5.35733">
        <ele>596</ele>
        <time>2011-08-15T14:05:50Z</time>
      </trkpt>
      <trkpt lat="45.41467" lon="5.35727">
        <ele>596</ele>
        <time>2011-08-15T14:05:54Z</time>
      </trkpt>
      <trkpt lat="45.41471" lon="5.35721">
        <ele>595</ele>
        <time>2011-08-15T14:05:57Z</time>
      </trkpt>
      <trkpt lat="45.41475" lon="5.35716">
        <ele>594</ele>
        <time>2011-08-15T14:06:01Z</time>
      </trkpt>
      <trkpt lat="45.41475" lon="5.35708">
        <ele>594</ele>
        <time>2011-08-15T14:06:04Z</time>
      </trkpt>
      <trkpt lat="45.41479" lon="5.35702">
        <ele>593</ele>
        <time>2011-08-15T14:06:09Z</time>
      </trkpt>
      <trkpt lat="45.41481" lon="5.35695">
        <ele>592</ele>
        <time>2011-08-15T14:06:13Z</time>
      </trkpt>
      <trkpt lat="45.41486" lon="5.3569">
        <ele>591</ele>
        <time>2011-08-15T14:06:17Z</time>
      </trkpt>
      <trkpt lat="45.4149" lon="5.35685">
        <ele>591</ele>
        <time>2011-08-15T14:06:20Z</time>
      </trkpt>
      <trkpt lat="45.41494" lon="5.35681">
        <ele>591</ele>
        <time>2011-08-15T14:06:22Z</time>
      </trkpt>
      <trkpt lat="45.41496" lon="5.35674">
        <ele>591</ele>
        <time>2011-08-15T14:06:28Z</time>
      </trkpt>
      <trkpt lat="45.415" lon="5.35668">
        <ele>590</ele>
        <time>2011-08-15T14:06:33Z</time>
      </trkpt>
      <trkpt lat="45.41504" lon="5.35664">
        <ele>592</ele>
        <time>2011-08-15T14:06:35Z</time>
      </trkpt>
      <trkpt lat="45.415" lon="5.35661">
        <ele>592</ele>
        <time>2011-08-15T14:06:38Z</time>
      </trkpt>
      <trkpt lat="45.41506" lon="5.35657">
        <ele>592</ele>
        <time>2011-08-15T14:06:41Z</time>
      </trkpt>
      <trkpt lat="45.41511" lon="5.35655">
        <ele>593</ele>
        <time>2011-08-15T14:06:42Z</time>
      </trkpt>
      <trkpt lat="45.41511" lon="5.35648">
        <ele>592</ele>
        <time>2011-08-15T14:06:44Z</time>
      </trkpt>
      <trkpt lat="45.41516" lon="5.35641">
        <ele>591</ele>
        <time>2011-08-15T14:06:46Z</time>
      </trkpt>
      <trkpt lat="45.41515" lon="5.35633">
        <ele>591</ele>
        <time>2011-08-15T14:06:52Z</time>
      </trkpt>
      <trkpt lat="45.41518" lon="5.35627">
        <ele>591</ele>
        <time>2011-08-15T14:06:55Z</time>
      </trkpt>
      <trkpt lat="45.41522" lon="5.3562">
        <ele>591</ele>
        <time>2011-08-15T14:06:58Z</time>
      </trkpt>
      <trkpt lat="45.41524" lon="5.35615">
        <ele>590</ele>
        <time>2011-08-15T14:07:00Z</time>
      </trkpt>
      <trkpt lat="45.41523" lon="5.35606">
        <ele>590</ele>
        <time>2011-08-15T14:07:03Z</time>
      </trkpt>
      <trkpt lat="45.41528" lon="5.356">
        <ele>590</ele>
        <time>2011-08-15T14:07:08Z</time>
      </trkpt>
      <trkpt lat="45.41531" lon="5.35594">
        <ele>590</ele>
        <time>2011-08-15T14:07:12Z</time>
      </trkpt>
      <trkpt lat="45.41532" lon="5.35588">
        <ele>590</ele>
        <time>2011-08-15T14:07:16Z</time>
      </trkpt>
      <trkpt lat="45.41533" lon="5.35581">
        <ele>589</ele>
        <time>2011-08-15T14:07:19Z</time>
      </trkpt>
      <trkpt lat="45.41538" lon="5.35577">
        <ele>588</ele>
        <time>2011-08-15T14:07:22Z</time>
      </trkpt>
      <trkpt lat="45.41545" lon="5.35571">
        <ele>588</ele>
        <time>2011-08-15T14:07:25Z</time>
      </trkpt>
      <trkpt lat="45.41544" lon="5.35563">
        <ele>588</ele>
        <time>2011-08-15T14:07:29Z</time>
      </trkpt>
      <trkpt lat="45.41548" lon="5.35557">
        <ele>588</ele>
        <time>2011-08-15T14:07:31Z</time>
      </trkpt>
      <trkpt lat="45.41554" lon="5.35557">
        <ele>588</ele>
        <time>2011-08-15T14:07:33Z</time>
      </trkpt>
      <trkpt lat="45.41556" lon="5.35551">
        <ele>587</ele>
        <time>2011-08-15T14:07:35Z</time>
      </trkpt>
      <trkpt lat="45.4156" lon="5.35545">
        <ele>587</ele>
        <time>2011-08-15T14:07:42Z</time>
      </trkpt>
      <trkpt lat="45.41564" lon="5.35543">
        <ele>587</ele>
        <time>2011-08-15T14:07:47Z</time>
      </trkpt>
      <trkpt lat="45.41568" lon="5.35535">
        <ele>586</ele>
        <time>2011-08-15T14:07:50Z</time>
      </trkpt>
      <trkpt lat="45.41571" lon="5.3553">
        <ele>586</ele>
        <time>2011-08-15T14:07:52Z</time>
      </trkpt>
      <trkpt lat="45.41573" lon="5.35523">
        <ele>586</ele>
        <time>2011-08-15T14:07:54Z</time>
      </trkpt>
      <trkpt lat="45.41576" lon="5.35517">
        <ele>586</ele>
        <time>2011-08-15T14:07:57Z</time>
      </trkpt>
      <trkpt lat="45.41581" lon="5.35513">
        <ele>585</ele>
        <time>2011-08-15T14:08:00Z</time>
      </trkpt>
      <trkpt lat="45.41581" lon="5.35504">
        <ele>585</ele>
        <time>2011-08-15T14:08:05Z</time>
      </trkpt>
      <trkpt lat="45.41578" lon="5.35498">
        <ele>585</ele>
        <time>2011-08-15T14:08:13Z</time>
      </trkpt>
      <trkpt lat="45.41578" lon="5.35498">
        <ele>585</ele>
        <time>2011-08-15T14:08:13Z</time>
      </trkpt>
      <trkpt lat="45.41578" lon="5.35498">
        <ele>585</ele>
        <time>2011-08-15T14:08:14Z</time>
      </trkpt>
      <trkpt lat="45.41581" lon="5.35493">
        <ele>584</ele>
        <time>2011-08-15T14:08:17Z</time>
      </trkpt>
      <trkpt lat="45.41575" lon="5.35493">
        <ele>584</ele>
        <time>2011-08-15T14:08:18Z</time>
      </trkpt>
      <trkpt lat="45.41586" lon="5.35491">
        <ele>586</ele>
        <time>2011-08-15T14:08:19Z</time>
      </trkpt>
      <trkpt lat="45.4159" lon="5.35487">
        <ele>586</ele>
        <time>2011-08-15T14:08:25Z</time>
      </trkpt>
      <trkpt lat="45.41597" lon="5.35485">
        <ele>581</ele>
        <time>2011-08-15T14:08:29Z</time>
      </trkpt>
      <trkpt lat="45.41604" lon="5.3548">
        <ele>579</ele>
        <time>2011-08-15T14:08:32Z</time>
      </trkpt>
      <trkpt lat="45.41608" lon="5.35481">
        <ele>577</ele>
        <time>2011-08-15T14:08:35Z</time>
      </trkpt>
      <trkpt lat="45.41612" lon="5.35486">
        <ele>577</ele>
        <time>2011-08-15T14:08:41Z</time>
      </trkpt>
      <trkpt lat="45.41616" lon="5.35492">
        <ele>576</ele>
        <time>2011-08-15T14:08:48Z</time>
      </trkpt>
      <trkpt lat="45.4162" lon="5.35496">
        <ele>575</ele>
        <time>2011-08-15T14:08:54Z</time>
      </trkpt>
      <trkpt lat="45.41621" lon="5.35502">
        <ele>575</ele>
        <time>2011-08-15T14:08:57Z</time>
      </trkpt>
      <trkpt lat="45.41624" lon="5.35508">
        <ele>574</ele>
        <time>2011-08-15T14:09:00Z</time>
      </trkpt>
      <trkpt lat="45.41625" lon="5.35516">
        <ele>575</ele>
        <time>2011-08-15T14:09:05Z</time>
      </trkpt>
      <trkpt lat="45.41621" lon="5.35526">
        <ele>571</ele>
        <time>2011-08-15T14:09:10Z</time>
      </trkpt>
      <trkpt lat="45.41622" lon="5.35532">
        <ele>570</ele>
        <time>2011-08-15T14:09:13Z</time>
      </trkpt>
      <trkpt lat="45.41626" lon="5.35539">
        <ele>568</ele>
        <time>2011-08-15T14:09:19Z</time>
      </trkpt>
      <trkpt lat="45.41628" lon="5.35547">
        <ele>568</ele>
        <time>2011-08-15T14:09:22Z</time>
      </trkpt>
      <trkpt lat="45.41632" lon="5.35551">
        <ele>568</ele>
        <time>2011-08-15T14:09:24Z</time>
      </trkpt>
      <trkpt lat="45.41635" lon="5.35555">
        <ele>568</ele>
        <time>2011-08-15T14:09:27Z</time>
      </trkpt>
      <trkpt lat="45.41638" lon="5.35562">
        <ele>569</ele>
        <time>2011-08-15T14:09:30Z</time>
      </trkpt>
      <trkpt lat="45.41638" lon="5.35562">
        <ele>569</ele>
        <time>2011-08-15T14:09:30Z</time>
      </trkpt>
      <trkpt lat="45.41638" lon="5.35562">
        <ele>570</ele>
        <time>2011-08-15T14:09:31Z</time>
      </trkpt>
      <trkpt lat="45.41646" lon="5.35569">
        <ele>565</ele>
        <time>2011-08-15T14:09:41Z</time>
      </trkpt>
      <trkpt lat="45.4165" lon="5.35572">
        <ele>564</ele>
        <time>2011-08-15T14:09:43Z</time>
      </trkpt>
      <trkpt lat="45.41656" lon="5.35576">
        <ele>564</ele>
        <time>2011-08-15T14:09:46Z</time>
      </trkpt>
      <trkpt lat="45.41661" lon="5.35578">
        <ele>564</ele>
        <time>2011-08-15T14:09:49Z</time>
      </trkpt>
      <trkpt lat="45.41666" lon="5.35575">
        <ele>563</ele>
        <time>2011-08-15T14:09:52Z</time>
      </trkpt>
      <trkpt lat="45.4167" lon="5.35572">
        <ele>563</ele>
        <time>2011-08-15T14:09:54Z</time>
      </trkpt>
      <trkpt lat="45.41675" lon="5.35567">
        <ele>563</ele>
        <time>2011-08-15T14:09:57Z</time>
      </trkpt>
      <trkpt lat="45.41679" lon="5.35562">
        <ele>562</ele>
        <time>2011-08-15T14:10:00Z</time>
      </trkpt>
      <trkpt lat="45.41684" lon="5.35558">
        <ele>561</ele>
        <time>2011-08-15T14:10:03Z</time>
      </trkpt>
      <trkpt lat="45.41688" lon="5.35555">
        <ele>560</ele>
        <time>2011-08-15T14:10:06Z</time>
      </trkpt>
      <trkpt lat="45.41694" lon="5.35553">
        <ele>560</ele>
        <time>2011-08-15T14:10:10Z</time>
      </trkpt>
      <trkpt lat="45.41698" lon="5.35549">
        <ele>560</ele>
        <time>2011-08-15T14:10:14Z</time>
      </trkpt>
      <trkpt lat="45.41703" lon="5.35547">
        <ele>559</ele>
        <time>2011-08-15T14:10:17Z</time>
      </trkpt>
      <trkpt lat="45.41709" lon="5.35542">
        <ele>559</ele>
        <time>2011-08-15T14:10:22Z</time>
      </trkpt>
      <trkpt lat="45.41715" lon="5.3554">
        <ele>558</ele>
        <time>2011-08-15T14:10:26Z</time>
      </trkpt>
      <trkpt lat="45.41721" lon="5.35536">
        <ele>557</ele>
        <time>2011-08-15T14:10:29Z</time>
      </trkpt>
      <trkpt lat="45.41726" lon="5.35535">
        <ele>556</ele>
        <time>2011-08-15T14:10:33Z</time>
      </trkpt>
      <trkpt lat="45.41731" lon="5.35532">
        <ele>557</ele>
        <time>2011-08-15T14:10:36Z</time>
      </trkpt>
      <trkpt lat="45.41737" lon="5.35532">
        <ele>555</ele>
        <time>2011-08-15T14:10:41Z</time>
      </trkpt>
      <trkpt lat="45.41742" lon="5.35534">
        <ele>555</ele>
        <time>2011-08-15T14:10:44Z</time>
      </trkpt>
      <trkpt lat="45.41748" lon="5.35533">
        <ele>554</ele>
        <time>2011-08-15T14:10:49Z</time>
      </trkpt>
      <trkpt lat="45.41752" lon="5.35536">
        <ele>553</ele>
        <time>2011-08-15T14:10:53Z</time>
      </trkpt>
      <trkpt lat="45.41757" lon="5.35537">
        <ele>551</ele>
        <time>2011-08-15T14:10:57Z</time>
      </trkpt>
      <trkpt lat="45.41761" lon="5.3554">
        <ele>551</ele>
        <time>2011-08-15T14:11:00Z</time>
      </trkpt>
      <trkpt lat="45.41766" lon="5.35542">
        <ele>550</ele>
        <time>2011-08-15T14:11:04Z</time>
      </trkpt>
      <trkpt lat="45.41772" lon="5.35546">
        <ele>550</ele>
        <time>2011-08-15T14:11:07Z</time>
      </trkpt>
      <trkpt lat="45.41776" lon="5.35552">
        <ele>550</ele>
        <time>2011-08-15T14:11:10Z</time>
      </trkpt>
      <trkpt lat="45.41781" lon="5.35556">
        <ele>551</ele>
        <time>2011-08-15T14:11:13Z</time>
      </trkpt>
      <trkpt lat="45.41783" lon="5.35562">
        <ele>551</ele>
        <time>2011-08-15T14:11:16Z</time>
      </trkpt>
      <trkpt lat="45.41789" lon="5.35564">
        <ele>550</ele>
        <time>2011-08-15T14:11:20Z</time>
      </trkpt>
      <trkpt lat="45.41793" lon="5.35567">
        <ele>551</ele>
        <time>2011-08-15T14:11:23Z</time>
      </trkpt>
      <trkpt lat="45.41798" lon="5.35571">
        <ele>550</ele>
        <time>2011-08-15T14:11:27Z</time>
      </trkpt>
      <trkpt lat="45.41803" lon="5.35575">
        <ele>550</ele>
        <time>2011-08-15T14:11:31Z</time>
      </trkpt>
      <trkpt lat="45.41807" lon="5.35579">
        <ele>549</ele>
        <time>2011-08-15T14:11:35Z</time>
      </trkpt>
      <trkpt lat="45.41812" lon="5.35582">
        <ele>550</ele>
        <time>2011-08-15T14:11:39Z</time>
      </trkpt>
      <trkpt lat="45.41817" lon="5.35586">
        <ele>551</ele>
        <time>2011-08-15T14:11:43Z</time>
      </trkpt>
      <trkpt lat="45.41821" lon="5.35591">
        <ele>550</ele>
        <time>2011-08-15T14:11:47Z</time>
      </trkpt>
      <trkpt lat="45.41826" lon="5.35595">
        <ele>551</ele>
        <time>2011-08-15T14:11:51Z</time>
      </trkpt>
      <trkpt lat="45.41831" lon="5.35598">
        <ele>552</ele>
        <time>2011-08-15T14:11:55Z</time>
      </trkpt>
      <trkpt lat="45.41836" lon="5.35597">
        <ele>552</ele>
        <time>2011-08-15T14:11:59Z</time>
      </trkpt>
      <trkpt lat="45.41841" lon="5.35599">
        <ele>551</ele>
        <time>2011-08-15T14:12:02Z</time>
      </trkpt>
      <trkpt lat="45.41847" lon="5.35603">
        <ele>550</ele>
        <time>2011-08-15T14:12:06Z</time>
      </trkpt>
      <trkpt lat="45.41853" lon="5.35605">
        <ele>551</ele>
        <time>2011-08-15T14:12:10Z</time>
      </trkpt>
      <trkpt lat="45.41859" lon="5.35606">
        <ele>551</ele>
        <time>2011-08-15T14:12:14Z</time>
      </trkpt>
      <trkpt lat="45.41864" lon="5.35606">
        <ele>551</ele>
        <time>2011-08-15T14:12:18Z</time>
      </trkpt>
      <trkpt lat="45.41869" lon="5.35601">
        <ele>553</ele>
        <time>2011-08-15T14:12:25Z</time>
      </trkpt>
      <trkpt lat="45.41872" lon="5.35595">
        <ele>553</ele>
        <time>2011-08-15T14:12:28Z</time>
      </trkpt>
      <trkpt lat="45.41875" lon="5.35588">
        <ele>554</ele>
        <time>2011-08-15T14:12:32Z</time>
      </trkpt>
      <trkpt lat="45.41879" lon="5.35583">
        <ele>554</ele>
        <time>2011-08-15T14:12:35Z</time>
      </trkpt>
      <trkpt lat="45.41878" lon="5.35577">
        <ele>554</ele>
        <time>2011-08-15T14:12:38Z</time>
      </trkpt>
      <trkpt lat="45.41879" lon="5.35569">
        <ele>555</ele>
        <time>2011-08-15T14:12:42Z</time>
      </trkpt>
      <trkpt lat="45.41882" lon="5.35562">
        <ele>555</ele>
        <time>2011-08-15T14:12:46Z</time>
      </trkpt>
      <trkpt lat="45.41882" lon="5.35554">
        <ele>554</ele>
        <time>2011-08-15T14:12:48Z</time>
      </trkpt>
      <trkpt lat="45.41884" lon="5.35548">
        <ele>553</ele>
        <time>2011-08-15T14:12:53Z</time>
      </trkpt>
      <trkpt lat="45.41888" lon="5.35542">
        <ele>553</ele>
        <time>2011-08-15T14:12:57Z</time>
      </trkpt>
      <trkpt lat="45.41889" lon="5.35535">
        <ele>553</ele>
        <time>2011-08-15T14:13:00Z</time>
      </trkpt>
      <trkpt lat="45.41891" lon="5.35527">
        <ele>553</ele>
        <time>2011-08-15T14:13:04Z</time>
      </trkpt>
      <trkpt lat="45.41893" lon="5.35519">
        <ele>553</ele>
        <time>2011-08-15T14:13:07Z</time>
      </trkpt>
      <trkpt lat="45.41894" lon="5.35512">
        <ele>554</ele>
        <time>2011-08-15T14:13:12Z</time>
      </trkpt>
      <trkpt lat="45.41895" lon="5.35505">
        <ele>554</ele>
        <time>2011-08-15T14:13:16Z</time>
      </trkpt>
      <trkpt lat="45.41899" lon="5.35507">
        <ele>554</ele>
        <time>2011-08-15T14:13:21Z</time>
      </trkpt>
      <trkpt lat="45.41905" lon="5.35508">
        <ele>555</ele>
        <time>2011-08-15T14:13:25Z</time>
      </trkpt>
      <trkpt lat="45.4191" lon="5.35511">
        <ele>556</ele>
        <time>2011-08-15T14:13:30Z</time>
      </trkpt>
      <trkpt lat="45.41915" lon="5.35511">
        <ele>558</ele>
        <time>2011-08-15T14:13:33Z</time>
      </trkpt>
      <trkpt lat="45.41927" lon="5.35508">
        <ele>556</ele>
        <time>2011-08-15T14:13:48Z</time>
      </trkpt>
      <trkpt lat="45.41932" lon="5.35508">
        <ele>556</ele>
        <time>2011-08-15T14:13:49Z</time>
      </trkpt>
      <trkpt lat="45.41938" lon="5.35508">
        <ele>554</ele>
        <time>2011-08-15T14:13:51Z</time>
      </trkpt>
      <trkpt lat="45.41943" lon="5.35507">
        <ele>553</ele>
        <time>2011-08-15T14:13:54Z</time>
      </trkpt>
      <trkpt lat="45.41948" lon="5.3551">
        <ele>554</ele>
        <time>2011-08-15T14:13:57Z</time>
      </trkpt>
      <trkpt lat="45.41954" lon="5.35509">
        <ele>553</ele>
        <time>2011-08-15T14:14:00Z</time>
      </trkpt>
      <trkpt lat="45.41959" lon="5.3551">
        <ele>553</ele>
        <time>2011-08-15T14:14:03Z</time>
      </trkpt>
      <trkpt lat="45.41963" lon="5.35508">
        <ele>553</ele>
        <time>2011-08-15T14:14:05Z</time>
      </trkpt>
      <trkpt lat="45.41969" lon="5.35507">
        <ele>555</ele>
        <time>2011-08-15T14:14:08Z</time>
      </trkpt>
      <trkpt lat="45.41974" lon="5.35509">
        <ele>556</ele>
        <time>2011-08-15T14:14:12Z</time>
      </trkpt>
      <trkpt lat="45.41979" lon="5.35509">
        <ele>556</ele>
        <time>2011-08-15T14:14:16Z</time>
      </trkpt>
      <trkpt lat="45.41985" lon="5.35508">
        <ele>555</ele>
        <time>2011-08-15T14:14:20Z</time>
      </trkpt>
      <trkpt lat="45.4199" lon="5.35506">
        <ele>555</ele>
        <time>2011-08-15T14:14:24Z</time>
      </trkpt>
      <trkpt lat="45.41995" lon="5.35507">
        <ele>555</ele>
        <time>2011-08-15T14:14:28Z</time>
      </trkpt>
      <trkpt lat="45.42" lon="5.35508">
        <ele>556</ele>
        <time>2011-08-15T14:14:31Z</time>
      </trkpt>
      <trkpt lat="45.42006" lon="5.35507">
        <ele>556</ele>
        <time>2011-08-15T14:14:34Z</time>
      </trkpt>
      <trkpt lat="45.4201" lon="5.35505">
        <ele>556</ele>
        <time>2011-08-15T14:14:38Z</time>
      </trkpt>
      <trkpt lat="45.42016" lon="5.35505">
        <ele>554</ele>
        <time>2011-08-15T14:14:42Z</time>
      </trkpt>
      <trkpt lat="45.42021" lon="5.35503">
        <ele>555</ele>
        <time>2011-08-15T14:14:46Z</time>
      </trkpt>
      <trkpt lat="45.42026" lon="5.35505">
        <ele>553</ele>
        <time>2011-08-15T14:14:50Z</time>
      </trkpt>
      <trkpt lat="45.42031" lon="5.35505">
        <ele>553</ele>
        <time>2011-08-15T14:14:53Z</time>
      </trkpt>
      <trkpt lat="45.42036" lon="5.35505">
        <ele>553</ele>
        <time>2011-08-15T14:14:57Z</time>
      </trkpt>
      <trkpt lat="45.4204" lon="5.35507">
        <ele>555</ele>
        <time>2011-08-15T14:15:00Z</time>
      </trkpt>
      <trkpt lat="45.42046" lon="5.35506">
        <ele>555</ele>
        <time>2011-08-15T14:15:04Z</time>
      </trkpt>
      <trkpt lat="45.42052" lon="5.35506">
        <ele>556</ele>
        <time>2011-08-15T14:15:08Z</time>
      </trkpt>
      <trkpt lat="45.42057" lon="5.35508">
        <ele>558</ele>
        <time>2011-08-15T14:15:11Z</time>
      </trkpt>
      <trkpt lat="45.42063" lon="5.35509">
        <ele>559</ele>
        <time>2011-08-15T14:15:15Z</time>
      </trkpt>
      <trkpt lat="45.42069" lon="5.3551">
        <ele>558</ele>
        <time>2011-08-15T14:15:19Z</time>
      </trkpt>
      <trkpt lat="45.42074" lon="5.35514">
        <ele>558</ele>
        <time>2011-08-15T14:15:23Z</time>
      </trkpt>
      <trkpt lat="45.4208" lon="5.35515">
        <ele>558</ele>
        <time>2011-08-15T14:15:27Z</time>
      </trkpt>
      <trkpt lat="45.42084" lon="5.35514">
        <ele>559</ele>
        <time>2011-08-15T14:15:30Z</time>
      </trkpt>
      <trkpt lat="45.4209" lon="5.35514">
        <ele>559</ele>
        <time>2011-08-15T14:15:33Z</time>
      </trkpt>
      <trkpt lat="45.42094" lon="5.35518">
        <ele>558</ele>
        <time>2011-08-15T14:15:37Z</time>
      </trkpt>
      <trkpt lat="45.42099" lon="5.35516">
        <ele>558</ele>
        <time>2011-08-15T14:15:40Z</time>
      </trkpt>
      <trkpt lat="45.42104" lon="5.35518">
        <ele>558</ele>
        <time>2011-08-15T14:15:43Z</time>
      </trkpt>
      <trkpt lat="45.42108" lon="5.35522">
        <ele>556</ele>
        <time>2011-08-15T14:15:48Z</time>
      </trkpt>
      <trkpt lat="45.42111" lon="5.35528">
        <ele>556</ele>
        <time>2011-08-15T14:15:52Z</time>
      </trkpt>
      <trkpt lat="45.42112" lon="5.35535">
        <ele>557</ele>
        <time>2011-08-15T14:15:55Z</time>
      </trkpt>
      <trkpt lat="45.42112" lon="5.35542">
        <ele>557</ele>
        <time>2011-08-15T14:15:59Z</time>
      </trkpt>
      <trkpt lat="45.42111" lon="5.35549">
        <ele>558</ele>
        <time>2011-08-15T14:16:02Z</time>
      </trkpt>
      <trkpt lat="45.42112" lon="5.35556">
        <ele>558</ele>
        <time>2011-08-15T14:16:06Z</time>
      </trkpt>
      <trkpt lat="45.42118" lon="5.35557">
        <ele>558</ele>
        <time>2011-08-15T14:16:10Z</time>
      </trkpt>
      <trkpt lat="45.42124" lon="5.35558">
        <ele>559</ele>
        <time>2011-08-15T14:16:15Z</time>
      </trkpt>
      <trkpt lat="45.42129" lon="5.35559">
        <ele>558</ele>
        <time>2011-08-15T14:16:18Z</time>
      </trkpt>
      <trkpt lat="45.42134" lon="5.35559">
        <ele>559</ele>
        <time>2011-08-15T14:16:21Z</time>
      </trkpt>
      <trkpt lat="45.4214" lon="5.35562">
        <ele>559</ele>
        <time>2011-08-15T14:16:24Z</time>
      </trkpt>
      <trkpt lat="45.42146" lon="5.35562">
        <ele>559</ele>
        <time>2011-08-15T14:16:27Z</time>
      </trkpt>
      <trkpt lat="45.4215" lon="5.35562">
        <ele>558</ele>
        <time>2011-08-15T14:16:31Z</time>
      </trkpt>
      <trkpt lat="45.42155" lon="5.35562">
        <ele>558</ele>
        <time>2011-08-15T14:16:34Z</time>
      </trkpt>
      <trkpt lat="45.4216" lon="5.35563">
        <ele>559</ele>
        <time>2011-08-15T14:16:38Z</time>
      </trkpt>
      <trkpt lat="45.42166" lon="5.35562">
        <ele>559</ele>
        <time>2011-08-15T14:16:42Z</time>
      </trkpt>
      <trkpt lat="45.42172" lon="5.35562">
        <ele>559</ele>
        <time>2011-08-15T14:16:46Z</time>
      </trkpt>
      <trkpt lat="45.42177" lon="5.35561">
        <ele>558</ele>
        <time>2011-08-15T14:16:50Z</time>
      </trkpt>
      <trkpt lat="45.42182" lon="5.3556">
        <ele>558</ele>
        <time>2011-08-15T14:16:53Z</time>
      </trkpt>
      <trkpt lat="45.42186" lon="5.35562">
        <ele>555</ele>
        <time>2011-08-15T14:16:57Z</time>
      </trkpt>
      <trkpt lat="45.42191" lon="5.35564">
        <ele>555</ele>
        <time>2011-08-15T14:17:00Z</time>
      </trkpt>
      <trkpt lat="45.42196" lon="5.35564">
        <ele>555</ele>
        <time>2011-08-15T14:17:04Z</time>
      </trkpt>
      <trkpt lat="45.42201" lon="5.35564">
        <ele>555</ele>
        <time>2011-08-15T14:17:08Z</time>
      </trkpt>
      <trkpt lat="45.42206" lon="5.35566">
        <ele>555</ele>
        <time>2011-08-15T14:17:11Z</time>
      </trkpt>
      <trkpt lat="45.42212" lon="5.3557">
        <ele>556</ele>
        <time>2011-08-15T14:17:14Z</time>
      </trkpt>
      <trkpt lat="45.42216" lon="5.35574">
        <ele>556</ele>
        <time>2011-08-15T14:17:17Z</time>
      </trkpt>
      <trkpt lat="45.4222" lon="5.35578">
        <ele>556</ele>
        <time>2011-08-15T14:17:20Z</time>
      </trkpt>
      <trkpt lat="45.42224" lon="5.35582">
        <ele>556</ele>
        <time>2011-08-15T14:17:23Z</time>
      </trkpt>
      <trkpt lat="45.42228" lon="5.35588">
        <ele>557</ele>
        <time>2011-08-15T14:17:27Z</time>
      </trkpt>
      <trkpt lat="45.42232" lon="5.35594">
        <ele>558</ele>
        <time>2011-08-15T14:17:31Z</time>
      </trkpt>
      <trkpt lat="45.42237" lon="5.35598">
        <ele>557</ele>
        <time>2011-08-15T14:17:35Z</time>
      </trkpt>
      <trkpt lat="45.42242" lon="5.35603">
        <ele>556</ele>
        <time>2011-08-15T14:17:40Z</time>
      </trkpt>
      <trkpt lat="45.42247" lon="5.35608">
        <ele>556</ele>
        <time>2011-08-15T14:17:44Z</time>
      </trkpt>
      <trkpt lat="45.42251" lon="5.35613">
        <ele>557</ele>
        <time>2011-08-15T14:17:48Z</time>
      </trkpt>
      <trkpt lat="45.42253" lon="5.35618">
        <ele>557</ele>
        <time>2011-08-15T14:17:51Z</time>
      </trkpt>
      <trkpt lat="45.42257" lon="5.35624">
        <ele>558</ele>
        <time>2011-08-15T14:17:55Z</time>
      </trkpt>
      <trkpt lat="45.42262" lon="5.35628">
        <ele>558</ele>
        <time>2011-08-15T14:17:59Z</time>
      </trkpt>
      <trkpt lat="45.42266" lon="5.35633">
        <ele>557</ele>
        <time>2011-08-15T14:18:03Z</time>
      </trkpt>
      <trkpt lat="45.4227" lon="5.35635">
        <ele>558</ele>
        <time>2011-08-15T14:18:07Z</time>
      </trkpt>
      <trkpt lat="45.42275" lon="5.35636">
        <ele>558</ele>
        <time>2011-08-15T14:18:11Z</time>
      </trkpt>
      <trkpt lat="45.4228" lon="5.35637">
        <ele>558</ele>
        <time>2011-08-15T14:18:15Z</time>
      </trkpt>
      <trkpt lat="45.42284" lon="5.35633">
        <ele>558</ele>
        <time>2011-08-15T14:18:18Z</time>
      </trkpt>
      <trkpt lat="45.42289" lon="5.35626">
        <ele>558</ele>
        <time>2011-08-15T14:18:21Z</time>
      </trkpt>
      <trkpt lat="45.42289" lon="5.3562">
        <ele>557</ele>
        <time>2011-08-15T14:18:24Z</time>
      </trkpt>
      <trkpt lat="45.4229" lon="5.35612">
        <ele>557</ele>
        <time>2011-08-15T14:18:27Z</time>
      </trkpt>
      <trkpt lat="45.42284" lon="5.35609">
        <ele>557</ele>
        <time>2011-08-15T14:18:29Z</time>
      </trkpt>
      <trkpt lat="45.4228" lon="5.35608">
        <ele>558</ele>
        <time>2011-08-15T14:18:30Z</time>
      </trkpt>
      <trkpt lat="45.4228" lon="5.35598">
        <ele>556</ele>
        <time>2011-08-15T14:18:47Z</time>
      </trkpt>
      <trkpt lat="45.42283" lon="5.35592">
        <ele>556</ele>
        <time>2011-08-15T14:18:50Z</time>
      </trkpt>
      <trkpt lat="45.42282" lon="5.35584">
        <ele>555</ele>
        <time>2011-08-15T14:18:52Z</time>
      </trkpt>
      <trkpt lat="45.42282" lon="5.35578">
        <ele>554</ele>
        <time>2011-08-15T14:18:54Z</time>
      </trkpt>
      <trkpt lat="45.42282" lon="5.3557">
        <ele>554</ele>
        <time>2011-08-15T14:18:57Z</time>
      </trkpt>
      <trkpt lat="45.42284" lon="5.35563">
        <ele>553</ele>
        <time>2011-08-15T14:19:00Z</time>
      </trkpt>
      <trkpt lat="45.42283" lon="5.35553">
        <ele>554</ele>
        <time>2011-08-15T14:19:02Z</time>
      </trkpt>
      <trkpt lat="45.42282" lon="5.35546">
        <ele>553</ele>
        <time>2011-08-15T14:19:04Z</time>
      </trkpt>
      <trkpt lat="45.42284" lon="5.3554">
        <ele>553</ele>
        <time>2011-08-15T14:19:07Z</time>
      </trkpt>
      <trkpt lat="45.42288" lon="5.35531">
        <ele>553</ele>
        <time>2011-08-15T14:19:11Z</time>
      </trkpt>
      <trkpt lat="45.42292" lon="5.35527">
        <ele>553</ele>
        <time>2011-08-15T14:19:15Z</time>
      </trkpt>
      <trkpt lat="45.42297" lon="5.35522">
        <ele>553</ele>
        <time>2011-08-15T14:19:18Z</time>
      </trkpt>
      <trkpt lat="45.42299" lon="5.35516">
        <ele>552</ele>
        <time>2011-08-15T14:19:21Z</time>
      </trkpt>
      <trkpt lat="45.42302" lon="5.35509">
        <ele>552</ele>
        <time>2011-08-15T14:19:24Z</time>
      </trkpt>
      <trkpt lat="45.42304" lon="5.35502">
        <ele>554</ele>
        <time>2011-08-15T14:19:27Z</time>
      </trkpt>
      <trkpt lat="45.42306" lon="5.35495">
        <ele>553</ele>
        <time>2011-08-15T14:19:31Z</time>
      </trkpt>
      <trkpt lat="45.4231" lon="5.35489">
        <ele>554</ele>
        <time>2011-08-15T14:19:35Z</time>
      </trkpt>
      <trkpt lat="45.42311" lon="5.35483">
        <ele>553</ele>
        <time>2011-08-15T14:19:38Z</time>
      </trkpt>
      <trkpt lat="45.42314" lon="5.35477">
        <ele>554</ele>
        <time>2011-08-15T14:19:42Z</time>
      </trkpt>
      <trkpt lat="45.42317" lon="5.3547">
        <ele>555</ele>
        <time>2011-08-15T14:19:45Z</time>
      </trkpt>
      <trkpt lat="45.42319" lon="5.35463">
        <ele>555</ele>
        <time>2011-08-15T14:19:48Z</time>
      </trkpt>
      <trkpt lat="45.42319" lon="5.35455">
        <ele>555</ele>
        <time>2011-08-15T14:19:51Z</time>
      </trkpt>
      <trkpt lat="45.4232" lon="5.35449">
        <ele>556</ele>
        <time>2011-08-15T14:19:54Z</time>
      </trkpt>
      <trkpt lat="45.4232" lon="5.3544">
        <ele>557</ele>
        <time>2011-08-15T14:19:58Z</time>
      </trkpt>
      <trkpt lat="45.4232" lon="5.35433">
        <ele>557</ele>
        <time>2011-08-15T14:20:01Z</time>
      </trkpt>
      <trkpt lat="45.4232" lon="5.35426">
        <ele>558</ele>
        <time>2011-08-15T14:20:05Z</time>
      </trkpt>
      <trkpt lat="45.42323" lon="5.35419">
        <ele>557</ele>
        <time>2011-08-15T14:20:09Z</time>
      </trkpt>
      <trkpt lat="45.42324" lon="5.35412">
        <ele>557</ele>
        <time>2011-08-15T14:20:12Z</time>
      </trkpt>
      <trkpt lat="45.42323" lon="5.35404">
        <ele>556</ele>
        <time>2011-08-15T14:20:15Z</time>
      </trkpt>
      <trkpt lat="45.42325" lon="5.35396">
        <ele>556</ele>
        <time>2011-08-15T14:20:19Z</time>
      </trkpt>
      <trkpt lat="45.42326" lon="5.35389">
        <ele>557</ele>
        <time>2011-08-15T14:20:24Z</time>
      </trkpt>
      <trkpt lat="45.42329" lon="5.35382">
        <ele>558</ele>
        <time>2011-08-15T14:20:28Z</time>
      </trkpt>
      <trkpt lat="45.4233" lon="5.35374">
        <ele>559</ele>
        <time>2011-08-15T14:20:32Z</time>
      </trkpt>
      <trkpt lat="45.42331" lon="5.35366">
        <ele>558</ele>
        <time>2011-08-15T14:20:35Z</time>
      </trkpt>
      <trkpt lat="45.42331" lon="5.3536">
        <ele>558</ele>
        <time>2011-08-15T14:20:39Z</time>
      </trkpt>
      <trkpt lat="45.42332" lon="5.35352">
        <ele>558</ele>
        <time>2011-08-15T14:20:43Z</time>
      </trkpt>
      <trkpt lat="45.42333" lon="5.35345">
        <ele>559</ele>
        <time>2011-08-15T14:20:47Z</time>
      </trkpt>
      <trkpt lat="45.42335" lon="5.35339">
        <ele>560</ele>
        <time>2011-08-15T14:20:50Z</time>
      </trkpt>
      <trkpt lat="45.42337" lon="5.35331">
        <ele>560</ele>
        <time>2011-08-15T14:20:53Z</time>
      </trkpt>
      <trkpt lat="45.42338" lon="5.35324">
        <ele>559</ele>
        <time>2011-08-15T14:20:57Z</time>
      </trkpt>
      <trkpt lat="45.42338" lon="5.35316">
        <ele>557</ele>
        <time>2011-08-15T14:21:07Z</time>
      </trkpt>
      <trkpt lat="45.42338" lon="5.3531">
        <ele>557</ele>
        <time>2011-08-15T14:21:11Z</time>
      </trkpt>
      <trkpt lat="45.42339" lon="5.35302">
        <ele>558</ele>
        <time>2011-08-15T14:21:17Z</time>
      </trkpt>
      <trkpt lat="45.4234" lon="5.35295">
        <ele>558</ele>
        <time>2011-08-15T14:21:21Z</time>
      </trkpt>
      <trkpt lat="45.42342" lon="5.35287">
        <ele>559</ele>
        <time>2011-08-15T14:21:25Z</time>
      </trkpt>
      <trkpt lat="45.42341" lon="5.3528">
        <ele>559</ele>
        <time>2011-08-15T14:21:28Z</time>
      </trkpt>
      <trkpt lat="45.42342" lon="5.35273">
        <ele>559</ele>
        <time>2011-08-15T14:21:31Z</time>
      </trkpt>
      <trkpt lat="45.42341" lon="5.35265">
        <ele>559</ele>
        <time>2011-08-15T14:21:34Z</time>
      </trkpt>
      <trkpt lat="45.42344" lon="5.35259">
        <ele>558</ele>
        <time>2011-08-15T14:21:38Z</time>
      </trkpt>
      <trkpt lat="45.42346" lon="5.35249">
        <ele>556</ele>
        <time>2011-08-15T14:21:41Z</time>
      </trkpt>
      <trkpt lat="45.42347" lon="5.35242">
        <ele>555</ele>
        <time>2011-08-15T14:21:44Z</time>
      </trkpt>
      <trkpt lat="45.42346" lon="5.35234">
        <ele>556</ele>
        <time>2011-08-15T14:21:47Z</time>
      </trkpt>
      <trkpt lat="45.42349" lon="5.35229">
        <ele>556</ele>
        <time>2011-08-15T14:21:51Z</time>
      </trkpt>
      <trkpt lat="45.42349" lon="5.35222">
        <ele>555</ele>
        <time>2011-08-15T14:21:55Z</time>
      </trkpt>
      <trkpt lat="45.42349" lon="5.35214">
        <ele>556</ele>
        <time>2011-08-15T14:21:58Z</time>
      </trkpt>
      <trkpt lat="45.4235" lon="5.35206">
        <ele>556</ele>
        <time>2011-08-15T14:22:02Z</time>
      </trkpt>
      <trkpt lat="45.4235" lon="5.35199">
        <ele>556</ele>
        <time>2011-08-15T14:22:05Z</time>
      </trkpt>
      <trkpt lat="45.42351" lon="5.35192">
        <ele>556</ele>
        <time>2011-08-15T14:22:08Z</time>
      </trkpt>
      <trkpt lat="45.42353" lon="5.35183">
        <ele>556</ele>
        <time>2011-08-15T14:22:12Z</time>
      </trkpt>
      <trkpt lat="45.42355" lon="5.35175">
        <ele>557</ele>
        <time>2011-08-15T14:22:16Z</time>
      </trkpt>
      <trkpt lat="45.42358" lon="5.35171">
        <ele>557</ele>
        <time>2011-08-15T14:22:19Z</time>
      </trkpt>
      <trkpt lat="45.4236" lon="5.35164">
        <ele>558</ele>
        <time>2011-08-15T14:22:22Z</time>
      </trkpt>
      <trkpt lat="45.42362" lon="5.35157">
        <ele>558</ele>
        <time>2011-08-15T14:22:25Z</time>
      </trkpt>
      <trkpt lat="45.42363" lon="5.3515">
        <ele>557</ele>
        <time>2011-08-15T14:22:29Z</time>
      </trkpt>
      <trkpt lat="45.42365" lon="5.35144">
        <ele>558</ele>
        <time>2011-08-15T14:22:32Z</time>
      </trkpt>
      <trkpt lat="45.42368" lon="5.35137">
        <ele>558</ele>
        <time>2011-08-15T14:22:36Z</time>
      </trkpt>
      <trkpt lat="45.42368" lon="5.35128">
        <ele>558</ele>
        <time>2011-08-15T14:22:39Z</time>
      </trkpt>
      <trkpt lat="45.4237" lon="5.35121">
        <ele>558</ele>
        <time>2011-08-15T14:22:43Z</time>
      </trkpt>
      <trkpt lat="45.42371" lon="5.35113">
        <ele>558</ele>
        <time>2011-08-15T14:22:47Z</time>
      </trkpt>
      <trkpt lat="45.42377" lon="5.35109">
        <ele>558</ele>
        <time>2011-08-15T14:22:51Z</time>
      </trkpt>
      <trkpt lat="45.42383" lon="5.35111">
        <ele>558</ele>
        <time>2011-08-15T14:22:54Z</time>
      </trkpt>
      <trkpt lat="45.42387" lon="5.35116">
        <ele>558</ele>
        <time>2011-08-15T14:22:58Z</time>
      </trkpt>
      <trkpt lat="45.42393" lon="5.35116">
        <ele>557</ele>
        <time>2011-08-15T14:23:02Z</time>
      </trkpt>
      <trkpt lat="45.42399" lon="5.35117">
        <ele>558</ele>
        <time>2011-08-15T14:23:06Z</time>
      </trkpt>
      <trkpt lat="45.42404" lon="5.35119">
        <ele>558</ele>
        <time>2011-08-15T14:23:10Z</time>
      </trkpt>
      <trkpt lat="45.4241" lon="5.35121">
        <ele>558</ele>
        <time>2011-08-15T14:23:13Z</time>
      </trkpt>
      <trkpt lat="45.42414" lon="5.35123">
        <ele>557</ele>
        <time>2011-08-15T14:23:15Z</time>
      </trkpt>
      <trkpt lat="45.42421" lon="5.35125">
        <ele>557</ele>
        <time>2011-08-15T14:23:18Z</time>
      </trkpt>
      <trkpt lat="45.42426" lon="5.35127">
        <ele>557</ele>
        <time>2011-08-15T14:23:22Z</time>
      </trkpt>
      <trkpt lat="45.42432" lon="5.35128">
        <ele>556</ele>
        <time>2011-08-15T14:23:26Z</time>
      </trkpt>
      <trkpt lat="45.42438" lon="5.3513">
        <ele>556</ele>
        <time>2011-08-15T14:23:30Z</time>
      </trkpt>
      <trkpt lat="45.42442" lon="5.35132">
        <ele>556</ele>
        <time>2011-08-15T14:23:33Z</time>
      </trkpt>
      <trkpt lat="45.42448" lon="5.35134">
        <ele>556</ele>
        <time>2011-08-15T14:23:37Z</time>
      </trkpt>
      <trkpt lat="45.42452" lon="5.35136">
        <ele>556</ele>
        <time>2011-08-15T14:23:41Z</time>
      </trkpt>
      <trkpt lat="45.42457" lon="5.35136">
        <ele>556</ele>
        <time>2011-08-15T14:23:45Z</time>
      </trkpt>
      <trkpt lat="45.42461" lon="5.35132">
        <ele>556</ele>
        <time>2011-08-15T14:23:51Z</time>
      </trkpt>
      <trkpt lat="45.42465" lon="5.35128">
        <ele>556</ele>
        <time>2011-08-15T14:23:55Z</time>
      </trkpt>
      <trkpt lat="45.42466" lon="5.35119">
        <ele>556</ele>
        <time>2011-08-15T14:23:58Z</time>
      </trkpt>
      <trkpt lat="45.42466" lon="5.35112">
        <ele>556</ele>
        <time>2011-08-15T14:24:01Z</time>
      </trkpt>
      <trkpt lat="45.42468" lon="5.35104">
        <ele>555</ele>
        <time>2011-08-15T14:24:04Z</time>
      </trkpt>
      <trkpt lat="45.42469" lon="5.35097">
        <ele>555</ele>
        <time>2011-08-15T14:24:07Z</time>
      </trkpt>
      <trkpt lat="45.42469" lon="5.3509">
        <ele>554</ele>
        <time>2011-08-15T14:24:10Z</time>
      </trkpt>
      <trkpt lat="45.42471" lon="5.35085">
        <ele>553</ele>
        <time>2011-08-15T14:24:13Z</time>
      </trkpt>
      <trkpt lat="45.42473" lon="5.35079">
        <ele>553</ele>
        <time>2011-08-15T14:24:16Z</time>
      </trkpt>
      <trkpt lat="45.42473" lon="5.35072">
        <ele>553</ele>
        <time>2011-08-15T14:24:19Z</time>
      </trkpt>
      <trkpt lat="45.42472" lon="5.35065">
        <ele>552</ele>
        <time>2011-08-15T14:24:22Z</time>
      </trkpt>
      <trkpt lat="45.42474" lon="5.35058">
        <ele>554</ele>
        <time>2011-08-15T14:24:25Z</time>
      </trkpt>
      <trkpt lat="45.42474" lon="5.35051">
        <ele>553</ele>
        <time>2011-08-15T14:24:28Z</time>
      </trkpt>
      <trkpt lat="45.42476" lon="5.35044">
        <ele>553</ele>
        <time>2011-08-15T14:24:32Z</time>
      </trkpt>
      <trkpt lat="45.42478" lon="5.35036">
        <ele>553</ele>
        <time>2011-08-15T14:24:36Z</time>
      </trkpt>
      <trkpt lat="45.42478" lon="5.3503">
        <ele>552</ele>
        <time>2011-08-15T14:24:38Z</time>
      </trkpt>
      <trkpt lat="45.42479" lon="5.35022">
        <ele>552</ele>
        <time>2011-08-15T14:24:42Z</time>
      </trkpt>
      <trkpt lat="45.4248" lon="5.35015">
        <ele>554</ele>
        <time>2011-08-15T14:24:45Z</time>
      </trkpt>
      <trkpt lat="45.42483" lon="5.3501">
        <ele>553</ele>
        <time>2011-08-15T14:24:48Z</time>
      </trkpt>
      <trkpt lat="45.42485" lon="5.35004">
        <ele>553</ele>
        <time>2011-08-15T14:24:51Z</time>
      </trkpt>
      <trkpt lat="45.42486" lon="5.34997">
        <ele>553</ele>
        <time>2011-08-15T14:24:54Z</time>
      </trkpt>
      <trkpt lat="45.42488" lon="5.3499">
        <ele>555</ele>
        <time>2011-08-15T14:24:58Z</time>
      </trkpt>
      <trkpt lat="45.4249" lon="5.34984">
        <ele>555</ele>
        <time>2011-08-15T14:25:01Z</time>
      </trkpt>
      <trkpt lat="45.42494" lon="5.34977">
        <ele>555</ele>
        <time>2011-08-15T14:25:05Z</time>
      </trkpt>
      <trkpt lat="45.42497" lon="5.34973">
        <ele>555</ele>
        <time>2011-08-15T14:25:08Z</time>
      </trkpt>
      <trkpt lat="45.42501" lon="5.34969">
        <ele>555</ele>
        <time>2011-08-15T14:25:11Z</time>
      </trkpt>
      <trkpt lat="45.42506" lon="5.34966">
        <ele>554</ele>
        <time>2011-08-15T14:25:14Z</time>
      </trkpt>
      <trkpt lat="45.4251" lon="5.34962">
        <ele>554</ele>
        <time>2011-08-15T14:25:18Z</time>
      </trkpt>
      <trkpt lat="45.42515" lon="5.34958">
        <ele>553</ele>
        <time>2011-08-15T14:25:22Z</time>
      </trkpt>
      <trkpt lat="45.4252" lon="5.34954">
        <ele>556</ele>
        <time>2011-08-15T14:25:26Z</time>
      </trkpt>
      <trkpt lat="45.42524" lon="5.3495">
        <ele>555</ele>
        <time>2011-08-15T14:25:29Z</time>
      </trkpt>
      <trkpt lat="45.42528" lon="5.34945">
        <ele>556</ele>
        <time>2011-08-15T14:25:33Z</time>
      </trkpt>
      <trkpt lat="45.42533" lon="5.34943">
        <ele>555</ele>
        <time>2011-08-15T14:25:36Z</time>
      </trkpt>
      <trkpt lat="45.42539" lon="5.34941">
        <ele>555</ele>
        <time>2011-08-15T14:25:40Z</time>
      </trkpt>
      <trkpt lat="45.42545" lon="5.34941">
        <ele>555</ele>
        <time>2011-08-15T14:25:43Z</time>
      </trkpt>
      <trkpt lat="45.42549" lon="5.34937">
        <ele>553</ele>
        <time>2011-08-15T14:25:49Z</time>
      </trkpt>
      <trkpt lat="45.42555" lon="5.34934">
        <ele>551</ele>
        <time>2011-08-15T14:25:53Z</time>
      </trkpt>
      <trkpt lat="45.4256" lon="5.34932">
        <ele>551</ele>
        <time>2011-08-15T14:25:55Z</time>
      </trkpt>
      <trkpt lat="45.42566" lon="5.3493">
        <ele>550</ele>
        <time>2011-08-15T14:25:57Z</time>
      </trkpt>
      <trkpt lat="45.42572" lon="5.34928">
        <ele>551</ele>
        <time>2011-08-15T14:25:59Z</time>
      </trkpt>
      <trkpt lat="45.4258" lon="5.34926">
        <ele>551</ele>
        <time>2011-08-15T14:26:01Z</time>
      </trkpt>
      <trkpt lat="45.42586" lon="5.34924">
        <ele>551</ele>
        <time>2011-08-15T14:26:03Z</time>
      </trkpt>
      <trkpt lat="45.42593" lon="5.34921">
        <ele>550</ele>
        <time>2011-08-15T14:26:05Z</time>
      </trkpt>
      <trkpt lat="45.426" lon="5.34918">
        <ele>550</ele>
        <time>2011-08-15T14:26:07Z</time>
      </trkpt>
      <trkpt lat="45.42608" lon="5.34916">
        <ele>550</ele>
        <time>2011-08-15T14:26:09Z</time>
      </trkpt>
      <trkpt lat="45.42613" lon="5.34913">
        <ele>550</ele>
        <time>2011-08-15T14:26:10Z</time>
      </trkpt>
      <trkpt lat="45.42617" lon="5.34912">
        <ele>550</ele>
        <time>2011-08-15T14:26:11Z</time>
      </trkpt>
      <trkpt lat="45.42621" lon="5.3491">
        <ele>549</ele>
        <time>2011-08-15T14:26:12Z</time>
      </trkpt>
      <trkpt lat="45.4263" lon="5.34908">
        <ele>549</ele>
        <time>2011-08-15T14:26:14Z</time>
      </trkpt>
      <trkpt lat="45.42636" lon="5.34907">
        <ele>549</ele>
        <time>2011-08-15T14:26:15Z</time>
      </trkpt>
      <trkpt lat="45.42641" lon="5.34905">
        <ele>549</ele>
        <time>2011-08-15T14:26:16Z</time>
      </trkpt>
      <trkpt lat="45.42649" lon="5.34903">
        <ele>549</ele>
        <time>2011-08-15T14:26:18Z</time>
      </trkpt>
      <trkpt lat="45.42658" lon="5.34902">
        <ele>549</ele>
        <time>2011-08-15T14:26:20Z</time>
      </trkpt>
      <trkpt lat="45.42666" lon="5.34899">
        <ele>549</ele>
        <time>2011-08-15T14:26:22Z</time>
      </trkpt>
      <trkpt lat="45.4267" lon="5.34897">
        <ele>549</ele>
        <time>2011-08-15T14:26:23Z</time>
      </trkpt>
      <trkpt lat="45.42678" lon="5.34895">
        <ele>549</ele>
        <time>2011-08-15T14:26:25Z</time>
      </trkpt>
      <trkpt lat="45.42686" lon="5.3489">
        <ele>550</ele>
        <time>2011-08-15T14:26:27Z</time>
      </trkpt>
      <trkpt lat="45.42694" lon="5.34888">
        <ele>550</ele>
        <time>2011-08-15T14:26:29Z</time>
      </trkpt>
      <trkpt lat="45.42702" lon="5.34886">
        <ele>550</ele>
        <time>2011-08-15T14:26:31Z</time>
      </trkpt>
      <trkpt lat="45.4271" lon="5.34881">
        <ele>550</ele>
        <time>2011-08-15T14:26:33Z</time>
      </trkpt>
      <trkpt lat="45.42715" lon="5.3488">
        <ele>550</ele>
        <time>2011-08-15T14:26:34Z</time>
      </trkpt>
      <trkpt lat="45.42722" lon="5.34875">
        <ele>550</ele>
        <time>2011-08-15T14:26:36Z</time>
      </trkpt>
      <trkpt lat="45.42728" lon="5.34874">
        <ele>550</ele>
        <time>2011-08-15T14:26:37Z</time>
      </trkpt>
      <trkpt lat="45.42733" lon="5.34872">
        <ele>550</ele>
        <time>2011-08-15T14:26:38Z</time>
      </trkpt>
      <trkpt lat="45.42738" lon="5.3487">
        <ele>550</ele>
        <time>2011-08-15T14:26:39Z</time>
      </trkpt>
      <trkpt lat="45.42744" lon="5.34868">
        <ele>551</ele>
        <time>2011-08-15T14:26:40Z</time>
      </trkpt>
      <trkpt lat="45.42749" lon="5.34866">
        <ele>551</ele>
        <time>2011-08-15T14:26:41Z</time>
      </trkpt>
      <trkpt lat="45.42754" lon="5.34864">
        <ele>552</ele>
        <time>2011-08-15T14:26:42Z</time>
      </trkpt>
      <trkpt lat="45.4276" lon="5.34861">
        <ele>552</ele>
        <time>2011-08-15T14:26:43Z</time>
      </trkpt>
      <trkpt lat="45.42764" lon="5.3486">
        <ele>552</ele>
        <time>2011-08-15T14:26:44Z</time>
      </trkpt>
      <trkpt lat="45.42769" lon="5.34858">
        <ele>552</ele>
        <time>2011-08-15T14:26:45Z</time>
      </trkpt>
      <trkpt lat="45.42776" lon="5.34856">
        <ele>552</ele>
        <time>2011-08-15T14:26:47Z</time>
      </trkpt>
      <trkpt lat="45.42781" lon="5.34857">
        <ele>552</ele>
        <time>2011-08-15T14:26:49Z</time>
      </trkpt>
      <trkpt lat="45.42786" lon="5.34855">
        <ele>553</ele>
        <time>2011-08-15T14:26:52Z</time>
      </trkpt>
      <trkpt lat="45.42792" lon="5.34856">
        <ele>554</ele>
        <time>2011-08-15T14:26:58Z</time>
      </trkpt>
      <trkpt lat="45.42788" lon="5.34859">
        <ele>553</ele>
        <time>2011-08-15T14:27:02Z</time>
      </trkpt>
      <trkpt lat="45.42783" lon="5.34858">
        <ele>553</ele>
        <time>2011-08-15T14:27:05Z</time>
      </trkpt>
      <trkpt lat="45.42777" lon="5.34858">
        <ele>553</ele>
        <time>2011-08-15T14:27:09Z</time>
      </trkpt>
      <trkpt lat="45.42772" lon="5.34858">
        <ele>553</ele>
        <time>2011-08-15T14:27:12Z</time>
      </trkpt>
      <trkpt lat="45.42778" lon="5.3486">
        <ele>555</ele>
        <time>2011-08-15T14:27:56Z</time>
      </trkpt>
      <trkpt lat="45.42786" lon="5.34857">
        <ele>555</ele>
        <time>2011-08-15T14:27:59Z</time>
      </trkpt>
      <trkpt lat="45.42792" lon="5.34854">
        <ele>555</ele>
        <time>2011-08-15T14:28:01Z</time>
      </trkpt>
      <trkpt lat="45.428" lon="5.34853">
        <ele>554</ele>
        <time>2011-08-15T14:28:03Z</time>
      </trkpt>
      <trkpt lat="45.4281" lon="5.3485">
        <ele>553</ele>
        <time>2011-08-15T14:28:05Z</time>
      </trkpt>
      <trkpt lat="45.42814" lon="5.34848">
        <ele>553</ele>
        <time>2011-08-15T14:28:06Z</time>
      </trkpt>
      <trkpt lat="45.4282" lon="5.34847">
        <ele>552</ele>
        <time>2011-08-15T14:28:07Z</time>
      </trkpt>
      <trkpt lat="45.42825" lon="5.34846">
        <ele>553</ele>
        <time>2011-08-15T14:28:08Z</time>
      </trkpt>
      <trkpt lat="45.42833" lon="5.34843">
        <ele>553</ele>
        <time>2011-08-15T14:28:10Z</time>
      </trkpt>
      <trkpt lat="45.4284" lon="5.3484">
        <ele>552</ele>
        <time>2011-08-15T14:28:12Z</time>
      </trkpt>
      <trkpt lat="45.42848" lon="5.34838">
        <ele>552</ele>
        <time>2011-08-15T14:28:14Z</time>
      </trkpt>
      <trkpt lat="45.42855" lon="5.34835">
        <ele>552</ele>
        <time>2011-08-15T14:28:16Z</time>
      </trkpt>
      <trkpt lat="45.4286" lon="5.34834">
        <ele>552</ele>
        <time>2011-08-15T14:28:17Z</time>
      </trkpt>
      <trkpt lat="45.42868" lon="5.3483">
        <ele>552</ele>
        <time>2011-08-15T14:28:19Z</time>
      </trkpt>
      <trkpt lat="45.42877" lon="5.34828">
        <ele>553</ele>
        <time>2011-08-15T14:28:21Z</time>
      </trkpt>
      <trkpt lat="45.42882" lon="5.34827">
        <ele>553</ele>
        <time>2011-08-15T14:28:22Z</time>
      </trkpt>
      <trkpt lat="45.42887" lon="5.34826">
        <ele>553</ele>
        <time>2011-08-15T14:28:23Z</time>
      </trkpt>
      <trkpt lat="45.42892" lon="5.34825">
        <ele>553</ele>
        <time>2011-08-15T14:28:24Z</time>
      </trkpt>
      <trkpt lat="45.42899" lon="5.34823">
        <ele>553</ele>
        <time>2011-08-15T14:28:25Z</time>
      </trkpt>
      <trkpt lat="45.42907" lon="5.3482">
        <ele>553</ele>
        <time>2011-08-15T14:28:27Z</time>
      </trkpt>
      <trkpt lat="45.42912" lon="5.34819">
        <ele>553</ele>
        <time>2011-08-15T14:28:28Z</time>
      </trkpt>
      <trkpt lat="45.42921" lon="5.34816">
        <ele>554</ele>
        <time>2011-08-15T14:28:30Z</time>
      </trkpt>
      <trkpt lat="45.42926" lon="5.34815">
        <ele>554</ele>
        <time>2011-08-15T14:28:31Z</time>
      </trkpt>
      <trkpt lat="45.4293" lon="5.34814">
        <ele>554</ele>
        <time>2011-08-15T14:28:32Z</time>
      </trkpt>
      <trkpt lat="45.42935" lon="5.34813">
        <ele>554</ele>
        <time>2011-08-15T14:28:33Z</time>
      </trkpt>
      <trkpt lat="45.42939" lon="5.34811">
        <ele>554</ele>
        <time>2011-08-15T14:28:34Z</time>
      </trkpt>
      <trkpt lat="45.42946" lon="5.34809">
        <ele>553</ele>
        <time>2011-08-15T14:28:36Z</time>
      </trkpt>
      <trkpt lat="45.42956" lon="5.34806">
        <ele>553</ele>
        <time>2011-08-15T14:28:38Z</time>
      </trkpt>
      <trkpt lat="45.42964" lon="5.34802">
        <ele>554</ele>
        <time>2011-08-15T14:28:40Z</time>
      </trkpt>
      <trkpt lat="45.42973" lon="5.348">
        <ele>555</ele>
        <time>2011-08-15T14:28:42Z</time>
      </trkpt>
      <trkpt lat="45.42983" lon="5.34797">
        <ele>555</ele>
        <time>2011-08-15T14:28:44Z</time>
      </trkpt>
      <trkpt lat="45.42988" lon="5.34796">
        <ele>555</ele>
        <time>2011-08-15T14:28:45Z</time>
      </trkpt>
      <trkpt lat="45.42993" lon="5.34795">
        <ele>556</ele>
        <time>2011-08-15T14:28:46Z</time>
      </trkpt>
      <trkpt lat="45.42998" lon="5.34793">
        <ele>556</ele>
        <time>2011-08-15T14:28:47Z</time>
      </trkpt>
      <trkpt lat="45.43003" lon="5.34792">
        <ele>556</ele>
        <time>2011-08-15T14:28:48Z</time>
      </trkpt>
      <trkpt lat="45.43009" lon="5.34791">
        <ele>556</ele>
        <time>2011-08-15T14:28:49Z</time>
      </trkpt>
      <trkpt lat="45.43014" lon="5.3479">
        <ele>557</ele>
        <time>2011-08-15T14:28:50Z</time>
      </trkpt>
      <trkpt lat="45.43019" lon="5.34788">
        <ele>557</ele>
        <time>2011-08-15T14:28:51Z</time>
      </trkpt>
      <trkpt lat="45.43025" lon="5.34786">
        <ele>557</ele>
        <time>2011-08-15T14:28:52Z</time>
      </trkpt>
      <trkpt lat="45.43031" lon="5.34785">
        <ele>558</ele>
        <time>2011-08-15T14:28:53Z</time>
      </trkpt>
      <trkpt lat="45.43036" lon="5.34785">
        <ele>558</ele>
        <time>2011-08-15T14:28:54Z</time>
      </trkpt>
      <trkpt lat="45.43041" lon="5.34784">
        <ele>558</ele>
        <time>2011-08-15T14:28:55Z</time>
      </trkpt>
      <trkpt lat="45.43047" lon="5.34784">
        <ele>557</ele>
        <time>2011-08-15T14:28:56Z</time>
      </trkpt>
      <trkpt lat="45.43052" lon="5.34784">
        <ele>558</ele>
        <time>2011-08-15T14:28:57Z</time>
      </trkpt>
      <trkpt lat="45.43058" lon="5.34785">
        <ele>558</ele>
        <time>2011-08-15T14:28:58Z</time>
      </trkpt>
      <trkpt lat="45.43063" lon="5.34785">
        <ele>558</ele>
        <time>2011-08-15T14:28:59Z</time>
      </trkpt>
      <trkpt lat="45.43069" lon="5.34785">
        <ele>558</ele>
        <time>2011-08-15T14:29:00Z</time>
      </trkpt>
      <trkpt lat="45.43075" lon="5.34786">
        <ele>558</ele>
        <time>2011-08-15T14:29:01Z</time>
      </trkpt>
      <trkpt lat="45.43081" lon="5.34787">
        <ele>558</ele>
        <time>2011-08-15T14:29:02Z</time>
      </trkpt>
      <trkpt lat="45.43086" lon="5.34788">
        <ele>558</ele>
        <time>2011-08-15T14:29:03Z</time>
      </trkpt>
      <trkpt lat="45.43092" lon="5.3479">
        <ele>559</ele>
        <time>2011-08-15T14:29:04Z</time>
      </trkpt>
      <trkpt lat="45.43098" lon="5.34791">
        <ele>558</ele>
        <time>2011-08-15T14:29:05Z</time>
      </trkpt>
      <trkpt lat="45.43102" lon="5.34792">
        <ele>558</ele>
        <time>2011-08-15T14:29:06Z</time>
      </trkpt>
      <trkpt lat="45.43107" lon="5.34794">
        <ele>558</ele>
        <time>2011-08-15T14:29:07Z</time>
      </trkpt>
      <trkpt lat="45.43113" lon="5.34796">
        <ele>558</ele>
        <time>2011-08-15T14:29:08Z</time>
      </trkpt>
      <trkpt lat="45.43118" lon="5.34798">
        <ele>559</ele>
        <time>2011-08-15T14:29:09Z</time>
      </trkpt>
      <trkpt lat="45.43122" lon="5.34799">
        <ele>559</ele>
        <time>2011-08-15T14:29:10Z</time>
      </trkpt>
      <trkpt lat="45.43129" lon="5.34801">
        <ele>559</ele>
        <time>2011-08-15T14:29:12Z</time>
      </trkpt>
      <trkpt lat="45.43137" lon="5.34804">
        <ele>559</ele>
        <time>2011-08-15T14:29:14Z</time>
      </trkpt>
      <trkpt lat="45.43145" lon="5.34806">
        <ele>559</ele>
        <time>2011-08-15T14:29:16Z</time>
      </trkpt>
      <trkpt lat="45.43151" lon="5.34809">
        <ele>559</ele>
        <time>2011-08-15T14:29:18Z</time>
      </trkpt>
      <trkpt lat="45.43156" lon="5.34816">
        <ele>560</ele>
        <time>2011-08-15T14:29:20Z</time>
      </trkpt>
      <trkpt lat="45.43161" lon="5.34824">
        <ele>561</ele>
        <time>2011-08-15T14:29:22Z</time>
      </trkpt>
      <trkpt lat="45.43165" lon="5.34833">
        <ele>562</ele>
        <time>2011-08-15T14:29:24Z</time>
      </trkpt>
      <trkpt lat="45.43168" lon="5.34843">
        <ele>561</ele>
        <time>2011-08-15T14:29:26Z</time>
      </trkpt>
      <trkpt lat="45.43172" lon="5.34851">
        <ele>562</ele>
        <time>2011-08-15T14:29:28Z</time>
      </trkpt>
      <trkpt lat="45.43176" lon="5.3486">
        <ele>562</ele>
        <time>2011-08-15T14:29:30Z</time>
      </trkpt>
      <trkpt lat="45.4318" lon="5.34869">
        <ele>562</ele>
        <time>2011-08-15T14:29:32Z</time>
      </trkpt>
      <trkpt lat="45.43185" lon="5.34877">
        <ele>561</ele>
        <time>2011-08-15T14:29:34Z</time>
      </trkpt>
      <trkpt lat="45.4319" lon="5.34884">
        <ele>562</ele>
        <time>2011-08-15T14:29:36Z</time>
      </trkpt>
      <trkpt lat="45.43195" lon="5.34891">
        <ele>563</ele>
        <time>2011-08-15T14:29:38Z</time>
      </trkpt>
      <trkpt lat="45.43201" lon="5.34897">
        <ele>563</ele>
        <time>2011-08-15T14:29:40Z</time>
      </trkpt>
      <trkpt lat="45.43206" lon="5.34903">
        <ele>563</ele>
        <time>2011-08-15T14:29:42Z</time>
      </trkpt>
      <trkpt lat="45.43212" lon="5.34909">
        <ele>564</ele>
        <time>2011-08-15T14:29:44Z</time>
      </trkpt>
      <trkpt lat="45.43217" lon="5.34915">
        <ele>563</ele>
        <time>2011-08-15T14:29:46Z</time>
      </trkpt>
      <trkpt lat="45.43221" lon="5.34922">
        <ele>563</ele>
        <time>2011-08-15T14:29:48Z</time>
      </trkpt>
      <trkpt lat="45.43226" lon="5.34929">
        <ele>562</ele>
        <time>2011-08-15T14:29:50Z</time>
      </trkpt>
      <trkpt lat="45.43231" lon="5.34936">
        <ele>563</ele>
        <time>2011-08-15T14:29:52Z</time>
      </trkpt>
      <trkpt lat="45.43236" lon="5.34944">
        <ele>563</ele>
        <time>2011-08-15T14:29:54Z</time>
      </trkpt>
      <trkpt lat="45.4324" lon="5.34951">
        <ele>563</ele>
        <time>2011-08-15T14:29:56Z</time>
      </trkpt>
      <trkpt lat="45.43245" lon="5.34955">
        <ele>563</ele>
        <time>2011-08-15T14:29:58Z</time>
      </trkpt>
      <trkpt lat="45.43247" lon="5.34961">
        <ele>563</ele>
        <time>2011-08-15T14:29:59Z</time>
      </trkpt>
      <trkpt lat="45.43252" lon="5.34968">
        <ele>563</ele>
        <time>2011-08-15T14:30:01Z</time>
      </trkpt>
      <trkpt lat="45.43257" lon="5.34975">
        <ele>563</ele>
        <time>2011-08-15T14:30:03Z</time>
      </trkpt>
      <trkpt lat="45.43262" lon="5.34983">
        <ele>563</ele>
        <time>2011-08-15T14:30:05Z</time>
      </trkpt>
      <trkpt lat="45.43268" lon="5.3499">
        <ele>565</ele>
        <time>2011-08-15T14:30:07Z</time>
      </trkpt>
      <trkpt lat="45.43272" lon="5.34997">
        <ele>565</ele>
        <time>2011-08-15T14:30:09Z</time>
      </trkpt>
      <trkpt lat="45.43277" lon="5.35004">
        <ele>566</ele>
        <time>2011-08-15T14:30:11Z</time>
      </trkpt>
      <trkpt lat="45.43281" lon="5.3501">
        <ele>566</ele>
        <time>2011-08-15T14:30:13Z</time>
      </trkpt>
      <trkpt lat="45.43286" lon="5.35016">
        <ele>566</ele>
        <time>2011-08-15T14:30:15Z</time>
      </trkpt>
      <trkpt lat="45.43291" lon="5.35023">
        <ele>567</ele>
        <time>2011-08-15T14:30:17Z</time>
      </trkpt>
      <trkpt lat="45.43296" lon="5.3503">
        <ele>567</ele>
        <time>2011-08-15T14:30:19Z</time>
      </trkpt>
      <trkpt lat="45.433" lon="5.35035">
        <ele>568</ele>
        <time>2011-08-15T14:30:21Z</time>
      </trkpt>
      <trkpt lat="45.43306" lon="5.35042">
        <ele>569</ele>
        <time>2011-08-15T14:30:23Z</time>
      </trkpt>
      <trkpt lat="45.43311" lon="5.35048">
        <ele>569</ele>
        <time>2011-08-15T14:30:25Z</time>
      </trkpt>
      <trkpt lat="45.43316" lon="5.35054">
        <ele>569</ele>
        <time>2011-08-15T14:30:27Z</time>
      </trkpt>
      <trkpt lat="45.4332" lon="5.35059">
        <ele>569</ele>
        <time>2011-08-15T14:30:29Z</time>
      </trkpt>
      <trkpt lat="45.43326" lon="5.35064">
        <ele>570</ele>
        <time>2011-08-15T14:30:31Z</time>
      </trkpt>
      <trkpt lat="45.4333" lon="5.35068">
        <ele>571</ele>
        <time>2011-08-15T14:30:33Z</time>
      </trkpt>
      <trkpt lat="45.43337" lon="5.35068">
        <ele>572</ele>
        <time>2011-08-15T14:30:35Z</time>
      </trkpt>
      <trkpt lat="45.43342" lon="5.35064">
        <ele>572</ele>
        <time>2011-08-15T14:30:37Z</time>
      </trkpt>
      <trkpt lat="45.43345" lon="5.35055">
        <ele>572</ele>
        <time>2011-08-15T14:30:39Z</time>
      </trkpt>
      <trkpt lat="45.43348" lon="5.35046">
        <ele>572</ele>
        <time>2011-08-15T14:30:41Z</time>
      </trkpt>
      <trkpt lat="45.43352" lon="5.35039">
        <ele>571</ele>
        <time>2011-08-15T14:30:43Z</time>
      </trkpt>
      <trkpt lat="45.43354" lon="5.3503">
        <ele>571</ele>
        <time>2011-08-15T14:30:45Z</time>
      </trkpt>
      <trkpt lat="45.43358" lon="5.35022">
        <ele>571</ele>
        <time>2011-08-15T14:30:47Z</time>
      </trkpt>
      <trkpt lat="45.43362" lon="5.35015">
        <ele>571</ele>
        <time>2011-08-15T14:30:49Z</time>
      </trkpt>
      <trkpt lat="45.43365" lon="5.35006">
        <ele>572</ele>
        <time>2011-08-15T14:30:51Z</time>
      </trkpt>
      <trkpt lat="45.43368" lon="5.34998">
        <ele>572</ele>
        <time>2011-08-15T14:30:53Z</time>
      </trkpt>
      <trkpt lat="45.43372" lon="5.34991">
        <ele>571</ele>
        <time>2011-08-15T14:30:55Z</time>
      </trkpt>
      <trkpt lat="45.43376" lon="5.34983">
        <ele>572</ele>
        <time>2011-08-15T14:30:57Z</time>
      </trkpt>
      <trkpt lat="45.4338" lon="5.34976">
        <ele>572</ele>
        <time>2011-08-15T14:30:59Z</time>
      </trkpt>
      <trkpt lat="45.43384" lon="5.34969">
        <ele>571</ele>
        <time>2011-08-15T14:31:01Z</time>
      </trkpt>
      <trkpt lat="45.43387" lon="5.34961">
        <ele>570</ele>
        <time>2011-08-15T14:31:03Z</time>
      </trkpt>
      <trkpt lat="45.43391" lon="5.34952">
        <ele>571</ele>
        <time>2011-08-15T14:31:05Z</time>
      </trkpt>
      <trkpt lat="45.43394" lon="5.34944">
        <ele>571</ele>
        <time>2011-08-15T14:31:07Z</time>
      </trkpt>
      <trkpt lat="45.43398" lon="5.34938">
        <ele>571</ele>
        <time>2011-08-15T14:31:09Z</time>
      </trkpt>
      <trkpt lat="45.43401" lon="5.3493">
        <ele>571</ele>
        <time>2011-08-15T14:31:11Z</time>
      </trkpt>
      <trkpt lat="45.43404" lon="5.34922">
        <ele>571</ele>
        <time>2011-08-15T14:31:13Z</time>
      </trkpt>
      <trkpt lat="45.43408" lon="5.34916">
        <ele>571</ele>
        <time>2011-08-15T14:31:15Z</time>
      </trkpt>
      <trkpt lat="45.43412" lon="5.34908">
        <ele>572</ele>
        <time>2011-08-15T14:31:17Z</time>
      </trkpt>
      <trkpt lat="45.43415" lon="5.34901">
        <ele>572</ele>
        <time>2011-08-15T14:31:19Z</time>
      </trkpt>
      <trkpt lat="45.43418" lon="5.34892">
        <ele>572</ele>
        <time>2011-08-15T14:31:21Z</time>
      </trkpt>
      <trkpt lat="45.43421" lon="5.34886">
        <ele>572</ele>
        <time>2011-08-15T14:31:23Z</time>
      </trkpt>
      <trkpt lat="45.43424" lon="5.34879">
        <ele>572</ele>
        <time>2011-08-15T14:31:25Z</time>
      </trkpt>
      <trkpt lat="45.43428" lon="5.34872">
        <ele>573</ele>
        <time>2011-08-15T14:31:27Z</time>
      </trkpt>
      <trkpt lat="45.43431" lon="5.34866">
        <ele>572</ele>
        <time>2011-08-15T14:31:29Z</time>
      </trkpt>
      <trkpt lat="45.43434" lon="5.34861">
        <ele>572</ele>
        <time>2011-08-15T14:31:32Z</time>
      </trkpt>
      <trkpt lat="45.43436" lon="5.34854">
        <ele>572</ele>
        <time>2011-08-15T14:31:36Z</time>
      </trkpt>
      <trkpt lat="45.43439" lon="5.34847">
        <ele>572</ele>
        <time>2011-08-15T14:31:40Z</time>
      </trkpt>
      <trkpt lat="45.4344" lon="5.34841">
        <ele>571</ele>
        <time>2011-08-15T14:31:43Z</time>
      </trkpt>
      <trkpt lat="45.43444" lon="5.34834">
        <ele>571</ele>
        <time>2011-08-15T14:31:47Z</time>
      </trkpt>
      <trkpt lat="45.43447" lon="5.34828">
        <ele>571</ele>
        <time>2011-08-15T14:31:51Z</time>
      </trkpt>
      <trkpt lat="45.4345" lon="5.34822">
        <ele>571</ele>
        <time>2011-08-15T14:31:54Z</time>
      </trkpt>
      <trkpt lat="45.43452" lon="5.34816">
        <ele>571</ele>
        <time>2011-08-15T14:31:57Z</time>
      </trkpt>
      <trkpt lat="45.43456" lon="5.34809">
        <ele>572</ele>
        <time>2011-08-15T14:32:00Z</time>
      </trkpt>
      <trkpt lat="45.43458" lon="5.34801">
        <ele>573</ele>
        <time>2011-08-15T14:32:03Z</time>
      </trkpt>
      <trkpt lat="45.43461" lon="5.34794">
        <ele>572</ele>
        <time>2011-08-15T14:32:07Z</time>
      </trkpt>
      <trkpt lat="45.43464" lon="5.34787">
        <ele>572</ele>
        <time>2011-08-15T14:32:11Z</time>
      </trkpt>
      <trkpt lat="45.43467" lon="5.3478">
        <ele>572</ele>
        <time>2011-08-15T14:32:14Z</time>
      </trkpt>
      <trkpt lat="45.43468" lon="5.34773">
        <ele>571</ele>
        <time>2011-08-15T14:32:18Z</time>
      </trkpt>
      <trkpt lat="45.43472" lon="5.34767">
        <ele>569</ele>
        <time>2011-08-15T14:32:22Z</time>
      </trkpt>
      <trkpt lat="45.43474" lon="5.3476">
        <ele>569</ele>
        <time>2011-08-15T14:32:26Z</time>
      </trkpt>
      <trkpt lat="45.43476" lon="5.34752">
        <ele>570</ele>
        <time>2011-08-15T14:32:30Z</time>
      </trkpt>
      <trkpt lat="45.43478" lon="5.34747">
        <ele>570</ele>
        <time>2011-08-15T14:32:33Z</time>
      </trkpt>
      <trkpt lat="45.4348" lon="5.3474">
        <ele>570</ele>
        <time>2011-08-15T14:32:37Z</time>
      </trkpt>
      <trkpt lat="45.43482" lon="5.34732">
        <ele>569</ele>
        <time>2011-08-15T14:32:41Z</time>
      </trkpt>
      <trkpt lat="45.43484" lon="5.34725">
        <ele>569</ele>
        <time>2011-08-15T14:32:45Z</time>
      </trkpt>
      <trkpt lat="45.43488" lon="5.3472">
        <ele>569</ele>
        <time>2011-08-15T14:32:48Z</time>
      </trkpt>
      <trkpt lat="45.43491" lon="5.34714">
        <ele>569</ele>
        <time>2011-08-15T14:32:51Z</time>
      </trkpt>
      <trkpt lat="45.43495" lon="5.34708">
        <ele>570</ele>
        <time>2011-08-15T14:32:54Z</time>
      </trkpt>
      <trkpt lat="45.43497" lon="5.34702">
        <ele>570</ele>
        <time>2011-08-15T14:32:57Z</time>
      </trkpt>
      <trkpt lat="45.43499" lon="5.34696">
        <ele>571</ele>
        <time>2011-08-15T14:33:00Z</time>
      </trkpt>
      <trkpt lat="45.43502" lon="5.34691">
        <ele>572</ele>
        <time>2011-08-15T14:33:03Z</time>
      </trkpt>
      <trkpt lat="45.43505" lon="5.34684">
        <ele>572</ele>
        <time>2011-08-15T14:33:07Z</time>
      </trkpt>
      <trkpt lat="45.43509" lon="5.34679">
        <ele>573</ele>
        <time>2011-08-15T14:33:10Z</time>
      </trkpt>
      <trkpt lat="45.43512" lon="5.34672">
        <ele>573</ele>
        <time>2011-08-15T14:33:14Z</time>
      </trkpt>
      <trkpt lat="45.43514" lon="5.34667">
        <ele>572</ele>
        <time>2011-08-15T14:33:17Z</time>
      </trkpt>
      <trkpt lat="45.43518" lon="5.34661">
        <ele>572</ele>
        <time>2011-08-15T14:33:20Z</time>
      </trkpt>
      <trkpt lat="45.4352" lon="5.34656">
        <ele>573</ele>
        <time>2011-08-15T14:33:23Z</time>
      </trkpt>
      <trkpt lat="45.43524" lon="5.3465">
        <ele>573</ele>
        <time>2011-08-15T14:33:27Z</time>
      </trkpt>
      <trkpt lat="45.43527" lon="5.34645">
        <ele>573</ele>
        <time>2011-08-15T14:33:33Z</time>
      </trkpt>
      <trkpt lat="45.4353" lon="5.34638">
        <ele>573</ele>
        <time>2011-08-15T14:33:37Z</time>
      </trkpt>
      <trkpt lat="45.43534" lon="5.34631">
        <ele>571</ele>
        <time>2011-08-15T14:33:40Z</time>
      </trkpt>
      <trkpt lat="45.43538" lon="5.34625">
        <ele>572</ele>
        <time>2011-08-15T14:33:43Z</time>
      </trkpt>
      <trkpt lat="45.43541" lon="5.3462">
        <ele>572</ele>
        <time>2011-08-15T14:33:46Z</time>
      </trkpt>
      <trkpt lat="45.43546" lon="5.34615">
        <ele>571</ele>
        <time>2011-08-15T14:33:51Z</time>
      </trkpt>
      <trkpt lat="45.43549" lon="5.34609">
        <ele>571</ele>
        <time>2011-08-15T14:33:55Z</time>
      </trkpt>
      <trkpt lat="45.43553" lon="5.34604">
        <ele>571</ele>
        <time>2011-08-15T14:33:58Z</time>
      </trkpt>
      <trkpt lat="45.43557" lon="5.34599">
        <ele>569</ele>
        <time>2011-08-15T14:34:02Z</time>
      </trkpt>
      <trkpt lat="45.4356" lon="5.34593">
        <ele>569</ele>
        <time>2011-08-15T14:34:06Z</time>
      </trkpt>
      <trkpt lat="45.43564" lon="5.34587">
        <ele>569</ele>
        <time>2011-08-15T14:34:10Z</time>
      </trkpt>
      <trkpt lat="45.43568" lon="5.34581">
        <ele>569</ele>
        <time>2011-08-15T14:34:14Z</time>
      </trkpt>
      <trkpt lat="45.43571" lon="5.34574">
        <ele>568</ele>
        <time>2011-08-15T14:34:18Z</time>
      </trkpt>
      <trkpt lat="45.43574" lon="5.34566">
        <ele>568</ele>
        <time>2011-08-15T14:34:22Z</time>
      </trkpt>
      <trkpt lat="45.43576" lon="5.34558">
        <ele>568</ele>
        <time>2011-08-15T14:34:26Z</time>
      </trkpt>
      <trkpt lat="45.43577" lon="5.34552">
        <ele>568</ele>
        <time>2011-08-15T14:34:29Z</time>
      </trkpt>
      <trkpt lat="45.43577" lon="5.34545">
        <ele>568</ele>
        <time>2011-08-15T14:34:32Z</time>
      </trkpt>
      <trkpt lat="45.43575" lon="5.3454">
        <ele>568</ele>
        <time>2011-08-15T14:34:36Z</time>
      </trkpt>
      <trkpt lat="45.43575" lon="5.3454">
        <ele>568</ele>
        <time>2011-08-15T14:34:36Z</time>
      </trkpt>
      <trkpt lat="45.43575" lon="5.3454">
        <ele>568</ele>
        <time>2011-08-15T14:34:42Z</time>
      </trkpt>
      <trkpt lat="45.43575" lon="5.34546">
        <ele>569</ele>
        <time>2011-08-15T14:35:31Z</time>
      </trkpt>
      <trkpt lat="45.43575" lon="5.34546">
        <ele>569</ele>
        <time>2011-08-15T14:35:31Z</time>
      </trkpt>
      <trkpt lat="45.43575" lon="5.34546">
        <ele>569</ele>
        <time>2011-08-15T14:35:39Z</time>
      </trkpt>
      <trkpt lat="45.43572" lon="5.3454">
        <ele>567</ele>
        <time>2011-08-15T14:35:53Z</time>
      </trkpt>
      <trkpt lat="45.43568" lon="5.34535">
        <ele>567</ele>
        <time>2011-08-15T14:35:58Z</time>
      </trkpt>
      <trkpt lat="45.43563" lon="5.3453">
        <ele>567</ele>
        <time>2011-08-15T14:36:02Z</time>
      </trkpt>
      <trkpt lat="45.43559" lon="5.34526">
        <ele>567</ele>
        <time>2011-08-15T14:36:05Z</time>
      </trkpt>
      <trkpt lat="45.43555" lon="5.34521">
        <ele>567</ele>
        <time>2011-08-15T14:36:09Z</time>
      </trkpt>
      <trkpt lat="45.4355" lon="5.34516">
        <ele>566</ele>
        <time>2011-08-15T14:36:14Z</time>
      </trkpt>
      <trkpt lat="45.43547" lon="5.34511">
        <ele>566</ele>
        <time>2011-08-15T14:36:18Z</time>
      </trkpt>
      <trkpt lat="45.43543" lon="5.34506">
        <ele>566</ele>
        <time>2011-08-15T14:36:22Z</time>
      </trkpt>
      <trkpt lat="45.43539" lon="5.345">
        <ele>566</ele>
        <time>2011-08-15T14:36:27Z</time>
      </trkpt>
      <trkpt lat="45.43535" lon="5.34494">
        <ele>566</ele>
        <time>2011-08-15T14:36:31Z</time>
      </trkpt>
      <trkpt lat="45.43532" lon="5.34489">
        <ele>565</ele>
        <time>2011-08-15T14:36:34Z</time>
      </trkpt>
      <trkpt lat="45.43527" lon="5.34483">
        <ele>565</ele>
        <time>2011-08-15T14:36:38Z</time>
      </trkpt>
      <trkpt lat="45.43523" lon="5.3448">
        <ele>564</ele>
        <time>2011-08-15T14:36:42Z</time>
      </trkpt>
      <trkpt lat="45.4352" lon="5.34475">
        <ele>564</ele>
        <time>2011-08-15T14:36:46Z</time>
      </trkpt>
      <trkpt lat="45.43516" lon="5.34469">
        <ele>563</ele>
        <time>2011-08-15T14:36:51Z</time>
      </trkpt>
      <trkpt lat="45.43512" lon="5.34463">
        <ele>565</ele>
        <time>2011-08-15T14:36:55Z</time>
      </trkpt>
      <trkpt lat="45.43509" lon="5.34458">
        <ele>567</ele>
        <time>2011-08-15T14:36:59Z</time>
      </trkpt>
      <trkpt lat="45.43505" lon="5.34452">
        <ele>567</ele>
        <time>2011-08-15T14:37:03Z</time>
      </trkpt>
      <trkpt lat="45.43502" lon="5.34447">
        <ele>567</ele>
        <time>2011-08-15T14:37:07Z</time>
      </trkpt>
      <trkpt lat="45.43499" lon="5.34441">
        <ele>567</ele>
        <time>2011-08-15T14:37:11Z</time>
      </trkpt>
      <trkpt lat="45.43496" lon="5.34436">
        <ele>566</ele>
        <time>2011-08-15T14:37:15Z</time>
      </trkpt>
      <trkpt lat="45.43492" lon="5.3443">
        <ele>567</ele>
        <time>2011-08-15T14:37:19Z</time>
      </trkpt>
      <trkpt lat="45.43488" lon="5.34425">
        <ele>566</ele>
        <time>2011-08-15T14:37:23Z</time>
      </trkpt>
      <trkpt lat="45.43484" lon="5.3442">
        <ele>566</ele>
        <time>2011-08-15T14:37:27Z</time>
      </trkpt>
      <trkpt lat="45.43482" lon="5.34414">
        <ele>567</ele>
        <time>2011-08-15T14:37:30Z</time>
      </trkpt>
      <trkpt lat="45.43479" lon="5.34408">
        <ele>567</ele>
        <time>2011-08-15T14:37:34Z</time>
      </trkpt>
      <trkpt lat="45.43475" lon="5.34403">
        <ele>567</ele>
        <time>2011-08-15T14:37:37Z</time>
      </trkpt>
      <trkpt lat="45.43472" lon="5.34396">
        <ele>567</ele>
        <time>2011-08-15T14:37:41Z</time>
      </trkpt>
      <trkpt lat="45.43468" lon="5.3439">
        <ele>566</ele>
        <time>2011-08-15T14:37:45Z</time>
      </trkpt>
      <trkpt lat="45.43465" lon="5.34384">
        <ele>566</ele>
        <time>2011-08-15T14:37:49Z</time>
      </trkpt>
      <trkpt lat="45.43462" lon="5.34378">
        <ele>565</ele>
        <time>2011-08-15T14:37:53Z</time>
      </trkpt>
      <trkpt lat="45.43458" lon="5.34372">
        <ele>565</ele>
        <time>2011-08-15T14:37:57Z</time>
      </trkpt>
      <trkpt lat="45.43455" lon="5.34367">
        <ele>565</ele>
        <time>2011-08-15T14:38:00Z</time>
      </trkpt>
      <trkpt lat="45.43451" lon="5.3436">
        <ele>566</ele>
        <time>2011-08-15T14:38:04Z</time>
      </trkpt>
      <trkpt lat="45.43448" lon="5.34354">
        <ele>566</ele>
        <time>2011-08-15T14:38:08Z</time>
      </trkpt>
      <trkpt lat="45.43445" lon="5.34348">
        <ele>566</ele>
        <time>2011-08-15T14:38:12Z</time>
      </trkpt>
      <trkpt lat="45.43442" lon="5.3434">
        <ele>567</ele>
        <time>2011-08-15T14:38:16Z</time>
      </trkpt>
      <trkpt lat="45.43439" lon="5.34335">
        <ele>567</ele>
        <time>2011-08-15T14:38:20Z</time>
      </trkpt>
      <trkpt lat="45.43436" lon="5.34329">
        <ele>567</ele>
        <time>2011-08-15T14:38:24Z</time>
      </trkpt>
      <trkpt lat="45.43434" lon="5.34322">
        <ele>566</ele>
        <time>2011-08-15T14:38:28Z</time>
      </trkpt>
      <trkpt lat="45.4343" lon="5.34316">
        <ele>566</ele>
        <time>2011-08-15T14:38:32Z</time>
      </trkpt>
      <trkpt lat="45.43426" lon="5.34309">
        <ele>564</ele>
        <time>2011-08-15T14:38:36Z</time>
      </trkpt>
      <trkpt lat="45.43423" lon="5.34303">
        <ele>562</ele>
        <time>2011-08-15T14:38:40Z</time>
      </trkpt>
      <trkpt lat="45.43419" lon="5.34298">
        <ele>562</ele>
        <time>2011-08-15T14:38:44Z</time>
      </trkpt>
      <trkpt lat="45.43416" lon="5.34291">
        <ele>562</ele>
        <time>2011-08-15T14:38:48Z</time>
      </trkpt>
      <trkpt lat="45.43413" lon="5.34285">
        <ele>562</ele>
        <time>2011-08-15T14:38:51Z</time>
      </trkpt>
      <trkpt lat="45.43409" lon="5.3428">
        <ele>562</ele>
        <time>2011-08-15T14:38:55Z</time>
      </trkpt>
      <trkpt lat="45.43407" lon="5.34274">
        <ele>562</ele>
        <time>2011-08-15T14:38:59Z</time>
      </trkpt>
      <trkpt lat="45.43403" lon="5.3427">
        <ele>563</ele>
        <time>2011-08-15T14:39:04Z</time>
      </trkpt>
      <trkpt lat="45.43399" lon="5.34265">
        <ele>562</ele>
        <time>2011-08-15T14:39:08Z</time>
      </trkpt>
      <trkpt lat="45.43395" lon="5.3426">
        <ele>562</ele>
        <time>2011-08-15T14:39:11Z</time>
      </trkpt>
      <trkpt lat="45.43392" lon="5.34254">
        <ele>561</ele>
        <time>2011-08-15T14:39:14Z</time>
      </trkpt>
      <trkpt lat="45.43388" lon="5.34249">
        <ele>560</ele>
        <time>2011-08-15T14:39:18Z</time>
      </trkpt>
      <trkpt lat="45.43383" lon="5.34245">
        <ele>560</ele>
        <time>2011-08-15T14:39:22Z</time>
      </trkpt>
      <trkpt lat="45.4338" lon="5.3424">
        <ele>561</ele>
        <time>2011-08-15T14:39:26Z</time>
      </trkpt>
      <trkpt lat="45.43376" lon="5.34235">
        <ele>562</ele>
        <time>2011-08-15T14:39:30Z</time>
      </trkpt>
      <trkpt lat="45.43372" lon="5.3423">
        <ele>562</ele>
        <time>2011-08-15T14:39:34Z</time>
      </trkpt>
      <trkpt lat="45.43369" lon="5.34224">
        <ele>562</ele>
        <time>2011-08-15T14:39:37Z</time>
      </trkpt>
      <trkpt lat="45.43366" lon="5.34218">
        <ele>562</ele>
        <time>2011-08-15T14:39:41Z</time>
      </trkpt>
      <trkpt lat="45.43363" lon="5.34212">
        <ele>562</ele>
        <time>2011-08-15T14:39:45Z</time>
      </trkpt>
      <trkpt lat="45.4336" lon="5.34206">
        <ele>561</ele>
        <time>2011-08-15T14:39:49Z</time>
      </trkpt>
      <trkpt lat="45.43357" lon="5.34199">
        <ele>563</ele>
        <time>2011-08-15T14:39:52Z</time>
      </trkpt>
      <trkpt lat="45.43354" lon="5.34191">
        <ele>563</ele>
        <time>2011-08-15T14:39:56Z</time>
      </trkpt>
      <trkpt lat="45.43352" lon="5.34183">
        <ele>562</ele>
        <time>2011-08-15T14:40:00Z</time>
      </trkpt>
      <trkpt lat="45.43353" lon="5.34176">
        <ele>562</ele>
        <time>2011-08-15T14:40:04Z</time>
      </trkpt>
      <trkpt lat="45.43357" lon="5.34172">
        <ele>562</ele>
        <time>2011-08-15T14:40:07Z</time>
      </trkpt>
      <trkpt lat="45.43362" lon="5.34168">
        <ele>562</ele>
        <time>2011-08-15T14:40:10Z</time>
      </trkpt>
      <trkpt lat="45.43366" lon="5.34164">
        <ele>562</ele>
        <time>2011-08-15T14:40:13Z</time>
      </trkpt>
      <trkpt lat="45.43371" lon="5.34161">
        <ele>561</ele>
        <time>2011-08-15T14:40:16Z</time>
      </trkpt>
      <trkpt lat="45.43375" lon="5.34158">
        <ele>562</ele>
        <time>2011-08-15T14:40:18Z</time>
      </trkpt>
      <trkpt lat="45.43379" lon="5.34155">
        <ele>561</ele>
        <time>2011-08-15T14:40:22Z</time>
      </trkpt>
      <trkpt lat="45.43385" lon="5.34152">
        <ele>561</ele>
        <time>2011-08-15T14:40:26Z</time>
      </trkpt>
      <trkpt lat="45.4339" lon="5.34149">
        <ele>561</ele>
        <time>2011-08-15T14:40:28Z</time>
      </trkpt>
      <trkpt lat="45.43394" lon="5.34144">
        <ele>560</ele>
        <time>2011-08-15T14:40:32Z</time>
      </trkpt>
      <trkpt lat="45.43399" lon="5.3414">
        <ele>560</ele>
        <time>2011-08-15T14:40:36Z</time>
      </trkpt>
      <trkpt lat="45.43405" lon="5.34139">
        <ele>559</ele>
        <time>2011-08-15T14:40:40Z</time>
      </trkpt>
      <trkpt lat="45.4341" lon="5.34139">
        <ele>559</ele>
        <time>2011-08-15T14:40:46Z</time>
      </trkpt>
      <trkpt lat="45.43417" lon="5.3414">
        <ele>559</ele>
        <time>2011-08-15T14:40:50Z</time>
      </trkpt>
      <trkpt lat="45.43422" lon="5.34143">
        <ele>559</ele>
        <time>2011-08-15T14:40:54Z</time>
      </trkpt>
      <trkpt lat="45.43428" lon="5.34146">
        <ele>559</ele>
        <time>2011-08-15T14:40:59Z</time>
      </trkpt>
      <trkpt lat="45.43432" lon="5.34149">
        <ele>558</ele>
        <time>2011-08-15T14:41:01Z</time>
      </trkpt>
      <trkpt lat="45.43437" lon="5.34152">
        <ele>559</ele>
        <time>2011-08-15T14:41:04Z</time>
      </trkpt>
      <trkpt lat="45.43442" lon="5.34152">
        <ele>559</ele>
        <time>2011-08-15T14:41:07Z</time>
      </trkpt>
      <trkpt lat="45.43448" lon="5.34154">
        <ele>560</ele>
        <time>2011-08-15T14:41:12Z</time>
      </trkpt>
      <trkpt lat="45.43454" lon="5.34157">
        <ele>559</ele>
        <time>2011-08-15T14:41:17Z</time>
      </trkpt>
      <trkpt lat="45.43459" lon="5.34159">
        <ele>559</ele>
        <time>2011-08-15T14:41:19Z</time>
      </trkpt>
      <trkpt lat="45.43466" lon="5.34162">
        <ele>560</ele>
        <time>2011-08-15T14:41:22Z</time>
      </trkpt>
      <trkpt lat="45.4347" lon="5.34165">
        <ele>560</ele>
        <time>2011-08-15T14:41:25Z</time>
      </trkpt>
      <trkpt lat="45.43474" lon="5.34168">
        <ele>560</ele>
        <time>2011-08-15T14:41:28Z</time>
      </trkpt>
      <trkpt lat="45.43479" lon="5.3417">
        <ele>559</ele>
        <time>2011-08-15T14:41:32Z</time>
      </trkpt>
      <trkpt lat="45.43485" lon="5.34172">
        <ele>559</ele>
        <time>2011-08-15T14:41:36Z</time>
      </trkpt>
      <trkpt lat="45.43491" lon="5.34173">
        <ele>559</ele>
        <time>2011-08-15T14:41:40Z</time>
      </trkpt>
      <trkpt lat="45.43495" lon="5.3417">
        <ele>558</ele>
        <time>2011-08-15T14:41:44Z</time>
      </trkpt>
      <trkpt lat="45.43501" lon="5.34167">
        <ele>559</ele>
        <time>2011-08-15T14:41:47Z</time>
      </trkpt>
      <trkpt lat="45.43502" lon="5.3416">
        <ele>558</ele>
        <time>2011-08-15T14:41:50Z</time>
      </trkpt>
      <trkpt lat="45.43503" lon="5.34153">
        <ele>557</ele>
        <time>2011-08-15T14:41:53Z</time>
      </trkpt>
      <trkpt lat="45.43505" lon="5.34147">
        <ele>556</ele>
        <time>2011-08-15T14:41:57Z</time>
      </trkpt>
      <trkpt lat="45.43506" lon="5.3414">
        <ele>556</ele>
        <time>2011-08-15T14:42:02Z</time>
      </trkpt>
      <trkpt lat="45.43507" lon="5.34133">
        <ele>555</ele>
        <time>2011-08-15T14:42:05Z</time>
      </trkpt>
      <trkpt lat="45.43509" lon="5.34124">
        <ele>555</ele>
        <time>2011-08-15T14:42:08Z</time>
      </trkpt>
      <trkpt lat="45.43512" lon="5.34117">
        <ele>555</ele>
        <time>2011-08-15T14:42:11Z</time>
      </trkpt>
      <trkpt lat="45.43516" lon="5.34111">
        <ele>556</ele>
        <time>2011-08-15T14:42:14Z</time>
      </trkpt>
      <trkpt lat="45.43519" lon="5.34104">
        <ele>556</ele>
        <time>2011-08-15T14:42:17Z</time>
      </trkpt>
      <trkpt lat="45.43522" lon="5.34099">
        <ele>555</ele>
        <time>2011-08-15T14:42:20Z</time>
      </trkpt>
      <trkpt lat="45.43522" lon="5.34091">
        <ele>555</ele>
        <time>2011-08-15T14:42:24Z</time>
      </trkpt>
      <trkpt lat="45.43525" lon="5.34085">
        <ele>556</ele>
        <time>2011-08-15T14:42:27Z</time>
      </trkpt>
      <trkpt lat="45.43528" lon="5.34079">
        <ele>555</ele>
        <time>2011-08-15T14:42:31Z</time>
      </trkpt>
      <trkpt lat="45.43531" lon="5.34071">
        <ele>555</ele>
        <time>2011-08-15T14:42:36Z</time>
      </trkpt>
      <trkpt lat="45.43531" lon="5.34063">
        <ele>555</ele>
        <time>2011-08-15T14:42:39Z</time>
      </trkpt>
      <trkpt lat="45.43534" lon="5.34056">
        <ele>555</ele>
        <time>2011-08-15T14:42:43Z</time>
      </trkpt>
      <trkpt lat="45.43533" lon="5.34049">
        <ele>555</ele>
        <time>2011-08-15T14:42:46Z</time>
      </trkpt>
      <trkpt lat="45.43532" lon="5.34041">
        <ele>554</ele>
        <time>2011-08-15T14:42:50Z</time>
      </trkpt>
      <trkpt lat="45.43528" lon="5.34035">
        <ele>553</ele>
        <time>2011-08-15T14:42:54Z</time>
      </trkpt>
      <trkpt lat="45.43525" lon="5.34029">
        <ele>554</ele>
        <time>2011-08-15T14:42:58Z</time>
      </trkpt>
      <trkpt lat="45.4352" lon="5.34022">
        <ele>554</ele>
        <time>2011-08-15T14:43:02Z</time>
      </trkpt>
      <trkpt lat="45.43517" lon="5.34016">
        <ele>553</ele>
        <time>2011-08-15T14:43:07Z</time>
      </trkpt>
      <trkpt lat="45.43516" lon="5.3401">
        <ele>555</ele>
        <time>2011-08-15T14:43:10Z</time>
      </trkpt>
      <trkpt lat="45.43513" lon="5.34005">
        <ele>555</ele>
        <time>2011-08-15T14:43:14Z</time>
      </trkpt>
      <trkpt lat="45.4351" lon="5.33997">
        <ele>557</ele>
        <time>2011-08-15T14:43:18Z</time>
      </trkpt>
      <trkpt lat="45.43509" lon="5.33988">
        <ele>558</ele>
        <time>2011-08-15T14:43:23Z</time>
      </trkpt>
      <trkpt lat="45.43506" lon="5.33982">
        <ele>558</ele>
        <time>2011-08-15T14:43:27Z</time>
      </trkpt>
      <trkpt lat="45.43503" lon="5.33975">
        <ele>558</ele>
        <time>2011-08-15T14:43:31Z</time>
      </trkpt>
      <trkpt lat="45.435" lon="5.33969">
        <ele>557</ele>
        <time>2011-08-15T14:43:34Z</time>
      </trkpt>
      <trkpt lat="45.43497" lon="5.33963">
        <ele>558</ele>
        <time>2011-08-15T14:43:37Z</time>
      </trkpt>
      <trkpt lat="45.43494" lon="5.33957">
        <ele>558</ele>
        <time>2011-08-15T14:43:40Z</time>
      </trkpt>
      <trkpt lat="45.43491" lon="5.33952">
        <ele>558</ele>
        <time>2011-08-15T14:43:43Z</time>
      </trkpt>
      <trkpt lat="45.43489" lon="5.33945">
        <ele>557</ele>
        <time>2011-08-15T14:43:47Z</time>
      </trkpt>
      <trkpt lat="45.43487" lon="5.33938">
        <ele>557</ele>
        <time>2011-08-15T14:43:51Z</time>
      </trkpt>
      <trkpt lat="45.43483" lon="5.33932">
        <ele>556</ele>
        <time>2011-08-15T14:43:54Z</time>
      </trkpt>
      <trkpt lat="45.4348" lon="5.33927">
        <ele>556</ele>
        <time>2011-08-15T14:43:57Z</time>
      </trkpt>
      <trkpt lat="45.43478" lon="5.33922">
        <ele>556</ele>
        <time>2011-08-15T14:44:00Z</time>
      </trkpt>
      <trkpt lat="45.43475" lon="5.33915">
        <ele>556</ele>
        <time>2011-08-15T14:44:04Z</time>
      </trkpt>
      <trkpt lat="45.43472" lon="5.33909">
        <ele>556</ele>
        <time>2011-08-15T14:44:07Z</time>
      </trkpt>
      <trkpt lat="45.43469" lon="5.33903">
        <ele>556</ele>
        <time>2011-08-15T14:44:10Z</time>
      </trkpt>
      <trkpt lat="45.43466" lon="5.33898">
        <ele>556</ele>
        <time>2011-08-15T14:44:13Z</time>
      </trkpt>
      <trkpt lat="45.43464" lon="5.33893">
        <ele>556</ele>
        <time>2011-08-15T14:44:16Z</time>
      </trkpt>
      <trkpt lat="45.43461" lon="5.33887">
        <ele>557</ele>
        <time>2011-08-15T14:44:19Z</time>
      </trkpt>
      <trkpt lat="45.43459" lon="5.33881">
        <ele>557</ele>
        <time>2011-08-15T14:44:22Z</time>
      </trkpt>
      <trkpt lat="45.43456" lon="5.33875">
        <ele>556</ele>
        <time>2011-08-15T14:44:25Z</time>
      </trkpt>
      <trkpt lat="45.43452" lon="5.33869">
        <ele>556</ele>
        <time>2011-08-15T14:44:29Z</time>
      </trkpt>
      <trkpt lat="45.43449" lon="5.33862">
        <ele>556</ele>
        <time>2011-08-15T14:44:32Z</time>
      </trkpt>
      <trkpt lat="45.43446" lon="5.33857">
        <ele>556</ele>
        <time>2011-08-15T14:44:35Z</time>
      </trkpt>
      <trkpt lat="45.43444" lon="5.33849">
        <ele>555</ele>
        <time>2011-08-15T14:44:39Z</time>
      </trkpt>
      <trkpt lat="45.4344" lon="5.33842">
        <ele>556</ele>
        <time>2011-08-15T14:44:43Z</time>
      </trkpt>
      <trkpt lat="45.43437" lon="5.33837">
        <ele>556</ele>
        <time>2011-08-15T14:44:46Z</time>
      </trkpt>
      <trkpt lat="45.43435" lon="5.33832">
        <ele>556</ele>
        <time>2011-08-15T14:44:48Z</time>
      </trkpt>
      <trkpt lat="45.43431" lon="5.33827">
        <ele>556</ele>
        <time>2011-08-15T14:44:51Z</time>
      </trkpt>
      <trkpt lat="45.43429" lon="5.3382">
        <ele>556</ele>
        <time>2011-08-15T14:44:54Z</time>
      </trkpt>
      <trkpt lat="45.43427" lon="5.33814">
        <ele>555</ele>
        <time>2011-08-15T14:44:57Z</time>
      </trkpt>
      <trkpt lat="45.43423" lon="5.33807">
        <ele>555</ele>
        <time>2011-08-15T14:45:01Z</time>
      </trkpt>
      <trkpt lat="45.43421" lon="5.33801">
        <ele>555</ele>
        <time>2011-08-15T14:45:04Z</time>
      </trkpt>
      <trkpt lat="45.43418" lon="5.33796">
        <ele>555</ele>
        <time>2011-08-15T14:45:07Z</time>
      </trkpt>
      <trkpt lat="45.43415" lon="5.33789">
        <ele>553</ele>
        <time>2011-08-15T14:45:11Z</time>
      </trkpt>
      <trkpt lat="45.43412" lon="5.33784">
        <ele>554</ele>
        <time>2011-08-15T14:45:14Z</time>
      </trkpt>
      <trkpt lat="45.43408" lon="5.33777">
        <ele>553</ele>
        <time>2011-08-15T14:45:18Z</time>
      </trkpt>
      <trkpt lat="45.43404" lon="5.33771">
        <ele>553</ele>
        <time>2011-08-15T14:45:22Z</time>
      </trkpt>
      <trkpt lat="45.43402" lon="5.33764">
        <ele>553</ele>
        <time>2011-08-15T14:45:26Z</time>
      </trkpt>
      <trkpt lat="45.43399" lon="5.33758">
        <ele>553</ele>
        <time>2011-08-15T14:45:30Z</time>
      </trkpt>
      <trkpt lat="45.43396" lon="5.33752">
        <ele>554</ele>
        <time>2011-08-15T14:45:34Z</time>
      </trkpt>
      <trkpt lat="45.43394" lon="5.33746">
        <ele>554</ele>
        <time>2011-08-15T14:45:38Z</time>
      </trkpt>
      <trkpt lat="45.43393" lon="5.33739">
        <ele>554</ele>
        <time>2011-08-15T14:45:42Z</time>
      </trkpt>
      <trkpt lat="45.4339" lon="5.33733">
        <ele>554</ele>
        <time>2011-08-15T14:45:48Z</time>
      </trkpt>
      <trkpt lat="45.43387" lon="5.33727">
        <ele>554</ele>
        <time>2011-08-15T14:45:51Z</time>
      </trkpt>
      <trkpt lat="45.43385" lon="5.33722">
        <ele>554</ele>
        <time>2011-08-15T14:45:54Z</time>
      </trkpt>
      <trkpt lat="45.43382" lon="5.33714">
        <ele>554</ele>
        <time>2011-08-15T14:45:58Z</time>
      </trkpt>
      <trkpt lat="45.43379" lon="5.33709">
        <ele>554</ele>
        <time>2011-08-15T14:46:01Z</time>
      </trkpt>
      <trkpt lat="45.43376" lon="5.33702">
        <ele>554</ele>
        <time>2011-08-15T14:46:05Z</time>
      </trkpt>
      <trkpt lat="45.43373" lon="5.33697">
        <ele>554</ele>
        <time>2011-08-15T14:46:08Z</time>
      </trkpt>
      <trkpt lat="45.43371" lon="5.33689">
        <ele>554</ele>
        <time>2011-08-15T14:46:12Z</time>
      </trkpt>
      <trkpt lat="45.43368" lon="5.33682">
        <ele>554</ele>
        <time>2011-08-15T14:46:16Z</time>
      </trkpt>
      <trkpt lat="45.43365" lon="5.33676">
        <ele>555</ele>
        <time>2011-08-15T14:46:20Z</time>
      </trkpt>
      <trkpt lat="45.43362" lon="5.33669">
        <ele>555</ele>
        <time>2011-08-15T14:46:24Z</time>
      </trkpt>
      <trkpt lat="45.43359" lon="5.33663">
        <ele>554</ele>
        <time>2011-08-15T14:46:28Z</time>
      </trkpt>
      <trkpt lat="45.43356" lon="5.33658">
        <ele>555</ele>
        <time>2011-08-15T14:46:31Z</time>
      </trkpt>
      <trkpt lat="45.43352" lon="5.33651">
        <ele>554</ele>
        <time>2011-08-15T14:46:35Z</time>
      </trkpt>
      <trkpt lat="45.4335" lon="5.33646">
        <ele>554</ele>
        <time>2011-08-15T14:46:38Z</time>
      </trkpt>
      <trkpt lat="45.43347" lon="5.3364">
        <ele>554</ele>
        <time>2011-08-15T14:46:41Z</time>
      </trkpt>
      <trkpt lat="45.43344" lon="5.33634">
        <ele>554</ele>
        <time>2011-08-15T14:46:45Z</time>
      </trkpt>
      <trkpt lat="45.43342" lon="5.33626">
        <ele>555</ele>
        <time>2011-08-15T14:46:49Z</time>
      </trkpt>
      <trkpt lat="45.43339" lon="5.33621">
        <ele>554</ele>
        <time>2011-08-15T14:46:52Z</time>
      </trkpt>
      <trkpt lat="45.43336" lon="5.33615">
        <ele>554</ele>
        <time>2011-08-15T14:46:55Z</time>
      </trkpt>
      <trkpt lat="45.43333" lon="5.33608">
        <ele>554</ele>
        <time>2011-08-15T14:46:59Z</time>
      </trkpt>
      <trkpt lat="45.4333" lon="5.33602">
        <ele>554</ele>
        <time>2011-08-15T14:47:02Z</time>
      </trkpt>
      <trkpt lat="45.43328" lon="5.33596">
        <ele>554</ele>
        <time>2011-08-15T14:47:05Z</time>
      </trkpt>
      <trkpt lat="45.43325" lon="5.33591">
        <ele>554</ele>
        <time>2011-08-15T14:47:08Z</time>
      </trkpt>
      <trkpt lat="45.43322" lon="5.33584">
        <ele>554</ele>
        <time>2011-08-15T14:47:12Z</time>
      </trkpt>
      <trkpt lat="45.43319" lon="5.33579">
        <ele>554</ele>
        <time>2011-08-15T14:47:15Z</time>
      </trkpt>
      <trkpt lat="45.43316" lon="5.33572">
        <ele>553</ele>
        <time>2011-08-15T14:47:19Z</time>
      </trkpt>
      <trkpt lat="45.43313" lon="5.33566">
        <ele>553</ele>
        <time>2011-08-15T14:47:23Z</time>
      </trkpt>
      <trkpt lat="45.43309" lon="5.3356">
        <ele>552</ele>
        <time>2011-08-15T14:47:27Z</time>
      </trkpt>
      <trkpt lat="45.43306" lon="5.33552">
        <ele>552</ele>
        <time>2011-08-15T14:47:31Z</time>
      </trkpt>
      <trkpt lat="45.43303" lon="5.33546">
        <ele>553</ele>
        <time>2011-08-15T14:47:34Z</time>
      </trkpt>
      <trkpt lat="45.433" lon="5.33538">
        <ele>553</ele>
        <time>2011-08-15T14:47:38Z</time>
      </trkpt>
      <trkpt lat="45.43297" lon="5.33532">
        <ele>552</ele>
        <time>2011-08-15T14:47:42Z</time>
      </trkpt>
      <trkpt lat="45.43295" lon="5.33526">
        <ele>552</ele>
        <time>2011-08-15T14:47:45Z</time>
      </trkpt>
      <trkpt lat="45.43292" lon="5.3352">
        <ele>552</ele>
        <time>2011-08-15T14:47:48Z</time>
      </trkpt>
      <trkpt lat="45.43291" lon="5.33512">
        <ele>552</ele>
        <time>2011-08-15T14:47:52Z</time>
      </trkpt>
      <trkpt lat="45.43294" lon="5.33505">
        <ele>553</ele>
        <time>2011-08-15T14:47:57Z</time>
      </trkpt>
      <trkpt lat="45.43299" lon="5.33502">
        <ele>553</ele>
        <time>2011-08-15T14:48:01Z</time>
      </trkpt>
      <trkpt lat="45.43305" lon="5.33498">
        <ele>553</ele>
        <time>2011-08-15T14:48:05Z</time>
      </trkpt>
      <trkpt lat="45.4331" lon="5.33494">
        <ele>554</ele>
        <time>2011-08-15T14:48:10Z</time>
      </trkpt>
      <trkpt lat="45.43315" lon="5.33489">
        <ele>553</ele>
        <time>2011-08-15T14:48:14Z</time>
      </trkpt>
      <trkpt lat="45.4332" lon="5.33484">
        <ele>552</ele>
        <time>2011-08-15T14:48:18Z</time>
      </trkpt>
      <trkpt lat="45.43324" lon="5.33479">
        <ele>553</ele>
        <time>2011-08-15T14:48:22Z</time>
      </trkpt>
      <trkpt lat="45.43328" lon="5.33474">
        <ele>551</ele>
        <time>2011-08-15T14:48:26Z</time>
      </trkpt>
      <trkpt lat="45.43332" lon="5.33469">
        <ele>551</ele>
        <time>2011-08-15T14:48:30Z</time>
      </trkpt>
      <trkpt lat="45.43335" lon="5.33463">
        <ele>552</ele>
        <time>2011-08-15T14:48:34Z</time>
      </trkpt>
      <trkpt lat="45.43338" lon="5.33457">
        <ele>553</ele>
        <time>2011-08-15T14:48:37Z</time>
      </trkpt>
      <trkpt lat="45.43338" lon="5.3345">
        <ele>553</ele>
        <time>2011-08-15T14:48:40Z</time>
      </trkpt>
      <trkpt lat="45.43336" lon="5.33444">
        <ele>552</ele>
        <time>2011-08-15T14:48:43Z</time>
      </trkpt>
      <trkpt lat="45.43332" lon="5.33437">
        <ele>552</ele>
        <time>2011-08-15T14:48:47Z</time>
      </trkpt>
      <trkpt lat="45.43329" lon="5.33432">
        <ele>552</ele>
        <time>2011-08-15T14:48:51Z</time>
      </trkpt>
      <trkpt lat="45.43327" lon="5.33426">
        <ele>552</ele>
        <time>2011-08-15T14:48:54Z</time>
      </trkpt>
      <trkpt lat="45.43324" lon="5.33418">
        <ele>552</ele>
        <time>2011-08-15T14:48:58Z</time>
      </trkpt>
      <trkpt lat="45.43321" lon="5.33411">
        <ele>552</ele>
        <time>2011-08-15T14:49:02Z</time>
      </trkpt>
      <trkpt lat="45.43317" lon="5.33405">
        <ele>551</ele>
        <time>2011-08-15T14:49:06Z</time>
      </trkpt>
      <trkpt lat="45.43314" lon="5.33398">
        <ele>551</ele>
        <time>2011-08-15T14:49:10Z</time>
      </trkpt>
      <trkpt lat="45.43312" lon="5.3339">
        <ele>550</ele>
        <time>2011-08-15T14:49:14Z</time>
      </trkpt>
      <trkpt lat="45.43312" lon="5.33383">
        <ele>550</ele>
        <time>2011-08-15T14:49:17Z</time>
      </trkpt>
      <trkpt lat="45.43311" lon="5.33375">
        <ele>549</ele>
        <time>2011-08-15T14:49:21Z</time>
      </trkpt>
      <trkpt lat="45.4331" lon="5.33368">
        <ele>549</ele>
        <time>2011-08-15T14:49:24Z</time>
      </trkpt>
      <trkpt lat="45.43309" lon="5.33362">
        <ele>549</ele>
        <time>2011-08-15T14:49:28Z</time>
      </trkpt>
      <trkpt lat="45.43308" lon="5.33355">
        <ele>550</ele>
        <time>2011-08-15T14:49:31Z</time>
      </trkpt>
      <trkpt lat="45.43308" lon="5.33348">
        <ele>550</ele>
        <time>2011-08-15T14:49:34Z</time>
      </trkpt>
      <trkpt lat="45.4331" lon="5.33341">
        <ele>551</ele>
        <time>2011-08-15T14:49:38Z</time>
      </trkpt>
      <trkpt lat="45.43311" lon="5.33334">
        <ele>551</ele>
        <time>2011-08-15T14:49:41Z</time>
      </trkpt>
      <trkpt lat="45.43313" lon="5.33328">
        <ele>552</ele>
        <time>2011-08-15T14:49:44Z</time>
      </trkpt>
      <trkpt lat="45.43315" lon="5.33321">
        <ele>552</ele>
        <time>2011-08-15T14:49:48Z</time>
      </trkpt>
      <trkpt lat="45.43317" lon="5.33315">
        <ele>552</ele>
        <time>2011-08-15T14:49:52Z</time>
      </trkpt>
      <trkpt lat="45.43318" lon="5.33308">
        <ele>552</ele>
        <time>2011-08-15T14:49:55Z</time>
      </trkpt>
      <trkpt lat="45.4332" lon="5.33301">
        <ele>553</ele>
        <time>2011-08-15T14:49:58Z</time>
      </trkpt>
      <trkpt lat="45.43322" lon="5.33293">
        <ele>552</ele>
        <time>2011-08-15T14:50:02Z</time>
      </trkpt>
      <trkpt lat="45.43323" lon="5.33285">
        <ele>551</ele>
        <time>2011-08-15T14:50:05Z</time>
      </trkpt>
      <trkpt lat="45.43324" lon="5.33277">
        <ele>550</ele>
        <time>2011-08-15T14:50:09Z</time>
      </trkpt>
      <trkpt lat="45.43325" lon="5.3327">
        <ele>550</ele>
        <time>2011-08-15T14:50:12Z</time>
      </trkpt>
      <trkpt lat="45.43324" lon="5.33263">
        <ele>550</ele>
        <time>2011-08-15T14:50:16Z</time>
      </trkpt>
      <trkpt lat="45.43325" lon="5.33255">
        <ele>549</ele>
        <time>2011-08-15T14:50:20Z</time>
      </trkpt>
      <trkpt lat="45.43325" lon="5.33248">
        <ele>550</ele>
        <time>2011-08-15T14:50:24Z</time>
      </trkpt>
      <trkpt lat="45.43325" lon="5.33241">
        <ele>550</ele>
        <time>2011-08-15T14:50:27Z</time>
      </trkpt>
      <trkpt lat="45.43325" lon="5.33234">
        <ele>550</ele>
        <time>2011-08-15T14:50:30Z</time>
      </trkpt>
      <trkpt lat="45.43325" lon="5.33226">
        <ele>550</ele>
        <time>2011-08-15T14:50:34Z</time>
      </trkpt>
      <trkpt lat="45.43325" lon="5.33219">
        <ele>550</ele>
        <time>2011-08-15T14:50:37Z</time>
      </trkpt>
      <trkpt lat="45.43325" lon="5.3321">
        <ele>551</ele>
        <time>2011-08-15T14:50:41Z</time>
      </trkpt>
      <trkpt lat="45.43325" lon="5.33203">
        <ele>551</ele>
        <time>2011-08-15T14:50:45Z</time>
      </trkpt>
      <trkpt lat="45.43325" lon="5.33197">
        <ele>550</ele>
        <time>2011-08-15T14:50:48Z</time>
      </trkpt>
      <trkpt lat="45.43325" lon="5.3319">
        <ele>550</ele>
        <time>2011-08-15T14:50:51Z</time>
      </trkpt>
      <trkpt lat="45.43324" lon="5.33183">
        <ele>550</ele>
        <time>2011-08-15T14:50:54Z</time>
      </trkpt>
      <trkpt lat="45.43324" lon="5.33175">
        <ele>550</ele>
        <time>2011-08-15T14:50:58Z</time>
      </trkpt>
      <trkpt lat="45.43323" lon="5.33167">
        <ele>550</ele>
        <time>2011-08-15T14:51:02Z</time>
      </trkpt>
      <trkpt lat="45.43325" lon="5.33159">
        <ele>551</ele>
        <time>2011-08-15T14:51:05Z</time>
      </trkpt>
      <trkpt lat="45.43325" lon="5.33152">
        <ele>552</ele>
        <time>2011-08-15T14:51:09Z</time>
      </trkpt>
      <trkpt lat="45.43324" lon="5.33143">
        <ele>552</ele>
        <time>2011-08-15T14:51:13Z</time>
      </trkpt>
      <trkpt lat="45.43326" lon="5.33135">
        <ele>552</ele>
        <time>2011-08-15T14:51:17Z</time>
      </trkpt>
      <trkpt lat="45.43327" lon="5.33129">
        <ele>552</ele>
        <time>2011-08-15T14:51:20Z</time>
      </trkpt>
      <trkpt lat="45.43329" lon="5.33123">
        <ele>553</ele>
        <time>2011-08-15T14:51:23Z</time>
      </trkpt>
      <trkpt lat="45.4333" lon="5.33116">
        <ele>553</ele>
        <time>2011-08-15T14:51:28Z</time>
      </trkpt>
      <trkpt lat="45.43332" lon="5.33108">
        <ele>553</ele>
        <time>2011-08-15T14:51:32Z</time>
      </trkpt>
      <trkpt lat="45.43331" lon="5.33099">
        <ele>553</ele>
        <time>2011-08-15T14:51:36Z</time>
      </trkpt>
      <trkpt lat="45.43332" lon="5.33093">
        <ele>554</ele>
        <time>2011-08-15T14:51:40Z</time>
      </trkpt>
      <trkpt lat="45.43332" lon="5.33085">
        <ele>553</ele>
        <time>2011-08-15T14:51:44Z</time>
      </trkpt>
      <trkpt lat="45.4333" lon="5.33078">
        <ele>552</ele>
        <time>2011-08-15T14:51:47Z</time>
      </trkpt>
      <trkpt lat="45.43329" lon="5.33071">
        <ele>551</ele>
        <time>2011-08-15T14:51:50Z</time>
      </trkpt>
      <trkpt lat="45.43331" lon="5.33063">
        <ele>552</ele>
        <time>2011-08-15T14:51:54Z</time>
      </trkpt>
      <trkpt lat="45.4333" lon="5.33054">
        <ele>551</ele>
        <time>2011-08-15T14:51:58Z</time>
      </trkpt>
      <trkpt lat="45.4333" lon="5.33045">
        <ele>551</ele>
        <time>2011-08-15T14:52:03Z</time>
      </trkpt>
      <trkpt lat="45.43331" lon="5.33036">
        <ele>551</ele>
        <time>2011-08-15T14:52:07Z</time>
      </trkpt>
      <trkpt lat="45.43331" lon="5.33029">
        <ele>550</ele>
        <time>2011-08-15T14:52:10Z</time>
      </trkpt>
      <trkpt lat="45.43332" lon="5.33023">
        <ele>551</ele>
        <time>2011-08-15T14:52:13Z</time>
      </trkpt>
      <trkpt lat="45.43333" lon="5.33015">
        <ele>552</ele>
        <time>2011-08-15T14:52:17Z</time>
      </trkpt>
      <trkpt lat="45.43334" lon="5.33008">
        <ele>553</ele>
        <time>2011-08-15T14:52:21Z</time>
      </trkpt>
      <trkpt lat="45.43336" lon="5.33001">
        <ele>554</ele>
        <time>2011-08-15T14:52:24Z</time>
      </trkpt>
      <trkpt lat="45.4334" lon="5.32995">
        <ele>554</ele>
        <time>2011-08-15T14:52:27Z</time>
      </trkpt>
      <trkpt lat="45.43341" lon="5.32989">
        <ele>553</ele>
        <time>2011-08-15T14:52:32Z</time>
      </trkpt>
      <trkpt lat="45.43343" lon="5.32983">
        <ele>555</ele>
        <time>2011-08-15T14:52:36Z</time>
      </trkpt>
      <trkpt lat="45.43345" lon="5.32977">
        <ele>554</ele>
        <time>2011-08-15T14:52:40Z</time>
      </trkpt>
      <trkpt lat="45.43347" lon="5.32971">
        <ele>554</ele>
        <time>2011-08-15T14:52:43Z</time>
      </trkpt>
      <trkpt lat="45.43351" lon="5.32965">
        <ele>554</ele>
        <time>2011-08-15T14:52:47Z</time>
      </trkpt>
      <trkpt lat="45.43354" lon="5.3296">
        <ele>553</ele>
        <time>2011-08-15T14:52:50Z</time>
      </trkpt>
      <trkpt lat="45.43358" lon="5.32955">
        <ele>554</ele>
        <time>2011-08-15T14:52:54Z</time>
      </trkpt>
      <trkpt lat="45.43361" lon="5.32947">
        <ele>554</ele>
        <time>2011-08-15T14:52:58Z</time>
      </trkpt>
      <trkpt lat="45.43366" lon="5.32944">
        <ele>554</ele>
        <time>2011-08-15T14:53:01Z</time>
      </trkpt>
      <trkpt lat="45.4337" lon="5.3294">
        <ele>553</ele>
        <time>2011-08-15T14:53:04Z</time>
      </trkpt>
      <trkpt lat="45.43375" lon="5.32942">
        <ele>552</ele>
        <time>2011-08-15T14:53:07Z</time>
      </trkpt>
      <trkpt lat="45.43381" lon="5.32945">
        <ele>550</ele>
        <time>2011-08-15T14:53:12Z</time>
      </trkpt>
      <trkpt lat="45.43387" lon="5.32945">
        <ele>549</ele>
        <time>2011-08-15T14:53:16Z</time>
      </trkpt>
      <trkpt lat="45.43391" lon="5.32942">
        <ele>550</ele>
        <time>2011-08-15T14:53:20Z</time>
      </trkpt>
      <trkpt lat="45.43395" lon="5.32935">
        <ele>550</ele>
        <time>2011-08-15T14:53:27Z</time>
      </trkpt>
      <trkpt lat="45.43399" lon="5.32929">
        <ele>550</ele>
        <time>2011-08-15T14:53:30Z</time>
      </trkpt>
      <trkpt lat="45.43404" lon="5.32924">
        <ele>550</ele>
        <time>2011-08-15T14:53:34Z</time>
      </trkpt>
      <trkpt lat="45.43406" lon="5.32918">
        <ele>550</ele>
        <time>2011-08-15T14:53:38Z</time>
      </trkpt>
      <trkpt lat="45.43407" lon="5.32911">
        <ele>550</ele>
        <time>2011-08-15T14:53:42Z</time>
      </trkpt>
      <trkpt lat="45.43411" lon="5.32907">
        <ele>550</ele>
        <time>2011-08-15T14:53:45Z</time>
      </trkpt>
      <trkpt lat="45.43414" lon="5.32901">
        <ele>551</ele>
        <time>2011-08-15T14:53:48Z</time>
      </trkpt>
      <trkpt lat="45.43418" lon="5.32896">
        <ele>552</ele>
        <time>2011-08-15T14:53:51Z</time>
      </trkpt>
      <trkpt lat="45.43421" lon="5.3289">
        <ele>552</ele>
        <time>2011-08-15T14:53:55Z</time>
      </trkpt>
      <trkpt lat="45.43423" lon="5.32882">
        <ele>551</ele>
        <time>2011-08-15T14:53:59Z</time>
      </trkpt>
      <trkpt lat="45.43424" lon="5.32875">
        <ele>550</ele>
        <time>2011-08-15T14:54:03Z</time>
      </trkpt>
      <trkpt lat="45.43425" lon="5.32868">
        <ele>547</ele>
        <time>2011-08-15T14:54:07Z</time>
      </trkpt>
      <trkpt lat="45.43428" lon="5.32863">
        <ele>547</ele>
        <time>2011-08-15T14:54:10Z</time>
      </trkpt>
      <trkpt lat="45.43431" lon="5.32856">
        <ele>546</ele>
        <time>2011-08-15T14:54:14Z</time>
      </trkpt>
      <trkpt lat="45.43433" lon="5.32849">
        <ele>546</ele>
        <time>2011-08-15T14:54:19Z</time>
      </trkpt>
      <trkpt lat="45.43433" lon="5.3284">
        <ele>547</ele>
        <time>2011-08-15T14:54:22Z</time>
      </trkpt>
      <trkpt lat="45.43436" lon="5.32834">
        <ele>548</ele>
        <time>2011-08-15T14:54:25Z</time>
      </trkpt>
      <trkpt lat="45.4344" lon="5.3283">
        <ele>549</ele>
        <time>2011-08-15T14:54:28Z</time>
      </trkpt>
      <trkpt lat="45.43444" lon="5.32824">
        <ele>548</ele>
        <time>2011-08-15T14:54:31Z</time>
      </trkpt>
      <trkpt lat="45.43449" lon="5.32819">
        <ele>547</ele>
        <time>2011-08-15T14:54:35Z</time>
      </trkpt>
      <trkpt lat="45.43452" lon="5.32814">
        <ele>546</ele>
        <time>2011-08-15T14:54:40Z</time>
      </trkpt>
      <trkpt lat="45.43455" lon="5.32808">
        <ele>546</ele>
        <time>2011-08-15T14:54:44Z</time>
      </trkpt>
      <trkpt lat="45.43459" lon="5.32803">
        <ele>547</ele>
        <time>2011-08-15T14:54:47Z</time>
      </trkpt>
      <trkpt lat="45.43461" lon="5.32795">
        <ele>547</ele>
        <time>2011-08-15T14:54:51Z</time>
      </trkpt>
      <trkpt lat="45.43466" lon="5.3279">
        <ele>548</ele>
        <time>2011-08-15T14:54:54Z</time>
      </trkpt>
      <trkpt lat="45.43469" lon="5.32784">
        <ele>547</ele>
        <time>2011-08-15T14:54:58Z</time>
      </trkpt>
      <trkpt lat="45.4347" lon="5.32777">
        <ele>547</ele>
        <time>2011-08-15T14:55:01Z</time>
      </trkpt>
      <trkpt lat="45.43472" lon="5.3277">
        <ele>548</ele>
        <time>2011-08-15T14:55:06Z</time>
      </trkpt>
      <trkpt lat="45.43473" lon="5.32763">
        <ele>548</ele>
        <time>2011-08-15T14:55:09Z</time>
      </trkpt>
      <trkpt lat="45.43473" lon="5.32755">
        <ele>547</ele>
        <time>2011-08-15T14:55:13Z</time>
      </trkpt>
      <trkpt lat="45.43475" lon="5.32748">
        <ele>548</ele>
        <time>2011-08-15T14:55:17Z</time>
      </trkpt>
      <trkpt lat="45.43478" lon="5.32742">
        <ele>547</ele>
        <time>2011-08-15T14:55:20Z</time>
      </trkpt>
      <trkpt lat="45.43476" lon="5.32733">
        <ele>546</ele>
        <time>2011-08-15T14:55:24Z</time>
      </trkpt>
      <trkpt lat="45.43476" lon="5.32726">
        <ele>545</ele>
        <time>2011-08-15T14:55:28Z</time>
      </trkpt>
      <trkpt lat="45.43476" lon="5.32719">
        <ele>545</ele>
        <time>2011-08-15T14:55:31Z</time>
      </trkpt>
      <trkpt lat="45.43475" lon="5.32712">
        <ele>545</ele>
        <time>2011-08-15T14:55:34Z</time>
      </trkpt>
      <trkpt lat="45.43476" lon="5.32704">
        <ele>545</ele>
        <time>2011-08-15T14:55:38Z</time>
      </trkpt>
      <trkpt lat="45.43476" lon="5.32697">
        <ele>545</ele>
        <time>2011-08-15T14:55:41Z</time>
      </trkpt>
      <trkpt lat="45.43476" lon="5.3269">
        <ele>544</ele>
        <time>2011-08-15T14:55:44Z</time>
      </trkpt>
      <trkpt lat="45.43475" lon="5.32684">
        <ele>545</ele>
        <time>2011-08-15T14:55:47Z</time>
      </trkpt>
      <trkpt lat="45.43476" lon="5.32678">
        <ele>544</ele>
        <time>2011-08-15T14:55:52Z</time>
      </trkpt>
      <trkpt lat="45.43474" lon="5.3267">
        <ele>545</ele>
        <time>2011-08-15T14:55:56Z</time>
      </trkpt>
      <trkpt lat="45.43474" lon="5.32662">
        <ele>545</ele>
        <time>2011-08-15T14:55:59Z</time>
      </trkpt>
      <trkpt lat="45.43474" lon="5.32656">
        <ele>545</ele>
        <time>2011-08-15T14:56:03Z</time>
      </trkpt>
      <trkpt lat="45.43475" lon="5.32649">
        <ele>544</ele>
        <time>2011-08-15T14:56:07Z</time>
      </trkpt>
      <trkpt lat="45.43475" lon="5.32641">
        <ele>544</ele>
        <time>2011-08-15T14:56:11Z</time>
      </trkpt>
      <trkpt lat="45.43476" lon="5.32635">
        <ele>544</ele>
        <time>2011-08-15T14:56:15Z</time>
      </trkpt>
      <trkpt lat="45.43475" lon="5.32627">
        <ele>543</ele>
        <time>2011-08-15T14:56:21Z</time>
      </trkpt>
      <trkpt lat="45.43474" lon="5.3262">
        <ele>542</ele>
        <time>2011-08-15T14:56:25Z</time>
      </trkpt>
      <trkpt lat="45.43473" lon="5.32611">
        <ele>543</ele>
        <time>2011-08-15T14:57:09Z</time>
      </trkpt>
      <trkpt lat="45.43473" lon="5.32603">
        <ele>544</ele>
        <time>2011-08-15T14:57:12Z</time>
      </trkpt>
      <trkpt lat="45.43474" lon="5.32595">
        <ele>543</ele>
        <time>2011-08-15T14:57:14Z</time>
      </trkpt>
      <trkpt lat="45.43473" lon="5.32585">
        <ele>543</ele>
        <time>2011-08-15T14:57:16Z</time>
      </trkpt>
      <trkpt lat="45.43473" lon="5.32577">
        <ele>543</ele>
        <time>2011-08-15T14:57:18Z</time>
      </trkpt>
      <trkpt lat="45.43473" lon="5.3257">
        <ele>544</ele>
        <time>2011-08-15T14:57:21Z</time>
      </trkpt>
      <trkpt lat="45.43473" lon="5.32562">
        <ele>543</ele>
        <time>2011-08-15T14:57:24Z</time>
      </trkpt>
      <trkpt lat="45.43475" lon="5.32555">
        <ele>543</ele>
        <time>2011-08-15T14:57:29Z</time>
      </trkpt>
      <trkpt lat="45.43479" lon="5.3255">
        <ele>541</ele>
        <time>2011-08-15T14:57:33Z</time>
      </trkpt>
      <trkpt lat="45.43484" lon="5.32546">
        <ele>542</ele>
        <time>2011-08-15T14:57:36Z</time>
      </trkpt>
      <trkpt lat="45.43489" lon="5.32542">
        <ele>543</ele>
        <time>2011-08-15T14:57:39Z</time>
      </trkpt>
      <trkpt lat="45.43494" lon="5.32538">
        <ele>544</ele>
        <time>2011-08-15T14:57:43Z</time>
      </trkpt>
      <trkpt lat="45.43498" lon="5.32531">
        <ele>543</ele>
        <time>2011-08-15T14:57:47Z</time>
      </trkpt>
      <trkpt lat="45.43502" lon="5.32524">
        <ele>544</ele>
        <time>2011-08-15T14:57:51Z</time>
      </trkpt>
      <trkpt lat="45.43505" lon="5.32517">
        <ele>544</ele>
        <time>2011-08-15T14:57:55Z</time>
      </trkpt>
      <trkpt lat="45.43509" lon="5.32512">
        <ele>544</ele>
        <time>2011-08-15T14:57:59Z</time>
      </trkpt>
      <trkpt lat="45.4351" lon="5.32504">
        <ele>544</ele>
        <time>2011-08-15T14:58:03Z</time>
      </trkpt>
      <trkpt lat="45.4351" lon="5.32497">
        <ele>544</ele>
        <time>2011-08-15T14:58:06Z</time>
      </trkpt>
      <trkpt lat="45.4351" lon="5.32491">
        <ele>545</ele>
        <time>2011-08-15T14:58:09Z</time>
      </trkpt>
      <trkpt lat="45.43509" lon="5.32484">
        <ele>545</ele>
        <time>2011-08-15T14:58:12Z</time>
      </trkpt>
      <trkpt lat="45.43508" lon="5.32477">
        <ele>545</ele>
        <time>2011-08-15T14:58:16Z</time>
      </trkpt>
      <trkpt lat="45.43506" lon="5.32469">
        <ele>545</ele>
        <time>2011-08-15T14:58:20Z</time>
      </trkpt>
      <trkpt lat="45.43504" lon="5.32462">
        <ele>545</ele>
        <time>2011-08-15T14:58:24Z</time>
      </trkpt>
      <trkpt lat="45.43503" lon="5.32456">
        <ele>545</ele>
        <time>2011-08-15T14:58:28Z</time>
      </trkpt>
      <trkpt lat="45.43505" lon="5.32449">
        <ele>545</ele>
        <time>2011-08-15T14:58:32Z</time>
      </trkpt>
      <trkpt lat="45.43505" lon="5.32443">
        <ele>543</ele>
        <time>2011-08-15T14:58:35Z</time>
      </trkpt>
      <trkpt lat="45.43508" lon="5.32437">
        <ele>545</ele>
        <time>2011-08-15T14:58:38Z</time>
      </trkpt>
      <trkpt lat="45.43511" lon="5.32431">
        <ele>545</ele>
        <time>2011-08-15T14:58:42Z</time>
      </trkpt>
      <trkpt lat="45.43515" lon="5.32427">
        <ele>544</ele>
        <time>2011-08-15T14:58:46Z</time>
      </trkpt>
      <trkpt lat="45.43519" lon="5.32423">
        <ele>544</ele>
        <time>2011-08-15T14:58:50Z</time>
      </trkpt>
      <trkpt lat="45.43524" lon="5.32419">
        <ele>544</ele>
        <time>2011-08-15T14:58:54Z</time>
      </trkpt>
      <trkpt lat="45.4353" lon="5.32418">
        <ele>544</ele>
        <time>2011-08-15T14:58:58Z</time>
      </trkpt>
      <trkpt lat="45.43535" lon="5.32415">
        <ele>544</ele>
        <time>2011-08-15T14:59:02Z</time>
      </trkpt>
      <trkpt lat="45.43539" lon="5.32412">
        <ele>545</ele>
        <time>2011-08-15T14:59:06Z</time>
      </trkpt>
      <trkpt lat="45.43544" lon="5.32408">
        <ele>545</ele>
        <time>2011-08-15T14:59:09Z</time>
      </trkpt>
      <trkpt lat="45.43548" lon="5.32403">
        <ele>546</ele>
        <time>2011-08-15T14:59:12Z</time>
      </trkpt>
      <trkpt lat="45.43551" lon="5.32396">
        <ele>547</ele>
        <time>2011-08-15T14:59:16Z</time>
      </trkpt>
      <trkpt lat="45.43555" lon="5.32392">
        <ele>547</ele>
        <time>2011-08-15T14:59:20Z</time>
      </trkpt>
      <trkpt lat="45.43558" lon="5.32385">
        <ele>548</ele>
        <time>2011-08-15T14:59:24Z</time>
      </trkpt>
      <trkpt lat="45.43563" lon="5.3238">
        <ele>548</ele>
        <time>2011-08-15T14:59:28Z</time>
      </trkpt>
      <trkpt lat="45.43568" lon="5.32375">
        <ele>548</ele>
        <time>2011-08-15T14:59:32Z</time>
      </trkpt>
      <trkpt lat="45.43572" lon="5.32371">
        <ele>548</ele>
        <time>2011-08-15T14:59:36Z</time>
      </trkpt>
      <trkpt lat="45.43577" lon="5.32367">
        <ele>548</ele>
        <time>2011-08-15T14:59:40Z</time>
      </trkpt>
      <trkpt lat="45.43582" lon="5.32362">
        <ele>549</ele>
        <time>2011-08-15T14:59:44Z</time>
      </trkpt>
      <trkpt lat="45.43585" lon="5.32356">
        <ele>549</ele>
        <time>2011-08-15T14:59:48Z</time>
      </trkpt>
      <trkpt lat="45.43588" lon="5.32351">
        <ele>549</ele>
        <time>2011-08-15T14:59:51Z</time>
      </trkpt>
      <trkpt lat="45.43592" lon="5.32347">
        <ele>549</ele>
        <time>2011-08-15T14:59:54Z</time>
      </trkpt>
      <trkpt lat="45.43595" lon="5.32342">
        <ele>550</ele>
        <time>2011-08-15T14:59:57Z</time>
      </trkpt>
      <trkpt lat="45.43599" lon="5.32338">
        <ele>549</ele>
        <time>2011-08-15T15:00:00Z</time>
      </trkpt>
      <trkpt lat="45.43603" lon="5.32332">
        <ele>550</ele>
        <time>2011-08-15T15:00:04Z</time>
      </trkpt>
      <trkpt lat="45.43606" lon="5.32327">
        <ele>551</ele>
        <time>2011-08-15T15:00:07Z</time>
      </trkpt>
      <trkpt lat="45.43609" lon="5.3232">
        <ele>553</ele>
        <time>2011-08-15T15:00:10Z</time>
      </trkpt>
      <trkpt lat="45.43614" lon="5.32316">
        <ele>553</ele>
        <time>2011-08-15T15:00:14Z</time>
      </trkpt>
      <trkpt lat="45.43619" lon="5.32312">
        <ele>554</ele>
        <time>2011-08-15T15:00:18Z</time>
      </trkpt>
      <trkpt lat="45.43622" lon="5.32306">
        <ele>553</ele>
        <time>2011-08-15T15:00:22Z</time>
      </trkpt>
      <trkpt lat="45.43626" lon="5.32299">
        <ele>554</ele>
        <time>2011-08-15T15:00:26Z</time>
      </trkpt>
      <trkpt lat="45.4363" lon="5.32295">
        <ele>555</ele>
        <time>2011-08-15T15:00:29Z</time>
      </trkpt>
      <trkpt lat="45.43635" lon="5.32289">
        <ele>555</ele>
        <time>2011-08-15T15:00:33Z</time>
      </trkpt>
      <trkpt lat="45.43638" lon="5.32284">
        <ele>554</ele>
        <time>2011-08-15T15:00:37Z</time>
      </trkpt>
      <trkpt lat="45.43643" lon="5.32281">
        <ele>554</ele>
        <time>2011-08-15T15:00:41Z</time>
      </trkpt>
      <trkpt lat="45.43648" lon="5.32277">
        <ele>554</ele>
        <time>2011-08-15T15:00:44Z</time>
      </trkpt>
      <trkpt lat="45.43652" lon="5.32274">
        <ele>554</ele>
        <time>2011-08-15T15:00:47Z</time>
      </trkpt>
      <trkpt lat="45.43657" lon="5.32269">
        <ele>554</ele>
        <time>2011-08-15T15:00:50Z</time>
      </trkpt>
      <trkpt lat="45.43661" lon="5.32267">
        <ele>554</ele>
        <time>2011-08-15T15:00:53Z</time>
      </trkpt>
      <trkpt lat="45.43666" lon="5.32262">
        <ele>555</ele>
        <time>2011-08-15T15:00:56Z</time>
      </trkpt>
      <trkpt lat="45.4367" lon="5.32258">
        <ele>554</ele>
        <time>2011-08-15T15:01:00Z</time>
      </trkpt>
      <trkpt lat="45.43674" lon="5.32253">
        <ele>554</ele>
        <time>2011-08-15T15:01:03Z</time>
      </trkpt>
      <trkpt lat="45.43678" lon="5.3225">
        <ele>554</ele>
        <time>2011-08-15T15:01:06Z</time>
      </trkpt>
      <trkpt lat="45.43681" lon="5.32243">
        <ele>555</ele>
        <time>2011-08-15T15:01:10Z</time>
      </trkpt>
      <trkpt lat="45.43685" lon="5.32238">
        <ele>555</ele>
        <time>2011-08-15T15:01:13Z</time>
      </trkpt>
      <trkpt lat="45.43688" lon="5.32233">
        <ele>555</ele>
        <time>2011-08-15T15:01:16Z</time>
      </trkpt>
      <trkpt lat="45.43693" lon="5.32228">
        <ele>557</ele>
        <time>2011-08-15T15:01:20Z</time>
      </trkpt>
      <trkpt lat="45.43697" lon="5.32222">
        <ele>557</ele>
        <time>2011-08-15T15:01:24Z</time>
      </trkpt>
      <trkpt lat="45.437" lon="5.32216">
        <ele>556</ele>
        <time>2011-08-15T15:01:29Z</time>
      </trkpt>
      <trkpt lat="45.43704" lon="5.32212">
        <ele>557</ele>
        <time>2011-08-15T15:01:34Z</time>
      </trkpt>
      <trkpt lat="45.43707" lon="5.32206">
        <ele>558</ele>
        <time>2011-08-15T15:01:37Z</time>
      </trkpt>
      <trkpt lat="45.43712" lon="5.32201">
        <ele>558</ele>
        <time>2011-08-15T15:01:41Z</time>
      </trkpt>
      <trkpt lat="45.43716" lon="5.32196">
        <ele>558</ele>
        <time>2011-08-15T15:01:45Z</time>
      </trkpt>
      <trkpt lat="45.43719" lon="5.3219">
        <ele>558</ele>
        <time>2011-08-15T15:01:48Z</time>
      </trkpt>
      <trkpt lat="45.43723" lon="5.32185">
        <ele>558</ele>
        <time>2011-08-15T15:01:51Z</time>
      </trkpt>
      <trkpt lat="45.43727" lon="5.32181">
        <ele>559</ele>
        <time>2011-08-15T15:01:54Z</time>
      </trkpt>
      <trkpt lat="45.43731" lon="5.32176">
        <ele>560</ele>
        <time>2011-08-15T15:01:57Z</time>
      </trkpt>
      <trkpt lat="45.43734" lon="5.32169">
        <ele>562</ele>
        <time>2011-08-15T15:02:02Z</time>
      </trkpt>
      <trkpt lat="45.43733" lon="5.3216">
        <ele>559</ele>
        <time>2011-08-15T15:02:06Z</time>
      </trkpt>
      <trkpt lat="45.4373" lon="5.32154">
        <ele>555</ele>
        <time>2011-08-15T15:02:09Z</time>
      </trkpt>
      <trkpt lat="45.43728" lon="5.32149">
        <ele>554</ele>
        <time>2011-08-15T15:02:12Z</time>
      </trkpt>
      <trkpt lat="45.43725" lon="5.32143">
        <ele>553</ele>
        <time>2011-08-15T15:02:15Z</time>
      </trkpt>
      <trkpt lat="45.43724" lon="5.32135">
        <ele>553</ele>
        <time>2011-08-15T15:02:19Z</time>
      </trkpt>
      <trkpt lat="45.43722" lon="5.32128">
        <ele>551</ele>
        <time>2011-08-15T15:02:23Z</time>
      </trkpt>
      <trkpt lat="45.43719" lon="5.32121">
        <ele>550</ele>
        <time>2011-08-15T15:02:28Z</time>
      </trkpt>
      <trkpt lat="45.43716" lon="5.32114">
        <ele>550</ele>
        <time>2011-08-15T15:02:32Z</time>
      </trkpt>
      <trkpt lat="45.43715" lon="5.32107">
        <ele>550</ele>
        <time>2011-08-15T15:02:36Z</time>
      </trkpt>
      <trkpt lat="45.43711" lon="5.321">
        <ele>549</ele>
        <time>2011-08-15T15:02:40Z</time>
      </trkpt>
      <trkpt lat="45.43708" lon="5.32093">
        <ele>548</ele>
        <time>2011-08-15T15:02:45Z</time>
      </trkpt>
      <trkpt lat="45.43706" lon="5.32086">
        <ele>548</ele>
        <time>2011-08-15T15:02:49Z</time>
      </trkpt>
      <trkpt lat="45.43704" lon="5.32079">
        <ele>546</ele>
        <time>2011-08-15T15:02:53Z</time>
      </trkpt>
      <trkpt lat="45.43703" lon="5.32072">
        <ele>545</ele>
        <time>2011-08-15T15:02:56Z</time>
      </trkpt>
      <trkpt lat="45.43701" lon="5.32066">
        <ele>545</ele>
        <time>2011-08-15T15:03:00Z</time>
      </trkpt>
      <trkpt lat="45.437" lon="5.32057">
        <ele>545</ele>
        <time>2011-08-15T15:03:04Z</time>
      </trkpt>
      <trkpt lat="45.43701" lon="5.3205">
        <ele>547</ele>
        <time>2011-08-15T15:03:09Z</time>
      </trkpt>
      <trkpt lat="45.43705" lon="5.32043">
        <ele>547</ele>
        <time>2011-08-15T15:03:13Z</time>
      </trkpt>
      <trkpt lat="45.43709" lon="5.32039">
        <ele>549</ele>
        <time>2011-08-15T15:03:16Z</time>
      </trkpt>
      <trkpt lat="45.43715" lon="5.32035">
        <ele>549</ele>
        <time>2011-08-15T15:03:19Z</time>
      </trkpt>
      <trkpt lat="45.43718" lon="5.3203">
        <ele>550</ele>
        <time>2011-08-15T15:03:22Z</time>
      </trkpt>
      <trkpt lat="45.43723" lon="5.32022">
        <ele>551</ele>
        <time>2011-08-15T15:03:26Z</time>
      </trkpt>
      <trkpt lat="45.43727" lon="5.3202">
        <ele>551</ele>
        <time>2011-08-15T15:03:29Z</time>
      </trkpt>
      <trkpt lat="45.43731" lon="5.32016">
        <ele>549</ele>
        <time>2011-08-15T15:03:33Z</time>
      </trkpt>
      <trkpt lat="45.43735" lon="5.32012">
        <ele>548</ele>
        <time>2011-08-15T15:03:36Z</time>
      </trkpt>
      <trkpt lat="45.43739" lon="5.32008">
        <ele>548</ele>
        <time>2011-08-15T15:03:47Z</time>
      </trkpt>
      <trkpt lat="45.43742" lon="5.32002">
        <ele>548</ele>
        <time>2011-08-15T15:03:50Z</time>
      </trkpt>
      <trkpt lat="45.43746" lon="5.31996">
        <ele>550</ele>
        <time>2011-08-15T15:03:53Z</time>
      </trkpt>
      <trkpt lat="45.4375" lon="5.31992">
        <ele>551</ele>
        <time>2011-08-15T15:03:56Z</time>
      </trkpt>
      <trkpt lat="45.43753" lon="5.31987">
        <ele>551</ele>
        <time>2011-08-15T15:04:01Z</time>
      </trkpt>
      <trkpt lat="45.43757" lon="5.31982">
        <ele>551</ele>
        <time>2011-08-15T15:04:04Z</time>
      </trkpt>
      <trkpt lat="45.43761" lon="5.31979">
        <ele>552</ele>
        <time>2011-08-15T15:04:07Z</time>
      </trkpt>
      <trkpt lat="45.43764" lon="5.31973">
        <ele>553</ele>
        <time>2011-08-15T15:04:10Z</time>
      </trkpt>
      <trkpt lat="45.4377" lon="5.31969">
        <ele>553</ele>
        <time>2011-08-15T15:04:13Z</time>
      </trkpt>
      <trkpt lat="45.43774" lon="5.31965">
        <ele>553</ele>
        <time>2011-08-15T15:04:17Z</time>
      </trkpt>
      <trkpt lat="45.43778" lon="5.31963">
        <ele>552</ele>
        <time>2011-08-15T15:04:20Z</time>
      </trkpt>
      <trkpt lat="45.43783" lon="5.31959">
        <ele>551</ele>
        <time>2011-08-15T15:04:24Z</time>
      </trkpt>
      <trkpt lat="45.43787" lon="5.31957">
        <ele>551</ele>
        <time>2011-08-15T15:04:27Z</time>
      </trkpt>
      <trkpt lat="45.43791" lon="5.31953">
        <ele>551</ele>
        <time>2011-08-15T15:04:30Z</time>
      </trkpt>
      <trkpt lat="45.43798" lon="5.31954">
        <ele>550</ele>
        <time>2011-08-15T15:04:40Z</time>
      </trkpt>
      <trkpt lat="45.43803" lon="5.31957">
        <ele>550</ele>
        <time>2011-08-15T15:04:44Z</time>
      </trkpt>
      <trkpt lat="45.43808" lon="5.31958">
        <ele>549</ele>
        <time>2011-08-15T15:04:48Z</time>
      </trkpt>
      <trkpt lat="45.43812" lon="5.3196">
        <ele>548</ele>
        <time>2011-08-15T15:04:51Z</time>
      </trkpt>
      <trkpt lat="45.43818" lon="5.3196">
        <ele>547</ele>
        <time>2011-08-15T15:04:56Z</time>
      </trkpt>
      <trkpt lat="45.43823" lon="5.3196">
        <ele>547</ele>
        <time>2011-08-15T15:05:01Z</time>
      </trkpt>
      <trkpt lat="45.43827" lon="5.31962">
        <ele>548</ele>
        <time>2011-08-15T15:05:04Z</time>
      </trkpt>
      <trkpt lat="45.43832" lon="5.31964">
        <ele>548</ele>
        <time>2011-08-15T15:05:08Z</time>
      </trkpt>
      <trkpt lat="45.43837" lon="5.31967">
        <ele>546</ele>
        <time>2011-08-15T15:05:12Z</time>
      </trkpt>
      <trkpt lat="45.43842" lon="5.31968">
        <ele>547</ele>
        <time>2011-08-15T15:05:15Z</time>
      </trkpt>
      <trkpt lat="45.43848" lon="5.31969">
        <ele>548</ele>
        <time>2011-08-15T15:05:18Z</time>
      </trkpt>
      <trkpt lat="45.43853" lon="5.3197">
        <ele>550</ele>
        <time>2011-08-15T15:05:22Z</time>
      </trkpt>
      <trkpt lat="45.43858" lon="5.31969">
        <ele>548</ele>
        <time>2011-08-15T15:05:25Z</time>
      </trkpt>
      <trkpt lat="45.43863" lon="5.3197">
        <ele>549</ele>
        <time>2011-08-15T15:05:28Z</time>
      </trkpt>
      <trkpt lat="45.43868" lon="5.31972">
        <ele>549</ele>
        <time>2011-08-15T15:05:31Z</time>
      </trkpt>
      <trkpt lat="45.43873" lon="5.31973">
        <ele>548</ele>
        <time>2011-08-15T15:05:34Z</time>
      </trkpt>
      <trkpt lat="45.43877" lon="5.31978">
        <ele>547</ele>
        <time>2011-08-15T15:05:38Z</time>
      </trkpt>
      <trkpt lat="45.43882" lon="5.31981">
        <ele>547</ele>
        <time>2011-08-15T15:05:42Z</time>
      </trkpt>
      <trkpt lat="45.43887" lon="5.31986">
        <ele>547</ele>
        <time>2011-08-15T15:05:46Z</time>
      </trkpt>
      <trkpt lat="45.43892" lon="5.3199">
        <ele>549</ele>
        <time>2011-08-15T15:05:51Z</time>
      </trkpt>
      <trkpt lat="45.43896" lon="5.31996">
        <ele>550</ele>
        <time>2011-08-15T15:05:54Z</time>
      </trkpt>
      <trkpt lat="45.43902" lon="5.32">
        <ele>550</ele>
        <time>2011-08-15T15:05:58Z</time>
      </trkpt>
      <trkpt lat="45.43907" lon="5.32005">
        <ele>551</ele>
        <time>2011-08-15T15:06:02Z</time>
      </trkpt>
      <trkpt lat="45.4391" lon="5.3201">
        <ele>551</ele>
        <time>2011-08-15T15:06:06Z</time>
      </trkpt>
      <trkpt lat="45.43914" lon="5.32013">
        <ele>551</ele>
        <time>2011-08-15T15:06:09Z</time>
      </trkpt>
      <trkpt lat="45.43918" lon="5.32019">
        <ele>551</ele>
        <time>2011-08-15T15:06:14Z</time>
      </trkpt>
      <trkpt lat="45.43924" lon="5.32022">
        <ele>551</ele>
        <time>2011-08-15T15:06:18Z</time>
      </trkpt>
      <trkpt lat="45.43928" lon="5.32026">
        <ele>551</ele>
        <time>2011-08-15T15:06:21Z</time>
      </trkpt>
      <trkpt lat="45.43931" lon="5.32031">
        <ele>551</ele>
        <time>2011-08-15T15:06:26Z</time>
      </trkpt>
      <trkpt lat="45.43935" lon="5.32036">
        <ele>550</ele>
        <time>2011-08-15T15:06:30Z</time>
      </trkpt>
      <trkpt lat="45.43939" lon="5.32041">
        <ele>548</ele>
        <time>2011-08-15T15:06:33Z</time>
      </trkpt>
      <trkpt lat="45.43942" lon="5.32047">
        <ele>548</ele>
        <time>2011-08-15T15:06:36Z</time>
      </trkpt>
      <trkpt lat="45.43947" lon="5.32055">
        <ele>550</ele>
        <time>2011-08-15T15:06:41Z</time>
      </trkpt>
      <trkpt lat="45.43953" lon="5.32057">
        <ele>550</ele>
        <time>2011-08-15T15:06:45Z</time>
      </trkpt>
      <trkpt lat="45.43956" lon="5.32063">
        <ele>551</ele>
        <time>2011-08-15T15:06:49Z</time>
      </trkpt>
      <trkpt lat="45.4396" lon="5.32068">
        <ele>551</ele>
        <time>2011-08-15T15:06:55Z</time>
      </trkpt>
      <trkpt lat="45.43964" lon="5.32072">
        <ele>551</ele>
        <time>2011-08-15T15:06:58Z</time>
      </trkpt>
      <trkpt lat="45.43968" lon="5.32077">
        <ele>551</ele>
        <time>2011-08-15T15:07:02Z</time>
      </trkpt>
      <trkpt lat="45.43973" lon="5.32082">
        <ele>553</ele>
        <time>2011-08-15T15:07:06Z</time>
      </trkpt>
      <trkpt lat="45.43975" lon="5.32089">
        <ele>553</ele>
        <time>2011-08-15T15:07:10Z</time>
      </trkpt>
      <trkpt lat="45.43978" lon="5.32095">
        <ele>553</ele>
        <time>2011-08-15T15:07:14Z</time>
      </trkpt>
      <trkpt lat="45.43981" lon="5.32102">
        <ele>553</ele>
        <time>2011-08-15T15:07:18Z</time>
      </trkpt>
      <trkpt lat="45.43985" lon="5.32108">
        <ele>552</ele>
        <time>2011-08-15T15:07:21Z</time>
      </trkpt>
      <trkpt lat="45.43988" lon="5.32114">
        <ele>551</ele>
        <time>2011-08-15T15:07:24Z</time>
      </trkpt>
      <trkpt lat="45.43994" lon="5.32116">
        <ele>553</ele>
        <time>2011-08-15T15:07:28Z</time>
      </trkpt>
      <trkpt lat="45.43997" lon="5.32122">
        <ele>554</ele>
        <time>2011-08-15T15:07:32Z</time>
      </trkpt>
      <trkpt lat="45.44002" lon="5.32124">
        <ele>554</ele>
        <time>2011-08-15T15:07:35Z</time>
      </trkpt>
      <trkpt lat="45.44006" lon="5.32126">
        <ele>555</ele>
        <time>2011-08-15T15:07:40Z</time>
      </trkpt>
      <trkpt lat="45.44009" lon="5.32131">
        <ele>555</ele>
        <time>2011-08-15T15:07:45Z</time>
      </trkpt>
      <trkpt lat="45.44014" lon="5.32136">
        <ele>556</ele>
        <time>2011-08-15T15:07:49Z</time>
      </trkpt>
      <trkpt lat="45.44019" lon="5.32142">
        <ele>556</ele>
        <time>2011-08-15T15:07:55Z</time>
      </trkpt>
      <trkpt lat="45.44022" lon="5.32146">
        <ele>557</ele>
        <time>2011-08-15T15:08:01Z</time>
      </trkpt>
      <trkpt lat="45.44028" lon="5.3215">
        <ele>556</ele>
        <time>2011-08-15T15:08:06Z</time>
      </trkpt>
      <trkpt lat="45.44033" lon="5.32152">
        <ele>557</ele>
        <time>2011-08-15T15:08:10Z</time>
      </trkpt>
      <trkpt lat="45.44036" lon="5.32156">
        <ele>557</ele>
        <time>2011-08-15T15:08:13Z</time>
      </trkpt>
      <trkpt lat="45.44041" lon="5.32158">
        <ele>558</ele>
        <time>2011-08-15T15:08:20Z</time>
      </trkpt>
      <trkpt lat="45.44041" lon="5.32158">
        <ele>558</ele>
        <time>2011-08-15T15:08:20Z</time>
      </trkpt>
      <trkpt lat="45.44041" lon="5.32158">
        <ele>558</ele>
        <time>2011-08-15T15:08:23Z</time>
      </trkpt>
      <trkpt lat="45.44044" lon="5.32151">
        <ele>556</ele>
        <time>2011-08-15T15:10:08Z</time>
      </trkpt>
      <trkpt lat="45.44045" lon="5.32144">
        <ele>555</ele>
        <time>2011-08-15T15:10:13Z</time>
      </trkpt>
      <trkpt lat="45.4404" lon="5.32147">
        <ele>557</ele>
        <time>2011-08-15T15:12:41Z</time>
      </trkpt>
      <trkpt lat="45.44039" lon="5.32154">
        <ele>558</ele>
        <time>2011-08-15T15:12:45Z</time>
      </trkpt>
      <trkpt lat="45.44039" lon="5.32154">
        <ele>558</ele>
        <time>2011-08-15T15:12:45Z</time>
      </trkpt>
      <trkpt lat="45.44039" lon="5.32154">
        <ele>557</ele>
        <time>2011-08-15T15:13:00Z</time>
      </trkpt>
      <trkpt lat="45.44043" lon="5.32153">
        <ele>567</ele>
        <time>2011-08-15T15:18:31Z</time>
      </trkpt>
      <trkpt lat="45.44046" lon="5.32146">
        <ele>567</ele>
        <time>2011-08-15T15:18:38Z</time>
      </trkpt>
      <trkpt lat="45.44044" lon="5.3214">
        <ele>566</ele>
        <time>2011-08-15T15:18:44Z</time>
      </trkpt>
      <trkpt lat="45.44044" lon="5.3214">
        <ele>566</ele>
        <time>2011-08-15T15:18:44Z</time>
      </trkpt>
      <trkpt lat="45.44044" lon="5.3214">
        <ele>566</ele>
        <time>2011-08-15T15:18:46Z</time>
      </trkpt>
      <trkpt lat="45.4404" lon="5.32142">
        <ele>562</ele>
        <time>2011-08-15T15:19:00Z</time>
      </trkpt>
      <trkpt lat="45.44038" lon="5.32147">
        <ele>563</ele>
        <time>2011-08-15T15:19:05Z</time>
      </trkpt>
      <trkpt lat="45.4404" lon="5.32154">
        <ele>562</ele>
        <time>2011-08-15T15:19:12Z</time>
      </trkpt>
      <trkpt lat="45.44041" lon="5.32161">
        <ele>563</ele>
        <time>2011-08-15T15:19:17Z</time>
      </trkpt>
      <trkpt lat="45.44041" lon="5.32161">
        <ele>563</ele>
        <time>2011-08-15T15:19:17Z</time>
      </trkpt>
      <trkpt lat="45.44041" lon="5.32161">
        <ele>563</ele>
        <time>2011-08-15T15:19:26Z</time>
      </trkpt>
      <trkpt lat="45.44046" lon="5.3216">
        <ele>562</ele>
        <time>2011-08-15T15:19:35Z</time>
      </trkpt>
      <trkpt lat="45.44046" lon="5.3216">
        <ele>562</ele>
        <time>2011-08-15T15:19:35Z</time>
      </trkpt>
      <trkpt lat="45.44046" lon="5.3216">
        <ele>562</ele>
        <time>2011-08-15T15:21:11Z</time>
      </trkpt>
      <trkpt lat="45.44041" lon="5.32165">
        <ele>561</ele>
        <time>2011-08-15T15:21:14Z</time>
      </trkpt>
      <trkpt lat="45.44041" lon="5.32165">
        <ele>561</ele>
        <time>2011-08-15T15:21:14Z</time>
      </trkpt>
      <trkpt lat="45.44041" lon="5.32165">
        <ele>561</ele>
        <time>2011-08-15T15:21:16Z</time>
      </trkpt>
      <trkpt lat="45.44043" lon="5.32158">
        <ele>562</ele>
        <time>2011-08-15T15:22:08Z</time>
      </trkpt>
      <trkpt lat="45.4404" lon="5.32153">
        <ele>564</ele>
        <time>2011-08-15T15:22:23Z</time>
      </trkpt>
      <trkpt lat="45.44042" lon="5.32159">
        <ele>566</ele>
        <time>2011-08-15T15:23:01Z</time>
      </trkpt>
      <trkpt lat="45.44041" lon="5.32166">
        <ele>566</ele>
        <time>2011-08-15T15:23:04Z</time>
      </trkpt>
      <trkpt lat="45.44043" lon="5.32159">
        <ele>569</ele>
        <time>2011-08-15T15:23:30Z</time>
      </trkpt>
      <trkpt lat="45.44043" lon="5.32159">
        <ele>569</ele>
        <time>2011-08-15T15:23:30Z</time>
      </trkpt>
      <trkpt lat="45.44043" lon="5.32159">
        <ele>566</ele>
        <time>2011-08-15T15:34:34Z</time>
      </trkpt>
      <trkpt lat="45.44047" lon="5.32164">
        <ele>562</ele>
        <time>2011-08-15T15:34:46Z</time>
      </trkpt>
      <trkpt lat="45.44047" lon="5.32164">
        <ele>562</ele>
        <time>2011-08-15T15:34:46Z</time>
      </trkpt>
      <trkpt lat="45.44047" lon="5.32164">
        <ele>561</ele>
        <time>2011-08-15T15:34:49Z</time>
      </trkpt>
      <trkpt lat="45.44042" lon="5.32164">
        <ele>559</ele>
        <time>2011-08-15T15:35:24Z</time>
      </trkpt>
      <trkpt lat="45.44042" lon="5.32164">
        <ele>559</ele>
        <time>2011-08-15T15:35:24Z</time>
      </trkpt>
      <trkpt lat="45.44042" lon="5.32164">
        <ele>559</ele>
        <time>2011-08-15T15:35:48Z</time>
      </trkpt>
      <trkpt lat="45.44046" lon="5.32169">
        <ele>559</ele>
        <time>2011-08-15T15:36:50Z</time>
      </trkpt>
      <trkpt lat="45.4405" lon="5.32172">
        <ele>558</ele>
        <time>2011-08-15T15:36:54Z</time>
      </trkpt>
      <trkpt lat="45.44054" lon="5.32176">
        <ele>559</ele>
        <time>2011-08-15T15:36:57Z</time>
      </trkpt>
      <trkpt lat="45.44058" lon="5.32181">
        <ele>560</ele>
        <time>2011-08-15T15:37:03Z</time>
      </trkpt>
      <trkpt lat="45.44063" lon="5.32184">
        <ele>559</ele>
        <time>2011-08-15T15:37:07Z</time>
      </trkpt>
      <trkpt lat="45.44068" lon="5.32188">
        <ele>561</ele>
        <time>2011-08-15T15:37:11Z</time>
      </trkpt>
      <trkpt lat="45.44074" lon="5.3219">
        <ele>561</ele>
        <time>2011-08-15T15:37:16Z</time>
      </trkpt>
      <trkpt lat="45.44079" lon="5.32192">
        <ele>561</ele>
        <time>2011-08-15T15:37:20Z</time>
      </trkpt>
      <trkpt lat="45.44083" lon="5.32196">
        <ele>561</ele>
        <time>2011-08-15T15:37:24Z</time>
      </trkpt>
      <trkpt lat="45.44088" lon="5.32197">
        <ele>561</ele>
        <time>2011-08-15T15:37:28Z</time>
      </trkpt>
      <trkpt lat="45.44093" lon="5.32198">
        <ele>562</ele>
        <time>2011-08-15T15:37:32Z</time>
      </trkpt>
      <trkpt lat="45.44098" lon="5.32202">
        <ele>561</ele>
        <time>2011-08-15T15:37:37Z</time>
      </trkpt>
      <trkpt lat="45.44103" lon="5.32206">
        <ele>561</ele>
        <time>2011-08-15T15:37:43Z</time>
      </trkpt>
      <trkpt lat="45.44108" lon="5.32208">
        <ele>561</ele>
        <time>2011-08-15T15:37:48Z</time>
      </trkpt>
      <trkpt lat="45.44113" lon="5.3221">
        <ele>561</ele>
        <time>2011-08-15T15:37:52Z</time>
      </trkpt>
      <trkpt lat="45.44117" lon="5.32214">
        <ele>562</ele>
        <time>2011-08-15T15:37:56Z</time>
      </trkpt>
      <trkpt lat="45.44122" lon="5.32218">
        <ele>560</ele>
        <time>2011-08-15T15:38:01Z</time>
      </trkpt>
      <trkpt lat="45.44127" lon="5.32222">
        <ele>560</ele>
        <time>2011-08-15T15:38:04Z</time>
      </trkpt>
      <trkpt lat="45.44132" lon="5.32226">
        <ele>558</ele>
        <time>2011-08-15T15:38:08Z</time>
      </trkpt>
      <trkpt lat="45.44136" lon="5.32231">
        <ele>558</ele>
        <time>2011-08-15T15:38:10Z</time>
      </trkpt>
      <trkpt lat="45.4414" lon="5.32232">
        <ele>558</ele>
        <time>2011-08-15T15:38:13Z</time>
      </trkpt>
      <trkpt lat="45.44144" lon="5.32237">
        <ele>558</ele>
        <time>2011-08-15T15:38:17Z</time>
      </trkpt>
      <trkpt lat="45.44147" lon="5.32241">
        <ele>559</ele>
        <time>2011-08-15T15:38:20Z</time>
      </trkpt>
      <trkpt lat="45.44152" lon="5.32247">
        <ele>558</ele>
        <time>2011-08-15T15:38:24Z</time>
      </trkpt>
      <trkpt lat="45.44157" lon="5.3225">
        <ele>560</ele>
        <time>2011-08-15T15:38:29Z</time>
      </trkpt>
      <trkpt lat="45.44161" lon="5.32254">
        <ele>559</ele>
        <time>2011-08-15T15:38:33Z</time>
      </trkpt>
      <trkpt lat="45.44166" lon="5.32256">
        <ele>559</ele>
        <time>2011-08-15T15:38:37Z</time>
      </trkpt>
      <trkpt lat="45.4417" lon="5.3226">
        <ele>561</ele>
        <time>2011-08-15T15:38:39Z</time>
      </trkpt>
      <trkpt lat="45.44173" lon="5.32264">
        <ele>562</ele>
        <time>2011-08-15T15:38:42Z</time>
      </trkpt>
      <trkpt lat="45.44177" lon="5.32268">
        <ele>563</ele>
        <time>2011-08-15T15:38:45Z</time>
      </trkpt>
      <trkpt lat="45.44181" lon="5.32272">
        <ele>565</ele>
        <time>2011-08-15T15:38:49Z</time>
      </trkpt>
      <trkpt lat="45.44186" lon="5.32278">
        <ele>567</ele>
        <time>2011-08-15T15:38:53Z</time>
      </trkpt>
      <trkpt lat="45.44189" lon="5.32284">
        <ele>567</ele>
        <time>2011-08-15T15:38:57Z</time>
      </trkpt>
      <trkpt lat="45.44193" lon="5.32289">
        <ele>566</ele>
        <time>2011-08-15T15:39:01Z</time>
      </trkpt>
      <trkpt lat="45.44196" lon="5.32294">
        <ele>567</ele>
        <time>2011-08-15T15:39:05Z</time>
      </trkpt>
      <trkpt lat="45.44201" lon="5.32299">
        <ele>567</ele>
        <time>2011-08-15T15:39:09Z</time>
      </trkpt>
      <trkpt lat="45.44203" lon="5.32305">
        <ele>569</ele>
        <time>2011-08-15T15:39:13Z</time>
      </trkpt>
      <trkpt lat="45.44207" lon="5.3231">
        <ele>570</ele>
        <time>2011-08-15T15:39:17Z</time>
      </trkpt>
      <trkpt lat="45.44211" lon="5.32316">
        <ele>571</ele>
        <time>2011-08-15T15:39:22Z</time>
      </trkpt>
      <trkpt lat="45.44214" lon="5.32322">
        <ele>571</ele>
        <time>2011-08-15T15:39:25Z</time>
      </trkpt>
      <trkpt lat="45.44217" lon="5.32327">
        <ele>571</ele>
        <time>2011-08-15T15:39:29Z</time>
      </trkpt>
      <trkpt lat="45.4422" lon="5.32334">
        <ele>571</ele>
        <time>2011-08-15T15:39:33Z</time>
      </trkpt>
      <trkpt lat="45.44223" lon="5.3234">
        <ele>571</ele>
        <time>2011-08-15T15:39:37Z</time>
      </trkpt>
      <trkpt lat="45.44227" lon="5.32346">
        <ele>570</ele>
        <time>2011-08-15T15:39:41Z</time>
      </trkpt>
      <trkpt lat="45.4423" lon="5.32352">
        <ele>571</ele>
        <time>2011-08-15T15:39:45Z</time>
      </trkpt>
      <trkpt lat="45.44235" lon="5.32356">
        <ele>570</ele>
        <time>2011-08-15T15:39:49Z</time>
      </trkpt>
      <trkpt lat="45.44239" lon="5.32361">
        <ele>571</ele>
        <time>2011-08-15T15:39:52Z</time>
      </trkpt>
      <trkpt lat="45.44242" lon="5.32366">
        <ele>570</ele>
        <time>2011-08-15T15:39:56Z</time>
      </trkpt>
      <trkpt lat="45.44246" lon="5.32372">
        <ele>570</ele>
        <time>2011-08-15T15:40:00Z</time>
      </trkpt>
      <trkpt lat="45.44248" lon="5.32379">
        <ele>570</ele>
        <time>2011-08-15T15:40:04Z</time>
      </trkpt>
      <trkpt lat="45.44252" lon="5.32384">
        <ele>570</ele>
        <time>2011-08-15T15:40:08Z</time>
      </trkpt>
      <trkpt lat="45.44522" lon="5.32991">
        <ele>570</ele>
        <time>2011-08-15T15:47:08Z</time>
      </trkpt>
      <trkpt lat="45.44526" lon="5.32995">
        <ele>570</ele>
        <time>2011-08-15T15:47:09Z</time>
      </trkpt>
      <trkpt lat="45.44526" lon="5.32995">
        <ele>570</ele>
        <time>2011-08-15T15:47:09Z</time>
      </trkpt>
      <trkpt lat="45.44526" lon="5.32995">
        <ele>570</ele>
        <time>2011-08-15T15:47:15Z</time>
      </trkpt>
      <trkpt lat="45.44544" lon="5.33002">
        <ele>570</ele>
        <time>2011-08-15T15:47:18Z</time>
      </trkpt>
      <trkpt lat="45.44549" lon="5.33004">
        <ele>570</ele>
        <time>2011-08-15T15:47:20Z</time>
      </trkpt>
      <trkpt lat="45.44554" lon="5.33008">
        <ele>570</ele>
        <time>2011-08-15T15:47:21Z</time>
      </trkpt>
      <trkpt lat="45.44558" lon="5.33007">
        <ele>570</ele>
        <time>2011-08-15T15:47:25Z</time>
      </trkpt>
      <trkpt lat="45.44563" lon="5.33008">
        <ele>570</ele>
        <time>2011-08-15T15:47:27Z</time>
      </trkpt>
      <trkpt lat="45.44568" lon="5.33008">
        <ele>570</ele>
        <time>2011-08-15T15:47:44Z</time>
      </trkpt>
      <trkpt lat="45.44575" lon="5.33008">
        <ele>571</ele>
        <time>2011-08-15T15:47:47Z</time>
      </trkpt>
      <trkpt lat="45.44582" lon="5.3301">
        <ele>571</ele>
        <time>2011-08-15T15:47:50Z</time>
      </trkpt>
      <trkpt lat="45.44587" lon="5.3301">
        <ele>571</ele>
        <time>2011-08-15T15:47:53Z</time>
      </trkpt>
      <trkpt lat="45.44592" lon="5.33011">
        <ele>571</ele>
        <time>2011-08-15T15:47:58Z</time>
      </trkpt>
      <trkpt lat="45.44596" lon="5.33013">
        <ele>571</ele>
        <time>2011-08-15T15:48:00Z</time>
      </trkpt>
      <trkpt lat="45.446" lon="5.33018">
        <ele>573</ele>
        <time>2011-08-15T15:48:03Z</time>
      </trkpt>
      <trkpt lat="45.44604" lon="5.33021">
        <ele>573</ele>
        <time>2011-08-15T15:48:05Z</time>
      </trkpt>
      <trkpt lat="45.44608" lon="5.33025">
        <ele>574</ele>
        <time>2011-08-15T15:48:07Z</time>
      </trkpt>
      <trkpt lat="45.44611" lon="5.33031">
        <ele>574</ele>
        <time>2011-08-15T15:48:12Z</time>
      </trkpt>
      <trkpt lat="45.44611" lon="5.33031">
        <ele>574</ele>
        <time>2011-08-15T15:48:12Z</time>
      </trkpt>
      <trkpt lat="45.44611" lon="5.33031">
        <ele>574</ele>
        <time>2011-08-15T15:48:13Z</time>
      </trkpt>
      <trkpt lat="45.44615" lon="5.33034">
        <ele>575</ele>
        <time>2011-08-15T15:48:43Z</time>
      </trkpt>
      <trkpt lat="45.4462" lon="5.33039">
        <ele>576</ele>
        <time>2011-08-15T15:48:46Z</time>
      </trkpt>
      <trkpt lat="45.44622" lon="5.33044">
        <ele>576</ele>
        <time>2011-08-15T15:48:50Z</time>
      </trkpt>
      <trkpt lat="45.44626" lon="5.3305">
        <ele>576</ele>
        <time>2011-08-15T15:48:54Z</time>
      </trkpt>
      <trkpt lat="45.44629" lon="5.33056">
        <ele>577</ele>
        <time>2011-08-15T15:48:58Z</time>
      </trkpt>
      <trkpt lat="45.44631" lon="5.33061">
        <ele>578</ele>
        <time>2011-08-15T15:49:02Z</time>
      </trkpt>
      <trkpt lat="45.44636" lon="5.33066">
        <ele>580</ele>
        <time>2011-08-15T15:49:07Z</time>
      </trkpt>
      <trkpt lat="45.4464" lon="5.33071">
        <ele>581</ele>
        <time>2011-08-15T15:49:10Z</time>
      </trkpt>
      <trkpt lat="45.44644" lon="5.33077">
        <ele>581</ele>
        <time>2011-08-15T15:49:15Z</time>
      </trkpt>
      <trkpt lat="45.44648" lon="5.33083">
        <ele>581</ele>
        <time>2011-08-15T15:49:19Z</time>
      </trkpt>
      <trkpt lat="45.44651" lon="5.33088">
        <ele>582</ele>
        <time>2011-08-15T15:49:23Z</time>
      </trkpt>
      <trkpt lat="45.44655" lon="5.33092">
        <ele>582</ele>
        <time>2011-08-15T15:49:27Z</time>
      </trkpt>
      <trkpt lat="45.44656" lon="5.331">
        <ele>584</ele>
        <time>2011-08-15T15:49:31Z</time>
      </trkpt>
      <trkpt lat="45.4466" lon="5.33104">
        <ele>584</ele>
        <time>2011-08-15T15:49:34Z</time>
      </trkpt>
      <trkpt lat="45.44665" lon="5.33106">
        <ele>584</ele>
        <time>2011-08-15T15:49:37Z</time>
      </trkpt>
      <trkpt lat="45.44666" lon="5.33112">
        <ele>584</ele>
        <time>2011-08-15T15:49:41Z</time>
      </trkpt>
      <trkpt lat="45.4467" lon="5.33116">
        <ele>585</ele>
        <time>2011-08-15T15:49:44Z</time>
      </trkpt>
      <trkpt lat="45.44674" lon="5.3312">
        <ele>585</ele>
        <time>2011-08-15T15:49:47Z</time>
      </trkpt>
      <trkpt lat="45.4468" lon="5.33123">
        <ele>586</ele>
        <time>2011-08-15T15:49:52Z</time>
      </trkpt>
      <trkpt lat="45.44683" lon="5.33117">
        <ele>588</ele>
        <time>2011-08-15T15:49:59Z</time>
      </trkpt>
      <trkpt lat="45.44688" lon="5.33109">
        <ele>589</ele>
        <time>2011-08-15T15:50:03Z</time>
      </trkpt>
      <trkpt lat="45.44692" lon="5.33104">
        <ele>589</ele>
        <time>2011-08-15T15:50:07Z</time>
      </trkpt>
      <trkpt lat="45.44696" lon="5.331">
        <ele>588</ele>
        <time>2011-08-15T15:50:11Z</time>
      </trkpt>
      <trkpt lat="45.44701" lon="5.33094">
        <ele>588</ele>
        <time>2011-08-15T15:50:15Z</time>
      </trkpt>
      <trkpt lat="45.44705" lon="5.33089">
        <ele>589</ele>
        <time>2011-08-15T15:50:21Z</time>
      </trkpt>
      <trkpt lat="45.44706" lon="5.33081">
        <ele>589</ele>
        <time>2011-08-15T15:50:25Z</time>
      </trkpt>
      <trkpt lat="45.44711" lon="5.33078">
        <ele>589</ele>
        <time>2011-08-15T15:50:29Z</time>
      </trkpt>
      <trkpt lat="45.44716" lon="5.33077">
        <ele>591</ele>
        <time>2011-08-15T15:50:32Z</time>
      </trkpt>
      <trkpt lat="45.44721" lon="5.33077">
        <ele>591</ele>
        <time>2011-08-15T15:50:35Z</time>
      </trkpt>
      <trkpt lat="45.44726" lon="5.33074">
        <ele>592</ele>
        <time>2011-08-15T15:50:38Z</time>
      </trkpt>
      <trkpt lat="45.44731" lon="5.33074">
        <ele>592</ele>
        <time>2011-08-15T15:50:43Z</time>
      </trkpt>
      <trkpt lat="45.44736" lon="5.33074">
        <ele>593</ele>
        <time>2011-08-15T15:50:48Z</time>
      </trkpt>
      <trkpt lat="45.44741" lon="5.33076">
        <ele>593</ele>
        <time>2011-08-15T15:50:53Z</time>
      </trkpt>
      <trkpt lat="45.44745" lon="5.33079">
        <ele>593</ele>
        <time>2011-08-15T15:50:56Z</time>
      </trkpt>
      <trkpt lat="45.44754" lon="5.33086">
        <ele>597</ele>
        <time>2011-08-15T15:52:03Z</time>
      </trkpt>
      <trkpt lat="45.4476" lon="5.33094">
        <ele>598</ele>
        <time>2011-08-15T15:52:05Z</time>
      </trkpt>
      <trkpt lat="45.44764" lon="5.33098">
        <ele>598</ele>
        <time>2011-08-15T15:52:07Z</time>
      </trkpt>
      <trkpt lat="45.44768" lon="5.33102">
        <ele>599</ele>
        <time>2011-08-15T15:52:09Z</time>
      </trkpt>
      <trkpt lat="45.44772" lon="5.33106">
        <ele>599</ele>
        <time>2011-08-15T15:52:11Z</time>
      </trkpt>
      <trkpt lat="45.44779" lon="5.3311">
        <ele>599</ele>
        <time>2011-08-15T15:52:13Z</time>
      </trkpt>
      <trkpt lat="45.44785" lon="5.3312">
        <ele>599</ele>
        <time>2011-08-15T15:52:17Z</time>
      </trkpt>
      <trkpt lat="45.44793" lon="5.33118">
        <ele>599</ele>
        <time>2011-08-15T15:52:19Z</time>
      </trkpt>
      <trkpt lat="45.44798" lon="5.33122">
        <ele>599</ele>
        <time>2011-08-15T15:52:21Z</time>
      </trkpt>
      <trkpt lat="45.44802" lon="5.33125">
        <ele>600</ele>
        <time>2011-08-15T15:52:23Z</time>
      </trkpt>
      <trkpt lat="45.44807" lon="5.33127">
        <ele>601</ele>
        <time>2011-08-15T15:52:26Z</time>
      </trkpt>
      <trkpt lat="45.4481" lon="5.33132">
        <ele>602</ele>
        <time>2011-08-15T15:52:30Z</time>
      </trkpt>
      <trkpt lat="45.44816" lon="5.33136">
        <ele>602</ele>
        <time>2011-08-15T15:52:35Z</time>
      </trkpt>
      <trkpt lat="45.4482" lon="5.33143">
        <ele>606</ele>
        <time>2011-08-15T15:52:45Z</time>
      </trkpt>
      <trkpt lat="45.44824" lon="5.33144">
        <ele>609</ele>
        <time>2011-08-15T15:52:49Z</time>
      </trkpt>
      <trkpt lat="45.4483" lon="5.33146">
        <ele>610</ele>
        <time>2011-08-15T15:52:53Z</time>
      </trkpt>
      <trkpt lat="45.44836" lon="5.3315">
        <ele>612</ele>
        <time>2011-08-15T15:52:55Z</time>
      </trkpt>
      <trkpt lat="45.44841" lon="5.3315">
        <ele>610</ele>
        <time>2011-08-15T15:52:58Z</time>
      </trkpt>
      <trkpt lat="45.44846" lon="5.3315">
        <ele>612</ele>
        <time>2011-08-15T15:53:00Z</time>
      </trkpt>
      <trkpt lat="45.44846" lon="5.3315">
        <ele>612</ele>
        <time>2011-08-15T15:53:00Z</time>
      </trkpt>
      <trkpt lat="45.44846" lon="5.3315">
        <ele>617</ele>
        <time>2011-08-15T15:53:06Z</time>
      </trkpt>
      <trkpt lat="45.44853" lon="5.33148">
        <ele>620</ele>
        <time>2011-08-15T15:53:09Z</time>
      </trkpt>
      <trkpt lat="45.44858" lon="5.3315">
        <ele>623</ele>
        <time>2011-08-15T15:53:18Z</time>
      </trkpt>
      <trkpt lat="45.44864" lon="5.33149">
        <ele>625</ele>
        <time>2011-08-15T15:53:27Z</time>
      </trkpt>
      <trkpt lat="45.4487" lon="5.33148">
        <ele>627</ele>
        <time>2011-08-15T15:53:33Z</time>
      </trkpt>
      <trkpt lat="45.44878" lon="5.3315">
        <ele>628</ele>
        <time>2011-08-15T15:53:36Z</time>
      </trkpt>
      <trkpt lat="45.44881" lon="5.33146">
        <ele>629</ele>
        <time>2011-08-15T15:53:40Z</time>
      </trkpt>
      <trkpt lat="45.44887" lon="5.33144">
        <ele>631</ele>
        <time>2011-08-15T15:53:46Z</time>
      </trkpt>
      <trkpt lat="45.44892" lon="5.33142">
        <ele>633</ele>
        <time>2011-08-15T15:53:50Z</time>
      </trkpt>
      <trkpt lat="45.44898" lon="5.33142">
        <ele>634</ele>
        <time>2011-08-15T15:53:52Z</time>
      </trkpt>
      <trkpt lat="45.44907" lon="5.3314">
        <ele>637</ele>
        <time>2011-08-15T15:53:55Z</time>
      </trkpt>
      <trkpt lat="45.44912" lon="5.33142">
        <ele>640</ele>
        <time>2011-08-15T15:53:56Z</time>
      </trkpt>
      <trkpt lat="45.44918" lon="5.33143">
        <ele>645</ele>
        <time>2011-08-15T15:53:58Z</time>
      </trkpt>
      <trkpt lat="45.44922" lon="5.3314">
        <ele>647</ele>
        <time>2011-08-15T15:54:02Z</time>
      </trkpt>
      <trkpt lat="45.44926" lon="5.33138">
        <ele>647</ele>
        <time>2011-08-15T15:54:05Z</time>
      </trkpt>
      <trkpt lat="45.4493" lon="5.33134">
        <ele>647</ele>
        <time>2011-08-15T15:54:10Z</time>
      </trkpt>
      <trkpt lat="45.44935" lon="5.33132">
        <ele>645</ele>
        <time>2011-08-15T15:54:15Z</time>
      </trkpt>
      <trkpt lat="45.4494" lon="5.33133">
        <ele>646</ele>
        <time>2011-08-15T15:54:21Z</time>
      </trkpt>
      <trkpt lat="45.44945" lon="5.33132">
        <ele>646</ele>
        <time>2011-08-15T15:54:27Z</time>
      </trkpt>
      <trkpt lat="45.4495" lon="5.33134">
        <ele>647</ele>
        <time>2011-08-15T15:54:29Z</time>
      </trkpt>
      <trkpt lat="45.44954" lon="5.33136">
        <ele>648</ele>
        <time>2011-08-15T15:54:32Z</time>
      </trkpt>
      <trkpt lat="45.44962" lon="5.33138">
        <ele>649</ele>
        <time>2011-08-15T15:54:39Z</time>
      </trkpt>
      <trkpt lat="45.44967" lon="5.33138">
        <ele>650</ele>
        <time>2011-08-15T15:54:47Z</time>
      </trkpt>
      <trkpt lat="45.44972" lon="5.33137">
        <ele>652</ele>
        <time>2011-08-15T15:54:54Z</time>
      </trkpt>
      <trkpt lat="45.4498" lon="5.33135">
        <ele>651</ele>
        <time>2011-08-15T15:54:58Z</time>
      </trkpt>
      <trkpt lat="45.44985" lon="5.33135">
        <ele>653</ele>
        <time>2011-08-15T15:55:01Z</time>
      </trkpt>
      <trkpt lat="45.44991" lon="5.33133">
        <ele>654</ele>
        <time>2011-08-15T15:55:10Z</time>
      </trkpt>
      <trkpt lat="45.44997" lon="5.33135">
        <ele>655</ele>
        <time>2011-08-15T15:55:14Z</time>
      </trkpt>
      <trkpt lat="45.45" lon="5.33129">
        <ele>656</ele>
        <time>2011-08-15T15:55:23Z</time>
      </trkpt>
      <trkpt lat="45.45006" lon="5.33126">
        <ele>657</ele>
        <time>2011-08-15T15:55:27Z</time>
      </trkpt>
      <trkpt lat="45.4501" lon="5.33123">
        <ele>656</ele>
        <time>2011-08-15T15:55:32Z</time>
      </trkpt>
      <trkpt lat="45.45014" lon="5.3312">
        <ele>657</ele>
        <time>2011-08-15T15:55:38Z</time>
      </trkpt>
      <trkpt lat="45.45019" lon="5.33117">
        <ele>659</ele>
        <time>2011-08-15T15:55:42Z</time>
      </trkpt>
      <trkpt lat="45.45021" lon="5.33112">
        <ele>660</ele>
        <time>2011-08-15T15:55:45Z</time>
      </trkpt>
      <trkpt lat="45.45022" lon="5.33104">
        <ele>661</ele>
        <time>2011-08-15T15:55:49Z</time>
      </trkpt>
      <trkpt lat="45.45027" lon="5.331">
        <ele>662</ele>
        <time>2011-08-15T15:55:52Z</time>
      </trkpt>
      <trkpt lat="45.4503" lon="5.33094">
        <ele>662</ele>
        <time>2011-08-15T15:55:58Z</time>
      </trkpt>
      <trkpt lat="45.45033" lon="5.33088">
        <ele>663</ele>
        <time>2011-08-15T15:56:02Z</time>
      </trkpt>
      <trkpt lat="45.45038" lon="5.33086">
        <ele>663</ele>
        <time>2011-08-15T15:56:05Z</time>
      </trkpt>
      <trkpt lat="45.45042" lon="5.33082">
        <ele>664</ele>
        <time>2011-08-15T15:56:09Z</time>
      </trkpt>
      <trkpt lat="45.45044" lon="5.33077">
        <ele>664</ele>
        <time>2011-08-15T15:56:15Z</time>
      </trkpt>
      <trkpt lat="45.45044" lon="5.3307">
        <ele>666</ele>
        <time>2011-08-15T15:56:19Z</time>
      </trkpt>
      <trkpt lat="45.45048" lon="5.33066">
        <ele>667</ele>
        <time>2011-08-15T15:56:21Z</time>
      </trkpt>
      <trkpt lat="45.45052" lon="5.33062">
        <ele>667</ele>
        <time>2011-08-15T15:56:26Z</time>
      </trkpt>
      <trkpt lat="45.4506" lon="5.33061">
        <ele>668</ele>
        <time>2011-08-15T15:56:28Z</time>
      </trkpt>
      <trkpt lat="45.45063" lon="5.33055">
        <ele>669</ele>
        <time>2011-08-15T15:56:33Z</time>
      </trkpt>
      <trkpt lat="45.45065" lon="5.33049">
        <ele>669</ele>
        <time>2011-08-15T15:56:36Z</time>
      </trkpt>
      <trkpt lat="45.45068" lon="5.33042">
        <ele>669</ele>
        <time>2011-08-15T15:56:42Z</time>
      </trkpt>
      <trkpt lat="45.45073" lon="5.33037">
        <ele>669</ele>
        <time>2011-08-15T15:56:49Z</time>
      </trkpt>
      <trkpt lat="45.45078" lon="5.33035">
        <ele>668</ele>
        <time>2011-08-15T15:56:54Z</time>
      </trkpt>
      <trkpt lat="45.45083" lon="5.33035">
        <ele>668</ele>
        <time>2011-08-15T15:56:58Z</time>
      </trkpt>
      <trkpt lat="45.45088" lon="5.33033">
        <ele>668</ele>
        <time>2011-08-15T15:57:00Z</time>
      </trkpt>
      <trkpt lat="45.45092" lon="5.33028">
        <ele>668</ele>
        <time>2011-08-15T15:57:05Z</time>
      </trkpt>
      <trkpt lat="45.45096" lon="5.33022">
        <ele>668</ele>
        <time>2011-08-15T15:57:09Z</time>
      </trkpt>
      <trkpt lat="45.45099" lon="5.33016">
        <ele>667</ele>
        <time>2011-08-15T15:57:12Z</time>
      </trkpt>
      <trkpt lat="45.45103" lon="5.33016">
        <ele>666</ele>
        <time>2011-08-15T15:57:13Z</time>
      </trkpt>
      <trkpt lat="45.45108" lon="5.33011">
        <ele>666</ele>
        <time>2011-08-15T15:57:18Z</time>
      </trkpt>
      <trkpt lat="45.45109" lon="5.33005">
        <ele>666</ele>
        <time>2011-08-15T15:57:24Z</time>
      </trkpt>
      <trkpt lat="45.45113" lon="5.33002">
        <ele>665</ele>
        <time>2011-08-15T15:57:28Z</time>
      </trkpt>
      <trkpt lat="45.4512" lon="5.32999">
        <ele>665</ele>
        <time>2011-08-15T15:57:30Z</time>
      </trkpt>
      <trkpt lat="45.45122" lon="5.32993">
        <ele>665</ele>
        <time>2011-08-15T15:57:34Z</time>
      </trkpt>
      <trkpt lat="45.45126" lon="5.3299">
        <ele>665</ele>
        <time>2011-08-15T15:57:39Z</time>
      </trkpt>
      <trkpt lat="45.45131" lon="5.32986">
        <ele>666</ele>
        <time>2011-08-15T15:57:40Z</time>
      </trkpt>
      <trkpt lat="45.45135" lon="5.32982">
        <ele>666</ele>
        <time>2011-08-15T15:57:43Z</time>
      </trkpt>
      <trkpt lat="45.45138" lon="5.32975">
        <ele>666</ele>
        <time>2011-08-15T15:57:47Z</time>
      </trkpt>
      <trkpt lat="45.45147" lon="5.32974">
        <ele>666</ele>
        <time>2011-08-15T15:57:50Z</time>
      </trkpt>
      <trkpt lat="45.45146" lon="5.32966">
        <ele>667</ele>
        <time>2011-08-15T15:57:54Z</time>
      </trkpt>
      <trkpt lat="45.45154" lon="5.32962">
        <ele>668</ele>
        <time>2011-08-15T15:57:56Z</time>
      </trkpt>
      <trkpt lat="45.45161" lon="5.32962">
        <ele>670</ele>
        <time>2011-08-15T15:58:02Z</time>
      </trkpt>
      <trkpt lat="45.45161" lon="5.32962">
        <ele>670</ele>
        <time>2011-08-15T15:58:02Z</time>
      </trkpt>
      <trkpt lat="45.45161" lon="5.32962">
        <ele>670</ele>
        <time>2011-08-15T15:58:04Z</time>
      </trkpt>
      <trkpt lat="45.45161" lon="5.32955">
        <ele>671</ele>
        <time>2011-08-15T15:58:08Z</time>
      </trkpt>
      <trkpt lat="45.4516" lon="5.32948">
        <ele>671</ele>
        <time>2011-08-15T15:58:12Z</time>
      </trkpt>
      <trkpt lat="45.45164" lon="5.32943">
        <ele>671</ele>
        <time>2011-08-15T15:58:17Z</time>
      </trkpt>
      <trkpt lat="45.45166" lon="5.32935">
        <ele>671</ele>
        <time>2011-08-15T15:58:21Z</time>
      </trkpt>
      <trkpt lat="45.45172" lon="5.32931">
        <ele>674</ele>
        <time>2011-08-15T15:58:24Z</time>
      </trkpt>
      <trkpt lat="45.45176" lon="5.32928">
        <ele>674</ele>
        <time>2011-08-15T15:58:26Z</time>
      </trkpt>
      <trkpt lat="45.45181" lon="5.32923">
        <ele>675</ele>
        <time>2011-08-15T15:58:29Z</time>
      </trkpt>
      <trkpt lat="45.45186" lon="5.32921">
        <ele>671</ele>
        <time>2011-08-15T15:58:33Z</time>
      </trkpt>
      <trkpt lat="45.4519" lon="5.32916">
        <ele>671</ele>
        <time>2011-08-15T15:58:38Z</time>
      </trkpt>
      <trkpt lat="45.45195" lon="5.32913">
        <ele>668</ele>
        <time>2011-08-15T15:58:43Z</time>
      </trkpt>
      <trkpt lat="45.45198" lon="5.32906">
        <ele>670</ele>
        <time>2011-08-15T15:58:48Z</time>
      </trkpt>
      <trkpt lat="45.45201" lon="5.32901">
        <ele>670</ele>
        <time>2011-08-15T15:58:52Z</time>
      </trkpt>
      <trkpt lat="45.45204" lon="5.32896">
        <ele>670</ele>
        <time>2011-08-15T15:58:57Z</time>
      </trkpt>
      <trkpt lat="45.4521" lon="5.32895">
        <ele>671</ele>
        <time>2011-08-15T15:59:03Z</time>
      </trkpt>
      <trkpt lat="45.45209" lon="5.32889">
        <ele>668</ele>
        <time>2011-08-15T15:59:08Z</time>
      </trkpt>
      <trkpt lat="45.45213" lon="5.32886">
        <ele>671</ele>
        <time>2011-08-15T15:59:11Z</time>
      </trkpt>
      <trkpt lat="45.45218" lon="5.32879">
        <ele>671</ele>
        <time>2011-08-15T15:59:15Z</time>
      </trkpt>
      <trkpt lat="45.45223" lon="5.32879">
        <ele>673</ele>
        <time>2011-08-15T15:59:17Z</time>
      </trkpt>
      <trkpt lat="45.4523" lon="5.32877">
        <ele>673</ele>
        <time>2011-08-15T15:59:20Z</time>
      </trkpt>
      <trkpt lat="45.45233" lon="5.32871">
        <ele>674</ele>
        <time>2011-08-15T15:59:25Z</time>
      </trkpt>
      <trkpt lat="45.45233" lon="5.32871">
        <ele>674</ele>
        <time>2011-08-15T15:59:25Z</time>
      </trkpt>
      <trkpt lat="45.45233" lon="5.32871">
        <ele>674</ele>
        <time>2011-08-15T15:59:26Z</time>
      </trkpt>
      <trkpt lat="45.45238" lon="5.32872">
        <ele>675</ele>
        <time>2011-08-15T15:59:29Z</time>
      </trkpt>
      <trkpt lat="45.45244" lon="5.32868">
        <ele>674</ele>
        <time>2011-08-15T15:59:35Z</time>
      </trkpt>
      <trkpt lat="45.4525" lon="5.32865">
        <ele>674</ele>
        <time>2011-08-15T15:59:38Z</time>
      </trkpt>
      <trkpt lat="45.45256" lon="5.32862">
        <ele>675</ele>
        <time>2011-08-15T15:59:44Z</time>
      </trkpt>
      <trkpt lat="45.45256" lon="5.32862">
        <ele>675</ele>
        <time>2011-08-15T15:59:44Z</time>
      </trkpt>
      <trkpt lat="45.45256" lon="5.32862">
        <ele>676</ele>
        <time>2011-08-15T15:59:45Z</time>
      </trkpt>
      <trkpt lat="45.45261" lon="5.3286">
        <ele>677</ele>
        <time>2011-08-15T15:59:51Z</time>
      </trkpt>
      <trkpt lat="45.45268" lon="5.32858">
        <ele>676</ele>
        <time>2011-08-15T15:59:56Z</time>
      </trkpt>
      <trkpt lat="45.45272" lon="5.32857">
        <ele>676</ele>
        <time>2011-08-15T15:59:58Z</time>
      </trkpt>
      <trkpt lat="45.45279" lon="5.32853">
        <ele>677</ele>
        <time>2011-08-15T16:00:15Z</time>
      </trkpt>
      <trkpt lat="45.45285" lon="5.32853">
        <ele>676</ele>
        <time>2011-08-15T16:00:19Z</time>
      </trkpt>
      <trkpt lat="45.45292" lon="5.32852">
        <ele>677</ele>
        <time>2011-08-15T16:00:21Z</time>
      </trkpt>
      <trkpt lat="45.453" lon="5.32844">
        <ele>676</ele>
        <time>2011-08-15T16:00:31Z</time>
      </trkpt>
      <trkpt lat="45.45306" lon="5.32838">
        <ele>676</ele>
        <time>2011-08-15T16:00:36Z</time>
      </trkpt>
      <trkpt lat="45.4531" lon="5.32836">
        <ele>676</ele>
        <time>2011-08-15T16:00:38Z</time>
      </trkpt>
      <trkpt lat="45.45314" lon="5.32832">
        <ele>677</ele>
        <time>2011-08-15T16:00:40Z</time>
      </trkpt>
      <trkpt lat="45.4532" lon="5.32827">
        <ele>678</ele>
        <time>2011-08-15T16:00:44Z</time>
      </trkpt>
      <trkpt lat="45.45324" lon="5.32824">
        <ele>678</ele>
        <time>2011-08-15T16:00:48Z</time>
      </trkpt>
      <trkpt lat="45.45328" lon="5.32819">
        <ele>678</ele>
        <time>2011-08-15T16:00:57Z</time>
      </trkpt>
      <trkpt lat="45.45331" lon="5.32814">
        <ele>678</ele>
        <time>2011-08-15T16:01:19Z</time>
      </trkpt>
      <trkpt lat="45.45335" lon="5.32809">
        <ele>678</ele>
        <time>2011-08-15T16:01:21Z</time>
      </trkpt>
      <trkpt lat="45.45339" lon="5.32803">
        <ele>677</ele>
        <time>2011-08-15T16:01:23Z</time>
      </trkpt>
      <trkpt lat="45.45339" lon="5.32796">
        <ele>678</ele>
        <time>2011-08-15T16:01:25Z</time>
      </trkpt>
      <trkpt lat="45.45344" lon="5.3279">
        <ele>678</ele>
        <time>2011-08-15T16:01:28Z</time>
      </trkpt>
      <trkpt lat="45.45347" lon="5.32785">
        <ele>678</ele>
        <time>2011-08-15T16:01:31Z</time>
      </trkpt>
      <trkpt lat="45.45352" lon="5.32783">
        <ele>677</ele>
        <time>2011-08-15T16:01:33Z</time>
      </trkpt>
      <trkpt lat="45.45359" lon="5.32783">
        <ele>677</ele>
        <time>2011-08-15T16:01:38Z</time>
      </trkpt>
      <trkpt lat="45.45366" lon="5.32783">
        <ele>678</ele>
        <time>2011-08-15T16:01:39Z</time>
      </trkpt>
      <trkpt lat="45.45374" lon="5.32783">
        <ele>679</ele>
        <time>2011-08-15T16:01:40Z</time>
      </trkpt>
      <trkpt lat="45.45379" lon="5.3278">
        <ele>679</ele>
        <time>2011-08-15T16:01:42Z</time>
      </trkpt>
      <trkpt lat="45.45382" lon="5.32775">
        <ele>680</ele>
        <time>2011-08-15T16:01:45Z</time>
      </trkpt>
      <trkpt lat="45.45385" lon="5.32769">
        <ele>682</ele>
        <time>2011-08-15T16:01:51Z</time>
      </trkpt>
      <trkpt lat="45.4539" lon="5.32765">
        <ele>682</ele>
        <time>2011-08-15T16:01:55Z</time>
      </trkpt>
      <trkpt lat="45.45396" lon="5.32761">
        <ele>681</ele>
        <time>2011-08-15T16:01:58Z</time>
      </trkpt>
      <trkpt lat="45.45401" lon="5.32758">
        <ele>681</ele>
        <time>2011-08-15T16:02:02Z</time>
      </trkpt>
      <trkpt lat="45.45406" lon="5.32755">
        <ele>681</ele>
        <time>2011-08-15T16:02:05Z</time>
      </trkpt>
      <trkpt lat="45.4541" lon="5.32749">
        <ele>683</ele>
        <time>2011-08-15T16:02:08Z</time>
      </trkpt>
      <trkpt lat="45.45415" lon="5.32748">
        <ele>682</ele>
        <time>2011-08-15T16:02:11Z</time>
      </trkpt>
      <trkpt lat="45.45419" lon="5.32747">
        <ele>682</ele>
        <time>2011-08-15T16:02:14Z</time>
      </trkpt>
      <trkpt lat="45.45425" lon="5.32741">
        <ele>682</ele>
        <time>2011-08-15T16:02:22Z</time>
      </trkpt>
      <trkpt lat="45.4543" lon="5.32739">
        <ele>682</ele>
        <time>2011-08-15T16:02:25Z</time>
      </trkpt>
      <trkpt lat="45.45436" lon="5.32738">
        <ele>681</ele>
        <time>2011-08-15T16:02:28Z</time>
      </trkpt>
      <trkpt lat="45.45441" lon="5.32736">
        <ele>681</ele>
        <time>2011-08-15T16:02:32Z</time>
      </trkpt>
      <trkpt lat="45.45444" lon="5.32732">
        <ele>680</ele>
        <time>2011-08-15T16:02:36Z</time>
      </trkpt>
      <trkpt lat="45.45442" lon="5.32724">
        <ele>680</ele>
        <time>2011-08-15T16:02:48Z</time>
      </trkpt>
      <trkpt lat="45.45447" lon="5.32722">
        <ele>680</ele>
        <time>2011-08-15T16:02:53Z</time>
      </trkpt>
      <trkpt lat="45.45444" lon="5.32714">
        <ele>680</ele>
        <time>2011-08-15T16:02:56Z</time>
      </trkpt>
      <trkpt lat="45.45448" lon="5.32712">
        <ele>679</ele>
        <time>2011-08-15T16:02:57Z</time>
      </trkpt>
      <trkpt lat="45.45455" lon="5.32711">
        <ele>680</ele>
        <time>2011-08-15T16:02:59Z</time>
      </trkpt>
      <trkpt lat="45.45462" lon="5.32711">
        <ele>680</ele>
        <time>2011-08-15T16:03:00Z</time>
      </trkpt>
      <trkpt lat="45.45466" lon="5.32708">
        <ele>679</ele>
        <time>2011-08-15T16:03:01Z</time>
      </trkpt>
      <trkpt lat="45.45471" lon="5.32705">
        <ele>679</ele>
        <time>2011-08-15T16:03:04Z</time>
      </trkpt>
      <trkpt lat="45.45477" lon="5.32704">
        <ele>678</ele>
        <time>2011-08-15T16:03:08Z</time>
      </trkpt>
      <trkpt lat="45.45481" lon="5.32702">
        <ele>677</ele>
        <time>2011-08-15T16:03:11Z</time>
      </trkpt>
      <trkpt lat="45.45486" lon="5.32699">
        <ele>677</ele>
        <time>2011-08-15T16:03:14Z</time>
      </trkpt>
      <trkpt lat="45.45492" lon="5.32693">
        <ele>678</ele>
        <time>2011-08-15T16:03:20Z</time>
      </trkpt>
      <trkpt lat="45.45498" lon="5.3269">
        <ele>678</ele>
        <time>2011-08-15T16:03:27Z</time>
      </trkpt>
      <trkpt lat="45.45502" lon="5.32688">
        <ele>678</ele>
        <time>2011-08-15T16:03:31Z</time>
      </trkpt>
      <trkpt lat="45.45513" lon="5.32685">
        <ele>678</ele>
        <time>2011-08-15T16:03:34Z</time>
      </trkpt>
      <trkpt lat="45.45519" lon="5.32686">
        <ele>679</ele>
        <time>2011-08-15T16:03:37Z</time>
      </trkpt>
      <trkpt lat="45.45523" lon="5.32683">
        <ele>681</ele>
        <time>2011-08-15T16:03:40Z</time>
      </trkpt>
      <trkpt lat="45.45528" lon="5.32683">
        <ele>681</ele>
        <time>2011-08-15T16:03:43Z</time>
      </trkpt>
      <trkpt lat="45.45528" lon="5.32683">
        <ele>681</ele>
        <time>2011-08-15T16:03:43Z</time>
      </trkpt>
      <trkpt lat="45.45528" lon="5.32683">
        <ele>681</ele>
        <time>2011-08-15T16:03:44Z</time>
      </trkpt>
      <trkpt lat="45.45533" lon="5.32681">
        <ele>679</ele>
        <time>2011-08-15T16:03:51Z</time>
      </trkpt>
      <trkpt lat="45.45533" lon="5.32674">
        <ele>678</ele>
        <time>2011-08-15T16:03:56Z</time>
      </trkpt>
      <trkpt lat="45.45533" lon="5.32674">
        <ele>678</ele>
        <time>2011-08-15T16:03:56Z</time>
      </trkpt>
      <trkpt lat="45.45533" lon="5.32674">
        <ele>678</ele>
        <time>2011-08-15T16:03:57Z</time>
      </trkpt>
      <trkpt lat="45.45537" lon="5.3267">
        <ele>678</ele>
        <time>2011-08-15T16:04:04Z</time>
      </trkpt>
      <trkpt lat="45.4554" lon="5.32664">
        <ele>678</ele>
        <time>2011-08-15T16:04:08Z</time>
      </trkpt>
      <trkpt lat="45.45545" lon="5.32663">
        <ele>677</ele>
        <time>2011-08-15T16:04:11Z</time>
      </trkpt>
      <trkpt lat="45.45551" lon="5.32662">
        <ele>677</ele>
        <time>2011-08-15T16:04:13Z</time>
      </trkpt>
      <trkpt lat="45.45555" lon="5.3266">
        <ele>676</ele>
        <time>2011-08-15T16:04:17Z</time>
      </trkpt>
      <trkpt lat="45.45557" lon="5.32653">
        <ele>676</ele>
        <time>2011-08-15T16:04:22Z</time>
      </trkpt>
      <trkpt lat="45.45561" lon="5.32649">
        <ele>677</ele>
        <time>2011-08-15T16:04:26Z</time>
      </trkpt>
      <trkpt lat="45.45562" lon="5.32642">
        <ele>675</ele>
        <time>2011-08-15T16:04:31Z</time>
      </trkpt>
      <trkpt lat="45.45568" lon="5.3264">
        <ele>675</ele>
        <time>2011-08-15T16:04:33Z</time>
      </trkpt>
      <trkpt lat="45.45571" lon="5.32636">
        <ele>675</ele>
        <time>2011-08-15T16:04:36Z</time>
      </trkpt>
      <trkpt lat="45.45574" lon="5.3263">
        <ele>676</ele>
        <time>2011-08-15T16:04:39Z</time>
      </trkpt>
      <trkpt lat="45.45578" lon="5.32623">
        <ele>677</ele>
        <time>2011-08-15T16:04:42Z</time>
      </trkpt>
      <trkpt lat="45.45587" lon="5.32622">
        <ele>677</ele>
        <time>2011-08-15T16:04:44Z</time>
      </trkpt>
      <trkpt lat="45.4559" lon="5.32615">
        <ele>678</ele>
        <time>2011-08-15T16:05:16Z</time>
      </trkpt>
      <trkpt lat="45.45593" lon="5.32608">
        <ele>679</ele>
        <time>2011-08-15T16:05:17Z</time>
      </trkpt>
      <trkpt lat="45.456" lon="5.32602">
        <ele>680</ele>
        <time>2011-08-15T16:05:18Z</time>
      </trkpt>
      <trkpt lat="45.45604" lon="5.32597">
        <ele>680</ele>
        <time>2011-08-15T16:05:20Z</time>
      </trkpt>
      <trkpt lat="45.45609" lon="5.32594">
        <ele>679</ele>
        <time>2011-08-15T16:05:22Z</time>
      </trkpt>
      <trkpt lat="45.45612" lon="5.32588">
        <ele>679</ele>
        <time>2011-08-15T16:05:24Z</time>
      </trkpt>
      <trkpt lat="45.45617" lon="5.32581">
        <ele>679</ele>
        <time>2011-08-15T16:05:26Z</time>
      </trkpt>
      <trkpt lat="45.45622" lon="5.32575">
        <ele>679</ele>
        <time>2011-08-15T16:05:29Z</time>
      </trkpt>
      <trkpt lat="45.45625" lon="5.3257">
        <ele>679</ele>
        <time>2011-08-15T16:05:31Z</time>
      </trkpt>
      <trkpt lat="45.45628" lon="5.32564">
        <ele>678</ele>
        <time>2011-08-15T16:05:34Z</time>
      </trkpt>
      <trkpt lat="45.45627" lon="5.32557">
        <ele>677</ele>
        <time>2011-08-15T16:05:38Z</time>
      </trkpt>
      <trkpt lat="45.45631" lon="5.32553">
        <ele>677</ele>
        <time>2011-08-15T16:05:42Z</time>
      </trkpt>
      <trkpt lat="45.45631" lon="5.32541">
        <ele>677</ele>
        <time>2011-08-15T16:06:29Z</time>
      </trkpt>
      <trkpt lat="45.45631" lon="5.3253">
        <ele>678</ele>
        <time>2011-08-15T16:06:31Z</time>
      </trkpt>
      <trkpt lat="45.45644" lon="5.3252">
        <ele>676</ele>
        <time>2011-08-15T16:06:33Z</time>
      </trkpt>
      <trkpt lat="45.45651" lon="5.32511">
        <ele>675</ele>
        <time>2011-08-15T16:06:35Z</time>
      </trkpt>
      <trkpt lat="45.45653" lon="5.32502">
        <ele>674</ele>
        <time>2011-08-15T16:06:37Z</time>
      </trkpt>
      <trkpt lat="45.45655" lon="5.32492">
        <ele>675</ele>
        <time>2011-08-15T16:06:40Z</time>
      </trkpt>
      <trkpt lat="45.45658" lon="5.32486">
        <ele>674</ele>
        <time>2011-08-15T16:06:43Z</time>
      </trkpt>
      <trkpt lat="45.45656" lon="5.32473">
        <ele>680</ele>
        <time>2011-08-15T16:06:47Z</time>
      </trkpt>
      <trkpt lat="45.45659" lon="5.32465">
        <ele>680</ele>
        <time>2011-08-15T16:06:50Z</time>
      </trkpt>
      <trkpt lat="45.45658" lon="5.32455">
        <ele>680</ele>
        <time>2011-08-15T16:06:54Z</time>
      </trkpt>
      <trkpt lat="45.45658" lon="5.32455">
        <ele>680</ele>
        <time>2011-08-15T16:06:54Z</time>
      </trkpt>
      <trkpt lat="45.45658" lon="5.32455">
        <ele>680</ele>
        <time>2011-08-15T16:06:55Z</time>
      </trkpt>
      <trkpt lat="45.45658" lon="5.32448">
        <ele>680</ele>
        <time>2011-08-15T16:06:59Z</time>
      </trkpt>
      <trkpt lat="45.45661" lon="5.32443">
        <ele>681</ele>
        <time>2011-08-15T16:07:02Z</time>
      </trkpt>
      <trkpt lat="45.45666" lon="5.32436">
        <ele>683</ele>
        <time>2011-08-15T16:07:06Z</time>
      </trkpt>
      <trkpt lat="45.45669" lon="5.3243">
        <ele>682</ele>
        <time>2011-08-15T16:07:11Z</time>
      </trkpt>
      <trkpt lat="45.45673" lon="5.32426">
        <ele>683</ele>
        <time>2011-08-15T16:07:15Z</time>
      </trkpt>
      <trkpt lat="45.45678" lon="5.32424">
        <ele>683</ele>
        <time>2011-08-15T16:07:20Z</time>
      </trkpt>
      <trkpt lat="45.45682" lon="5.32422">
        <ele>684</ele>
        <time>2011-08-15T16:07:23Z</time>
      </trkpt>
      <trkpt lat="45.45687" lon="5.32421">
        <ele>684</ele>
        <time>2011-08-15T16:07:36Z</time>
      </trkpt>
      <trkpt lat="45.45687" lon="5.32421">
        <ele>684</ele>
        <time>2011-08-15T16:07:36Z</time>
      </trkpt>
      <trkpt lat="45.45687" lon="5.32421">
        <ele>683</ele>
        <time>2011-08-15T16:07:37Z</time>
      </trkpt>
      <trkpt lat="45.45691" lon="5.32415">
        <ele>682</ele>
        <time>2011-08-15T16:08:00Z</time>
      </trkpt>
      <trkpt lat="45.45698" lon="5.32409">
        <ele>681</ele>
        <time>2011-08-15T16:08:02Z</time>
      </trkpt>
      <trkpt lat="45.45704" lon="5.32403">
        <ele>681</ele>
        <time>2011-08-15T16:08:04Z</time>
      </trkpt>
      <trkpt lat="45.45708" lon="5.32398">
        <ele>682</ele>
        <time>2011-08-15T16:08:06Z</time>
      </trkpt>
      <trkpt lat="45.45714" lon="5.32391">
        <ele>684</ele>
        <time>2011-08-15T16:08:08Z</time>
      </trkpt>
      <trkpt lat="45.4572" lon="5.32386">
        <ele>683</ele>
        <time>2011-08-15T16:08:10Z</time>
      </trkpt>
      <trkpt lat="45.45725" lon="5.32382">
        <ele>681</ele>
        <time>2011-08-15T16:08:11Z</time>
      </trkpt>
      <trkpt lat="45.45726" lon="5.32375">
        <ele>679</ele>
        <time>2011-08-15T16:08:13Z</time>
      </trkpt>
      <trkpt lat="45.45732" lon="5.32369">
        <ele>678</ele>
        <time>2011-08-15T16:08:15Z</time>
      </trkpt>
      <trkpt lat="45.45737" lon="5.32366">
        <ele>677</ele>
        <time>2011-08-15T16:08:18Z</time>
      </trkpt>
      <trkpt lat="45.45742" lon="5.32363">
        <ele>676</ele>
        <time>2011-08-15T16:08:23Z</time>
      </trkpt>
      <trkpt lat="45.45746" lon="5.32358">
        <ele>678</ele>
        <time>2011-08-15T16:08:37Z</time>
      </trkpt>
      <trkpt lat="45.45748" lon="5.32352">
        <ele>677</ele>
        <time>2011-08-15T16:08:40Z</time>
      </trkpt>
      <trkpt lat="45.45749" lon="5.32345">
        <ele>678</ele>
        <time>2011-08-15T16:08:42Z</time>
      </trkpt>
      <trkpt lat="45.4575" lon="5.32338">
        <ele>678</ele>
        <time>2011-08-15T16:08:45Z</time>
      </trkpt>
      <trkpt lat="45.45749" lon="5.32332">
        <ele>680</ele>
        <time>2011-08-15T16:08:47Z</time>
      </trkpt>
      <trkpt lat="45.45751" lon="5.32321">
        <ele>678</ele>
        <time>2011-08-15T16:08:50Z</time>
      </trkpt>
      <trkpt lat="45.45756" lon="5.32315">
        <ele>677</ele>
        <time>2011-08-15T16:08:54Z</time>
      </trkpt>
      <trkpt lat="45.45755" lon="5.32307">
        <ele>675</ele>
        <time>2011-08-15T16:08:57Z</time>
      </trkpt>
      <trkpt lat="45.45759" lon="5.32303">
        <ele>674</ele>
        <time>2011-08-15T16:09:04Z</time>
      </trkpt>
      <trkpt lat="45.45759" lon="5.32303">
        <ele>674</ele>
        <time>2011-08-15T16:09:04Z</time>
      </trkpt>
      <trkpt lat="45.45759" lon="5.32303">
        <ele>674</ele>
        <time>2011-08-15T16:09:05Z</time>
      </trkpt>
      <trkpt lat="45.45767" lon="5.32306">
        <ele>673</ele>
        <time>2011-08-15T16:09:51Z</time>
      </trkpt>
      <trkpt lat="45.45771" lon="5.32312">
        <ele>673</ele>
        <time>2011-08-15T16:09:53Z</time>
      </trkpt>
      <trkpt lat="45.45778" lon="5.32315">
        <ele>673</ele>
        <time>2011-08-15T16:09:54Z</time>
      </trkpt>
      <trkpt lat="45.45788" lon="5.32316">
        <ele>672</ele>
        <time>2011-08-15T16:09:57Z</time>
      </trkpt>
      <trkpt lat="45.45793" lon="5.32316">
        <ele>673</ele>
        <time>2011-08-15T16:10:02Z</time>
      </trkpt>
      <trkpt lat="45.45793" lon="5.32316">
        <ele>673</ele>
        <time>2011-08-15T16:10:02Z</time>
      </trkpt>
      <trkpt lat="45.45793" lon="5.32316">
        <ele>673</ele>
        <time>2011-08-15T16:10:04Z</time>
      </trkpt>
      <trkpt lat="45.45806" lon="5.32319">
        <ele>674</ele>
        <time>2011-08-15T16:10:41Z</time>
      </trkpt>
      <trkpt lat="45.45807" lon="5.32325">
        <ele>670</ele>
        <time>2011-08-15T16:10:48Z</time>
      </trkpt>
      <trkpt lat="45.45807" lon="5.32325">
        <ele>670</ele>
        <time>2011-08-15T16:10:48Z</time>
      </trkpt>
      <trkpt lat="45.45807" lon="5.32325">
        <ele>670</ele>
        <time>2011-08-15T16:10:49Z</time>
      </trkpt>
      <trkpt lat="45.45811" lon="5.3233">
        <ele>670</ele>
        <time>2011-08-15T16:10:51Z</time>
      </trkpt>
      <trkpt lat="45.45823" lon="5.32341">
        <ele>672</ele>
        <time>2011-08-15T16:10:52Z</time>
      </trkpt>
      <trkpt lat="45.45829" lon="5.32347">
        <ele>673</ele>
        <time>2011-08-15T16:10:55Z</time>
      </trkpt>
      <trkpt lat="45.45834" lon="5.32347">
        <ele>673</ele>
        <time>2011-08-15T16:10:57Z</time>
      </trkpt>
      <trkpt lat="45.45838" lon="5.32347">
        <ele>673</ele>
        <time>2011-08-15T16:11:01Z</time>
      </trkpt>
      <trkpt lat="45.45844" lon="5.32344">
        <ele>671</ele>
        <time>2011-08-15T16:11:06Z</time>
      </trkpt>
      <trkpt lat="45.45848" lon="5.32339">
        <ele>671</ele>
        <time>2011-08-15T16:11:09Z</time>
      </trkpt>
      <trkpt lat="45.45852" lon="5.32341">
        <ele>669</ele>
        <time>2011-08-15T16:11:10Z</time>
      </trkpt>
      <trkpt lat="45.45859" lon="5.32339">
        <ele>669</ele>
        <time>2011-08-15T16:11:15Z</time>
      </trkpt>
      <trkpt lat="45.45866" lon="5.32337">
        <ele>669</ele>
        <time>2011-08-15T16:11:19Z</time>
      </trkpt>
      <trkpt lat="45.45875" lon="5.32337">
        <ele>671</ele>
        <time>2011-08-15T16:11:26Z</time>
      </trkpt>
      <trkpt lat="45.45881" lon="5.32337">
        <ele>670</ele>
        <time>2011-08-15T16:11:28Z</time>
      </trkpt>
      <trkpt lat="45.45886" lon="5.32339">
        <ele>670</ele>
        <time>2011-08-15T16:11:31Z</time>
      </trkpt>
      <trkpt lat="45.45891" lon="5.32338">
        <ele>667</ele>
        <time>2011-08-15T16:11:36Z</time>
      </trkpt>
      <trkpt lat="45.45896" lon="5.32336">
        <ele>666</ele>
        <time>2011-08-15T16:11:41Z</time>
      </trkpt>
      <trkpt lat="45.45901" lon="5.32334">
        <ele>665</ele>
        <time>2011-08-15T16:11:46Z</time>
      </trkpt>
      <trkpt lat="45.45906" lon="5.3233">
        <ele>664</ele>
        <time>2011-08-15T16:11:52Z</time>
      </trkpt>
      <trkpt lat="45.45902" lon="5.32325">
        <ele>662</ele>
        <time>2011-08-15T16:11:53Z</time>
      </trkpt>
      <trkpt lat="45.45909" lon="5.32328">
        <ele>661</ele>
        <time>2011-08-15T16:11:57Z</time>
      </trkpt>
      <trkpt lat="45.45916" lon="5.32326">
        <ele>661</ele>
        <time>2011-08-15T16:12:04Z</time>
      </trkpt>
      <trkpt lat="45.45919" lon="5.32321">
        <ele>661</ele>
        <time>2011-08-15T16:12:08Z</time>
      </trkpt>
      <trkpt lat="45.45926" lon="5.32321">
        <ele>660</ele>
        <time>2011-08-15T16:12:13Z</time>
      </trkpt>
      <trkpt lat="45.45933" lon="5.32321">
        <ele>661</ele>
        <time>2011-08-15T16:12:16Z</time>
      </trkpt>
      <trkpt lat="45.45935" lon="5.32314">
        <ele>661</ele>
        <time>2011-08-15T16:12:22Z</time>
      </trkpt>
      <trkpt lat="45.4594" lon="5.32312">
        <ele>661</ele>
        <time>2011-08-15T16:12:26Z</time>
      </trkpt>
      <trkpt lat="45.45944" lon="5.32306">
        <ele>660</ele>
        <time>2011-08-15T16:12:31Z</time>
      </trkpt>
      <trkpt lat="45.45949" lon="5.32306">
        <ele>660</ele>
        <time>2011-08-15T16:12:35Z</time>
      </trkpt>
      <trkpt lat="45.45952" lon="5.32297">
        <ele>659</ele>
        <time>2011-08-15T16:12:40Z</time>
      </trkpt>
      <trkpt lat="45.45955" lon="5.32292">
        <ele>658</ele>
        <time>2011-08-15T16:12:44Z</time>
      </trkpt>
      <trkpt lat="45.45963" lon="5.3229">
        <ele>658</ele>
        <time>2011-08-15T16:12:46Z</time>
      </trkpt>
      <trkpt lat="45.45967" lon="5.32285">
        <ele>658</ele>
        <time>2011-08-15T16:12:54Z</time>
      </trkpt>
      <trkpt lat="45.45971" lon="5.3228">
        <ele>655</ele>
        <time>2011-08-15T16:13:19Z</time>
      </trkpt>
      <trkpt lat="45.45976" lon="5.32274">
        <ele>654</ele>
        <time>2011-08-15T16:13:24Z</time>
      </trkpt>
      <trkpt lat="45.45984" lon="5.32264">
        <ele>653</ele>
        <time>2011-08-15T16:14:02Z</time>
      </trkpt>
      <trkpt lat="45.4599" lon="5.32257">
        <ele>653</ele>
        <time>2011-08-15T16:14:03Z</time>
      </trkpt>
      <trkpt lat="45.45997" lon="5.32252">
        <ele>655</ele>
        <time>2011-08-15T16:14:04Z</time>
      </trkpt>
      <trkpt lat="45.46012" lon="5.32247">
        <ele>657</ele>
        <time>2011-08-15T16:14:05Z</time>
      </trkpt>
      <trkpt lat="45.46021" lon="5.32242">
        <ele>657</ele>
        <time>2011-08-15T16:14:06Z</time>
      </trkpt>
      <trkpt lat="45.46027" lon="5.32241">
        <ele>656</ele>
        <time>2011-08-15T16:14:07Z</time>
      </trkpt>
      <trkpt lat="45.46027" lon="5.32233">
        <ele>656</ele>
        <time>2011-08-15T16:14:09Z</time>
      </trkpt>
      <trkpt lat="45.46028" lon="5.32225">
        <ele>654</ele>
        <time>2011-08-15T16:14:12Z</time>
      </trkpt>
      <trkpt lat="45.4603" lon="5.32219">
        <ele>650</ele>
        <time>2011-08-15T16:14:19Z</time>
      </trkpt>
      <trkpt lat="45.46036" lon="5.3221">
        <ele>650</ele>
        <time>2011-08-15T16:14:26Z</time>
      </trkpt>
      <trkpt lat="45.46045" lon="5.32206">
        <ele>649</ele>
        <time>2011-08-15T16:14:27Z</time>
      </trkpt>
      <trkpt lat="45.46051" lon="5.32203">
        <ele>647</ele>
        <time>2011-08-15T16:14:28Z</time>
      </trkpt>
      <trkpt lat="45.46055" lon="5.32198">
        <ele>647</ele>
        <time>2011-08-15T16:14:29Z</time>
      </trkpt>
      <trkpt lat="45.46059" lon="5.32192">
        <ele>648</ele>
        <time>2011-08-15T16:14:31Z</time>
      </trkpt>
      <trkpt lat="45.46064" lon="5.32189">
        <ele>648</ele>
        <time>2011-08-15T16:14:32Z</time>
      </trkpt>
      <trkpt lat="45.46066" lon="5.32183">
        <ele>649</ele>
        <time>2011-08-15T16:14:33Z</time>
      </trkpt>
      <trkpt lat="45.46068" lon="5.32176">
        <ele>650</ele>
        <time>2011-08-15T16:14:34Z</time>
      </trkpt>
      <trkpt lat="45.46072" lon="5.32165">
        <ele>652</ele>
        <time>2011-08-15T16:14:36Z</time>
      </trkpt>
      <trkpt lat="45.46072" lon="5.32158">
        <ele>652</ele>
        <time>2011-08-15T16:14:38Z</time>
      </trkpt>
      <trkpt lat="45.46073" lon="5.32151">
        <ele>653</ele>
        <time>2011-08-15T16:14:40Z</time>
      </trkpt>
      <trkpt lat="45.46076" lon="5.32146">
        <ele>654</ele>
        <time>2011-08-15T16:14:43Z</time>
      </trkpt>
      <trkpt lat="45.4608" lon="5.32139">
        <ele>654</ele>
        <time>2011-08-15T16:14:48Z</time>
      </trkpt>
      <trkpt lat="45.46083" lon="5.32132">
        <ele>653</ele>
        <time>2011-08-15T16:14:53Z</time>
      </trkpt>
      <trkpt lat="45.46084" lon="5.32126">
        <ele>654</ele>
        <time>2011-08-15T16:15:02Z</time>
      </trkpt>
      <trkpt lat="45.46082" lon="5.32117">
        <ele>652</ele>
        <time>2011-08-15T16:15:12Z</time>
      </trkpt>
      <trkpt lat="45.46083" lon="5.3211">
        <ele>652</ele>
        <time>2011-08-15T16:15:17Z</time>
      </trkpt>
      <trkpt lat="45.46088" lon="5.32105">
        <ele>653</ele>
        <time>2011-08-15T16:15:21Z</time>
      </trkpt>
      <trkpt lat="45.4609" lon="5.32097">
        <ele>652</ele>
        <time>2011-08-15T16:15:24Z</time>
      </trkpt>
      <trkpt lat="45.46094" lon="5.32087">
        <ele>651</ele>
        <time>2011-08-15T16:15:26Z</time>
      </trkpt>
      <trkpt lat="45.46098" lon="5.32083">
        <ele>650</ele>
        <time>2011-08-15T16:15:27Z</time>
      </trkpt>
      <trkpt lat="45.46104" lon="5.32076">
        <ele>648</ele>
        <time>2011-08-15T16:15:31Z</time>
      </trkpt>
      <trkpt lat="45.46107" lon="5.32067">
        <ele>647</ele>
        <time>2011-08-15T16:15:34Z</time>
      </trkpt>
      <trkpt lat="45.46109" lon="5.32061">
        <ele>646</ele>
        <time>2011-08-15T16:15:36Z</time>
      </trkpt>
      <trkpt lat="45.46116" lon="5.32059">
        <ele>645</ele>
        <time>2011-08-15T16:15:38Z</time>
      </trkpt>
      <trkpt lat="45.46115" lon="5.32052">
        <ele>644</ele>
        <time>2011-08-15T16:15:40Z</time>
      </trkpt>
      <trkpt lat="45.46119" lon="5.32045">
        <ele>644</ele>
        <time>2011-08-15T16:15:43Z</time>
      </trkpt>
      <trkpt lat="45.46118" lon="5.32038">
        <ele>644</ele>
        <time>2011-08-15T16:15:47Z</time>
      </trkpt>
      <trkpt lat="45.46124" lon="5.32031">
        <ele>643</ele>
        <time>2011-08-15T16:15:53Z</time>
      </trkpt>
      <trkpt lat="45.46128" lon="5.32028">
        <ele>643</ele>
        <time>2011-08-15T16:15:55Z</time>
      </trkpt>
      <trkpt lat="45.4613" lon="5.32018">
        <ele>643</ele>
        <time>2011-08-15T16:16:15Z</time>
      </trkpt>
      <trkpt lat="45.46131" lon="5.32008">
        <ele>642</ele>
        <time>2011-08-15T16:16:17Z</time>
      </trkpt>
      <trkpt lat="45.46131" lon="5.31999">
        <ele>642</ele>
        <time>2011-08-15T16:16:19Z</time>
      </trkpt>
      <trkpt lat="45.46131" lon="5.31991">
        <ele>642</ele>
        <time>2011-08-15T16:16:21Z</time>
      </trkpt>
      <trkpt lat="45.4613" lon="5.31982">
        <ele>642</ele>
        <time>2011-08-15T16:16:24Z</time>
      </trkpt>
      <trkpt lat="45.46142" lon="5.31973">
        <ele>642</ele>
        <time>2011-08-15T16:17:17Z</time>
      </trkpt>
      <trkpt lat="45.46153" lon="5.31969">
        <ele>642</ele>
        <time>2011-08-15T16:17:18Z</time>
      </trkpt>
      <trkpt lat="45.46162" lon="5.31965">
        <ele>641</ele>
        <time>2011-08-15T16:17:19Z</time>
      </trkpt>
      <trkpt lat="45.4617" lon="5.3196">
        <ele>641</ele>
        <time>2011-08-15T16:17:20Z</time>
      </trkpt>
      <trkpt lat="45.4618" lon="5.31957">
        <ele>640</ele>
        <time>2011-08-15T16:17:21Z</time>
      </trkpt>
      <trkpt lat="45.46188" lon="5.31953">
        <ele>639</ele>
        <time>2011-08-15T16:17:22Z</time>
      </trkpt>
      <trkpt lat="45.46201" lon="5.3195">
        <ele>639</ele>
        <time>2011-08-15T16:17:23Z</time>
      </trkpt>
      <trkpt lat="45.46203" lon="5.3194">
        <ele>641</ele>
        <time>2011-08-15T16:17:25Z</time>
      </trkpt>
      <trkpt lat="45.46203" lon="5.31932">
        <ele>643</ele>
        <time>2011-08-15T16:17:27Z</time>
      </trkpt>
      <trkpt lat="45.46202" lon="5.31924">
        <ele>645</ele>
        <time>2011-08-15T16:17:29Z</time>
      </trkpt>
      <trkpt lat="45.462" lon="5.31915">
        <ele>647</ele>
        <time>2011-08-15T16:17:31Z</time>
      </trkpt>
      <trkpt lat="45.46198" lon="5.31908">
        <ele>649</ele>
        <time>2011-08-15T16:17:32Z</time>
      </trkpt>
      <trkpt lat="45.46199" lon="5.319">
        <ele>649</ele>
        <time>2011-08-15T16:17:34Z</time>
      </trkpt>
      <trkpt lat="45.46202" lon="5.31895">
        <ele>649</ele>
        <time>2011-08-15T16:17:36Z</time>
      </trkpt>
      <trkpt lat="45.46206" lon="5.31887">
        <ele>648</ele>
        <time>2011-08-15T16:17:40Z</time>
      </trkpt>
      <trkpt lat="45.46208" lon="5.31879">
        <ele>648</ele>
        <time>2011-08-15T16:17:44Z</time>
      </trkpt>
      <trkpt lat="45.46212" lon="5.31873">
        <ele>648</ele>
        <time>2011-08-15T16:17:48Z</time>
      </trkpt>
      <trkpt lat="45.46218" lon="5.31871">
        <ele>649</ele>
        <time>2011-08-15T16:17:52Z</time>
      </trkpt>
      <trkpt lat="45.46222" lon="5.31869">
        <ele>649</ele>
        <time>2011-08-15T16:17:57Z</time>
      </trkpt>
      <trkpt lat="45.46226" lon="5.31867">
        <ele>650</ele>
        <time>2011-08-15T16:18:02Z</time>
      </trkpt>
      <trkpt lat="45.46226" lon="5.31859">
        <ele>649</ele>
        <time>2011-08-15T16:18:07Z</time>
      </trkpt>
      <trkpt lat="45.46231" lon="5.31857">
        <ele>647</ele>
        <time>2011-08-15T16:18:10Z</time>
      </trkpt>
      <trkpt lat="45.46235" lon="5.31853">
        <ele>647</ele>
        <time>2011-08-15T16:18:32Z</time>
      </trkpt>
      <trkpt lat="45.46242" lon="5.31847">
        <ele>647</ele>
        <time>2011-08-15T16:19:00Z</time>
      </trkpt>
      <trkpt lat="45.46246" lon="5.31841">
        <ele>647</ele>
        <time>2011-08-15T16:19:01Z</time>
      </trkpt>
      <trkpt lat="45.46257" lon="5.31837">
        <ele>646</ele>
        <time>2011-08-15T16:19:03Z</time>
      </trkpt>
      <trkpt lat="45.46262" lon="5.31832">
        <ele>647</ele>
        <time>2011-08-15T16:19:04Z</time>
      </trkpt>
      <trkpt lat="45.46263" lon="5.31822">
        <ele>647</ele>
        <time>2011-08-15T16:19:06Z</time>
      </trkpt>
      <trkpt lat="45.46273" lon="5.31819">
        <ele>646</ele>
        <time>2011-08-15T16:19:07Z</time>
      </trkpt>
      <trkpt lat="45.46278" lon="5.31813">
        <ele>646</ele>
        <time>2011-08-15T16:19:08Z</time>
      </trkpt>
      <trkpt lat="45.4628" lon="5.31803">
        <ele>648</ele>
        <time>2011-08-15T16:19:10Z</time>
      </trkpt>
      <trkpt lat="45.46285" lon="5.31798">
        <ele>649</ele>
        <time>2011-08-15T16:19:12Z</time>
      </trkpt>
      <trkpt lat="45.46292" lon="5.31804">
        <ele>652</ele>
        <time>2011-08-15T16:20:13Z</time>
      </trkpt>
      <trkpt lat="45.46299" lon="5.31811">
        <ele>651</ele>
        <time>2011-08-15T16:20:14Z</time>
      </trkpt>
      <trkpt lat="45.46304" lon="5.3182">
        <ele>651</ele>
        <time>2011-08-15T16:20:16Z</time>
      </trkpt>
      <trkpt lat="45.46315" lon="5.31828">
        <ele>652</ele>
        <time>2011-08-15T16:20:17Z</time>
      </trkpt>
      <trkpt lat="45.4632" lon="5.31833">
        <ele>650</ele>
        <time>2011-08-15T16:20:18Z</time>
      </trkpt>
      <trkpt lat="45.46318" lon="5.31838">
        <ele>650</ele>
        <time>2011-08-15T16:20:21Z</time>
      </trkpt>
      <trkpt lat="45.46315" lon="5.31846">
        <ele>649</ele>
        <time>2011-08-15T16:20:25Z</time>
      </trkpt>
      <trkpt lat="45.46317" lon="5.31852">
        <ele>648</ele>
        <time>2011-08-15T16:20:29Z</time>
      </trkpt>
      <trkpt lat="45.46316" lon="5.3186">
        <ele>646</ele>
        <time>2011-08-15T16:20:33Z</time>
      </trkpt>
      <trkpt lat="45.46311" lon="5.31863">
        <ele>643</ele>
        <time>2011-08-15T16:20:36Z</time>
      </trkpt>
      <trkpt lat="45.46313" lon="5.31872">
        <ele>641</ele>
        <time>2011-08-15T16:20:40Z</time>
      </trkpt>
      <trkpt lat="45.46308" lon="5.31877">
        <ele>640</ele>
        <time>2011-08-15T16:20:45Z</time>
      </trkpt>
      <trkpt lat="45.46304" lon="5.31879">
        <ele>639</ele>
        <time>2011-08-15T16:20:51Z</time>
      </trkpt>
      <trkpt lat="45.46298" lon="5.3188">
        <ele>638</ele>
        <time>2011-08-15T16:20:55Z</time>
      </trkpt>
      <trkpt lat="45.46295" lon="5.31886">
        <ele>636</ele>
        <time>2011-08-15T16:20:59Z</time>
      </trkpt>
      <trkpt lat="45.46294" lon="5.31893">
        <ele>636</ele>
        <time>2011-08-15T16:21:02Z</time>
      </trkpt>
      <trkpt lat="45.46291" lon="5.31898">
        <ele>636</ele>
        <time>2011-08-15T16:21:04Z</time>
      </trkpt>
      <trkpt lat="45.4629" lon="5.31906">
        <ele>635</ele>
        <time>2011-08-15T16:21:06Z</time>
      </trkpt>
      <trkpt lat="45.46284" lon="5.31909">
        <ele>637</ele>
        <time>2011-08-15T16:21:10Z</time>
      </trkpt>
      <trkpt lat="45.46277" lon="5.3191">
        <ele>636</ele>
        <time>2011-08-15T16:21:12Z</time>
      </trkpt>
      <trkpt lat="45.46273" lon="5.31914">
        <ele>637</ele>
        <time>2011-08-15T16:21:14Z</time>
      </trkpt>
      <trkpt lat="45.46269" lon="5.3192">
        <ele>638</ele>
        <time>2011-08-15T16:21:16Z</time>
      </trkpt>
      <trkpt lat="45.46264" lon="5.31923">
        <ele>638</ele>
        <time>2011-08-15T16:21:20Z</time>
      </trkpt>
      <trkpt lat="45.4626" lon="5.31926">
        <ele>638</ele>
        <time>2011-08-15T16:21:27Z</time>
      </trkpt>
      <trkpt lat="45.46256" lon="5.3193">
        <ele>638</ele>
        <time>2011-08-15T16:21:33Z</time>
      </trkpt>
      <trkpt lat="45.4625" lon="5.31935">
        <ele>639</ele>
        <time>2011-08-15T16:21:37Z</time>
      </trkpt>
      <trkpt lat="45.46247" lon="5.3194">
        <ele>639</ele>
        <time>2011-08-15T16:21:42Z</time>
      </trkpt>
      <trkpt lat="45.46245" lon="5.31947">
        <ele>638</ele>
        <time>2011-08-15T16:21:45Z</time>
      </trkpt>
      <trkpt lat="45.4624" lon="5.31948">
        <ele>638</ele>
        <time>2011-08-15T16:21:49Z</time>
      </trkpt>
      <trkpt lat="45.46233" lon="5.31953">
        <ele>637</ele>
        <time>2011-08-15T16:21:52Z</time>
      </trkpt>
      <trkpt lat="45.46228" lon="5.31957">
        <ele>638</ele>
        <time>2011-08-15T16:21:57Z</time>
      </trkpt>
      <trkpt lat="45.46221" lon="5.31958">
        <ele>638</ele>
        <time>2011-08-15T16:22:02Z</time>
      </trkpt>
      <trkpt lat="45.46217" lon="5.31961">
        <ele>638</ele>
        <time>2011-08-15T16:22:08Z</time>
      </trkpt>
      <trkpt lat="45.46217" lon="5.31961">
        <ele>638</ele>
        <time>2011-08-15T16:22:08Z</time>
      </trkpt>
      <trkpt lat="45.46217" lon="5.31961">
        <ele>638</ele>
        <time>2011-08-15T16:22:09Z</time>
      </trkpt>
      <trkpt lat="45.46221" lon="5.3196">
        <ele>637</ele>
        <time>2011-08-15T16:22:16Z</time>
      </trkpt>
      <trkpt lat="45.46221" lon="5.31967">
        <ele>638</ele>
        <time>2011-08-15T16:22:18Z</time>
      </trkpt>
      <trkpt lat="45.46226" lon="5.31973">
        <ele>637</ele>
        <time>2011-08-15T16:22:23Z</time>
      </trkpt>
      <trkpt lat="45.4623" lon="5.31975">
        <ele>638</ele>
        <time>2011-08-15T16:22:28Z</time>
      </trkpt>
      <trkpt lat="45.46236" lon="5.31978">
        <ele>636</ele>
        <time>2011-08-15T16:22:33Z</time>
      </trkpt>
      <trkpt lat="45.46242" lon="5.3198">
        <ele>637</ele>
        <time>2011-08-15T16:22:40Z</time>
      </trkpt>
      <trkpt lat="45.46249" lon="5.31979">
        <ele>637</ele>
        <time>2011-08-15T16:22:41Z</time>
      </trkpt>
      <trkpt lat="45.46254" lon="5.3198">
        <ele>638</ele>
        <time>2011-08-15T16:22:44Z</time>
      </trkpt>
      <trkpt lat="45.4626" lon="5.31983">
        <ele>638</ele>
        <time>2011-08-15T16:22:46Z</time>
      </trkpt>
      <trkpt lat="45.4626" lon="5.31983">
        <ele>638</ele>
        <time>2011-08-15T16:22:46Z</time>
      </trkpt>
      <trkpt lat="45.4626" lon="5.31983">
        <ele>637</ele>
        <time>2011-08-15T16:22:47Z</time>
      </trkpt>
      <trkpt lat="45.46265" lon="5.31982">
        <ele>636</ele>
        <time>2011-08-15T16:22:57Z</time>
      </trkpt>
      <trkpt lat="45.46265" lon="5.31982">
        <ele>636</ele>
        <time>2011-08-15T16:22:57Z</time>
      </trkpt>
      <trkpt lat="45.46265" lon="5.31982">
        <ele>635</ele>
        <time>2011-08-15T16:23:24Z</time>
      </trkpt>
      <trkpt lat="45.4628" lon="5.31984">
        <ele>635</ele>
        <time>2011-08-15T16:24:14Z</time>
      </trkpt>
      <trkpt lat="45.46292" lon="5.31986">
        <ele>636</ele>
        <time>2011-08-15T16:24:15Z</time>
      </trkpt>
      <trkpt lat="45.46308" lon="5.31988">
        <ele>638</ele>
        <time>2011-08-15T16:24:16Z</time>
      </trkpt>
      <trkpt lat="45.46314" lon="5.31989">
        <ele>638</ele>
        <time>2011-08-15T16:24:17Z</time>
      </trkpt>
      <trkpt lat="45.46324" lon="5.31989">
        <ele>636</ele>
        <time>2011-08-15T16:24:19Z</time>
      </trkpt>
      <trkpt lat="45.4633" lon="5.31992">
        <ele>634</ele>
        <time>2011-08-15T16:24:20Z</time>
      </trkpt>
      <trkpt lat="45.46336" lon="5.31996">
        <ele>634</ele>
        <time>2011-08-15T16:24:21Z</time>
      </trkpt>
      <trkpt lat="45.46343" lon="5.31998">
        <ele>631</ele>
        <time>2011-08-15T16:24:22Z</time>
      </trkpt>
      <trkpt lat="45.46348" lon="5.32001">
        <ele>631</ele>
        <time>2011-08-15T16:24:23Z</time>
      </trkpt>
      <trkpt lat="45.46361" lon="5.32006">
        <ele>633</ele>
        <time>2011-08-15T16:24:24Z</time>
      </trkpt>
      <trkpt lat="45.46365" lon="5.32012">
        <ele>634</ele>
        <time>2011-08-15T16:24:27Z</time>
      </trkpt>
      <trkpt lat="45.46361" lon="5.32019">
        <ele>621</ele>
        <time>2011-08-15T16:24:36Z</time>
      </trkpt>
      <trkpt lat="45.46359" lon="5.32027">
        <ele>621</ele>
        <time>2011-08-15T16:24:40Z</time>
      </trkpt>
      <trkpt lat="45.4636" lon="5.32035">
        <ele>620</ele>
        <time>2011-08-15T16:24:44Z</time>
      </trkpt>
      <trkpt lat="45.46361" lon="5.32044">
        <ele>620</ele>
        <time>2011-08-15T16:24:49Z</time>
      </trkpt>
      <trkpt lat="45.46364" lon="5.32052">
        <ele>615</ele>
        <time>2011-08-15T16:24:57Z</time>
      </trkpt>
      <trkpt lat="45.46365" lon="5.32058">
        <ele>613</ele>
        <time>2011-08-15T16:25:00Z</time>
      </trkpt>
      <trkpt lat="45.46367" lon="5.32066">
        <ele>613</ele>
        <time>2011-08-15T16:25:04Z</time>
      </trkpt>
      <trkpt lat="45.46372" lon="5.3207">
        <ele>606</ele>
        <time>2011-08-15T16:25:10Z</time>
      </trkpt>
      <trkpt lat="45.46375" lon="5.32077">
        <ele>605</ele>
        <time>2011-08-15T16:25:14Z</time>
      </trkpt>
      <trkpt lat="45.46377" lon="5.32085">
        <ele>604</ele>
        <time>2011-08-15T16:25:19Z</time>
      </trkpt>
      <trkpt lat="45.4638" lon="5.32093">
        <ele>605</ele>
        <time>2011-08-15T16:25:22Z</time>
      </trkpt>
      <trkpt lat="45.46379" lon="5.32101">
        <ele>606</ele>
        <time>2011-08-15T16:25:26Z</time>
      </trkpt>
      <trkpt lat="45.4638" lon="5.32107">
        <ele>607</ele>
        <time>2011-08-15T16:25:29Z</time>
      </trkpt>
      <trkpt lat="45.4638" lon="5.32115">
        <ele>607</ele>
        <time>2011-08-15T16:25:33Z</time>
      </trkpt>
      <trkpt lat="45.46378" lon="5.32125">
        <ele>608</ele>
        <time>2011-08-15T16:25:37Z</time>
      </trkpt>
      <trkpt lat="45.46377" lon="5.32133">
        <ele>609</ele>
        <time>2011-08-15T16:25:42Z</time>
      </trkpt>
      <trkpt lat="45.46372" lon="5.32137">
        <ele>609</ele>
        <time>2011-08-15T16:25:46Z</time>
      </trkpt>
      <trkpt lat="45.46368" lon="5.32142">
        <ele>611</ele>
        <time>2011-08-15T16:25:50Z</time>
      </trkpt>
      <trkpt lat="45.46364" lon="5.32146">
        <ele>613</ele>
        <time>2011-08-15T16:25:54Z</time>
      </trkpt>
      <trkpt lat="45.4636" lon="5.32151">
        <ele>613</ele>
        <time>2011-08-15T16:25:58Z</time>
      </trkpt>
      <trkpt lat="45.46356" lon="5.32155">
        <ele>612</ele>
        <time>2011-08-15T16:26:02Z</time>
      </trkpt>
      <trkpt lat="45.46352" lon="5.32159">
        <ele>611</ele>
        <time>2011-08-15T16:26:06Z</time>
      </trkpt>
      <trkpt lat="45.46348" lon="5.32164">
        <ele>612</ele>
        <time>2011-08-15T16:26:10Z</time>
      </trkpt>
      <trkpt lat="45.46345" lon="5.32169">
        <ele>612</ele>
        <time>2011-08-15T16:26:14Z</time>
      </trkpt>
      <trkpt lat="45.46342" lon="5.32174">
        <ele>612</ele>
        <time>2011-08-15T16:26:17Z</time>
      </trkpt>
      <trkpt lat="45.46339" lon="5.3218">
        <ele>613</ele>
        <time>2011-08-15T16:26:21Z</time>
      </trkpt>
      <trkpt lat="45.46338" lon="5.32187">
        <ele>613</ele>
        <time>2011-08-15T16:26:25Z</time>
      </trkpt>
      <trkpt lat="45.46335" lon="5.32193">
        <ele>612</ele>
        <time>2011-08-15T16:26:29Z</time>
      </trkpt>
      <trkpt lat="45.46332" lon="5.32198">
        <ele>611</ele>
        <time>2011-08-15T16:26:32Z</time>
      </trkpt>
      <trkpt lat="45.46329" lon="5.32204">
        <ele>610</ele>
        <time>2011-08-15T16:26:37Z</time>
      </trkpt>
      <trkpt lat="45.46328" lon="5.32211">
        <ele>611</ele>
        <time>2011-08-15T16:26:40Z</time>
      </trkpt>
      <trkpt lat="45.46325" lon="5.32219">
        <ele>610</ele>
        <time>2011-08-15T16:26:44Z</time>
      </trkpt>
      <trkpt lat="45.46323" lon="5.32225">
        <ele>610</ele>
        <time>2011-08-15T16:26:48Z</time>
      </trkpt>
      <trkpt lat="45.4632" lon="5.32232">
        <ele>611</ele>
        <time>2011-08-15T16:26:52Z</time>
      </trkpt>
      <trkpt lat="45.46318" lon="5.32238">
        <ele>612</ele>
        <time>2011-08-15T16:26:56Z</time>
      </trkpt>
      <trkpt lat="45.46318" lon="5.32246">
        <ele>612</ele>
        <time>2011-08-15T16:26:59Z</time>
      </trkpt>
      <trkpt lat="45.46313" lon="5.32251">
        <ele>612</ele>
        <time>2011-08-15T16:27:03Z</time>
      </trkpt>
      <trkpt lat="45.46312" lon="5.32258">
        <ele>612</ele>
        <time>2011-08-15T16:27:06Z</time>
      </trkpt>
      <trkpt lat="45.4631" lon="5.32264">
        <ele>611</ele>
        <time>2011-08-15T16:27:10Z</time>
      </trkpt>
      <trkpt lat="45.46308" lon="5.32272">
        <ele>612</ele>
        <time>2011-08-15T16:27:15Z</time>
      </trkpt>
      <trkpt lat="45.46306" lon="5.32278">
        <ele>613</ele>
        <time>2011-08-15T16:27:19Z</time>
      </trkpt>
      <trkpt lat="45.46304" lon="5.32285">
        <ele>612</ele>
        <time>2011-08-15T16:27:23Z</time>
      </trkpt>
      <trkpt lat="45.463" lon="5.3229">
        <ele>612</ele>
        <time>2011-08-15T16:27:27Z</time>
      </trkpt>
      <trkpt lat="45.46295" lon="5.32296">
        <ele>612</ele>
        <time>2011-08-15T16:27:31Z</time>
      </trkpt>
      <trkpt lat="45.46292" lon="5.323">
        <ele>611</ele>
        <time>2011-08-15T16:27:35Z</time>
      </trkpt>
      <trkpt lat="45.46286" lon="5.32305">
        <ele>612</ele>
        <time>2011-08-15T16:27:40Z</time>
      </trkpt>
      <trkpt lat="45.46283" lon="5.3231">
        <ele>611</ele>
        <time>2011-08-15T16:27:44Z</time>
      </trkpt>
      <trkpt lat="45.4628" lon="5.32316">
        <ele>609</ele>
        <time>2011-08-15T16:27:49Z</time>
      </trkpt>
      <trkpt lat="45.46276" lon="5.32321">
        <ele>609</ele>
        <time>2011-08-15T16:27:53Z</time>
      </trkpt>
      <trkpt lat="45.46272" lon="5.32327">
        <ele>608</ele>
        <time>2011-08-15T16:27:58Z</time>
      </trkpt>
      <trkpt lat="45.46268" lon="5.32331">
        <ele>608</ele>
        <time>2011-08-15T16:28:02Z</time>
      </trkpt>
      <trkpt lat="45.46265" lon="5.32336">
        <ele>608</ele>
        <time>2011-08-15T16:28:06Z</time>
      </trkpt>
      <trkpt lat="45.4626" lon="5.32342">
        <ele>608</ele>
        <time>2011-08-15T16:28:11Z</time>
      </trkpt>
      <trkpt lat="45.46257" lon="5.32346">
        <ele>608</ele>
        <time>2011-08-15T16:28:15Z</time>
      </trkpt>
      <trkpt lat="45.46253" lon="5.3235">
        <ele>607</ele>
        <time>2011-08-15T16:28:19Z</time>
      </trkpt>
      <trkpt lat="45.46249" lon="5.32354">
        <ele>607</ele>
        <time>2011-08-15T16:28:23Z</time>
      </trkpt>
      <trkpt lat="45.46246" lon="5.3236">
        <ele>607</ele>
        <time>2011-08-15T16:28:28Z</time>
      </trkpt>
      <trkpt lat="45.46242" lon="5.32365">
        <ele>606</ele>
        <time>2011-08-15T16:28:32Z</time>
      </trkpt>
      <trkpt lat="45.46239" lon="5.32371">
        <ele>604</ele>
        <time>2011-08-15T16:28:36Z</time>
      </trkpt>
      <trkpt lat="45.46236" lon="5.32377">
        <ele>603</ele>
        <time>2011-08-15T16:28:40Z</time>
      </trkpt>
      <trkpt lat="45.46233" lon="5.32381">
        <ele>603</ele>
        <time>2011-08-15T16:28:43Z</time>
      </trkpt>
      <trkpt lat="45.46228" lon="5.32385">
        <ele>604</ele>
        <time>2011-08-15T16:28:46Z</time>
      </trkpt>
      <trkpt lat="45.46225" lon="5.32391">
        <ele>605</ele>
        <time>2011-08-15T16:28:49Z</time>
      </trkpt>
      <trkpt lat="45.4622" lon="5.32395">
        <ele>605</ele>
        <time>2011-08-15T16:28:53Z</time>
      </trkpt>
      <trkpt lat="45.46216" lon="5.324">
        <ele>605</ele>
        <time>2011-08-15T16:28:57Z</time>
      </trkpt>
      <trkpt lat="45.46212" lon="5.32404">
        <ele>604</ele>
        <time>2011-08-15T16:29:01Z</time>
      </trkpt>
      <trkpt lat="45.46208" lon="5.3241">
        <ele>604</ele>
        <time>2011-08-15T16:29:05Z</time>
      </trkpt>
      <trkpt lat="45.46204" lon="5.32415">
        <ele>604</ele>
        <time>2011-08-15T16:29:09Z</time>
      </trkpt>
      <trkpt lat="45.462" lon="5.3242">
        <ele>604</ele>
        <time>2011-08-15T16:29:12Z</time>
      </trkpt>
      <trkpt lat="45.46197" lon="5.32425">
        <ele>604</ele>
        <time>2011-08-15T16:29:16Z</time>
      </trkpt>
      <trkpt lat="45.46193" lon="5.32431">
        <ele>605</ele>
        <time>2011-08-15T16:29:20Z</time>
      </trkpt>
      <trkpt lat="45.46189" lon="5.32438">
        <ele>607</ele>
        <time>2011-08-15T16:29:24Z</time>
      </trkpt>
      <trkpt lat="45.46186" lon="5.32445">
        <ele>607</ele>
        <time>2011-08-15T16:29:28Z</time>
      </trkpt>
      <trkpt lat="45.46183" lon="5.32452">
        <ele>608</ele>
        <time>2011-08-15T16:29:32Z</time>
      </trkpt>
      <trkpt lat="45.46181" lon="5.32458">
        <ele>607</ele>
        <time>2011-08-15T16:29:36Z</time>
      </trkpt>
      <trkpt lat="45.46178" lon="5.32464">
        <ele>607</ele>
        <time>2011-08-15T16:29:40Z</time>
      </trkpt>
      <trkpt lat="45.46175" lon="5.32471">
        <ele>607</ele>
        <time>2011-08-15T16:29:44Z</time>
      </trkpt>
      <trkpt lat="45.46173" lon="5.32478">
        <ele>607</ele>
        <time>2011-08-15T16:29:48Z</time>
      </trkpt>
      <trkpt lat="45.4617" lon="5.32484">
        <ele>607</ele>
        <time>2011-08-15T16:29:51Z</time>
      </trkpt>
      <trkpt lat="45.46168" lon="5.3249">
        <ele>608</ele>
        <time>2011-08-15T16:29:55Z</time>
      </trkpt>
      <trkpt lat="45.46165" lon="5.32496">
        <ele>608</ele>
        <time>2011-08-15T16:29:59Z</time>
      </trkpt>
      <trkpt lat="45.46162" lon="5.32503">
        <ele>608</ele>
        <time>2011-08-15T16:30:03Z</time>
      </trkpt>
      <trkpt lat="45.4616" lon="5.3251">
        <ele>608</ele>
        <time>2011-08-15T16:30:07Z</time>
      </trkpt>
      <trkpt lat="45.46158" lon="5.32517">
        <ele>608</ele>
        <time>2011-08-15T16:30:11Z</time>
      </trkpt>
      <trkpt lat="45.46155" lon="5.32524">
        <ele>608</ele>
        <time>2011-08-15T16:30:15Z</time>
      </trkpt>
      <trkpt lat="45.46152" lon="5.32529">
        <ele>607</ele>
        <time>2011-08-15T16:30:19Z</time>
      </trkpt>
      <trkpt lat="45.4615" lon="5.32536">
        <ele>607</ele>
        <time>2011-08-15T16:30:23Z</time>
      </trkpt>
      <trkpt lat="45.46147" lon="5.32543">
        <ele>606</ele>
        <time>2011-08-15T16:30:27Z</time>
      </trkpt>
      <trkpt lat="45.46145" lon="5.32549">
        <ele>606</ele>
        <time>2011-08-15T16:30:31Z</time>
      </trkpt>
      <trkpt lat="45.46142" lon="5.32556">
        <ele>606</ele>
        <time>2011-08-15T16:30:36Z</time>
      </trkpt>
      <trkpt lat="45.46139" lon="5.32562">
        <ele>606</ele>
        <time>2011-08-15T16:30:40Z</time>
      </trkpt>
      <trkpt lat="45.46137" lon="5.32568">
        <ele>605</ele>
        <time>2011-08-15T16:30:44Z</time>
      </trkpt>
      <trkpt lat="45.46134" lon="5.32573">
        <ele>605</ele>
        <time>2011-08-15T16:30:48Z</time>
      </trkpt>
      <trkpt lat="45.46131" lon="5.3258">
        <ele>605</ele>
        <time>2011-08-15T16:30:52Z</time>
      </trkpt>
      <trkpt lat="45.46129" lon="5.32587">
        <ele>605</ele>
        <time>2011-08-15T16:30:56Z</time>
      </trkpt>
      <trkpt lat="45.46125" lon="5.32594">
        <ele>605</ele>
        <time>2011-08-15T16:31:00Z</time>
      </trkpt>
      <trkpt lat="45.46122" lon="5.326">
        <ele>605</ele>
        <time>2011-08-15T16:31:04Z</time>
      </trkpt>
      <trkpt lat="45.4612" lon="5.32607">
        <ele>605</ele>
        <time>2011-08-15T16:31:08Z</time>
      </trkpt>
      <trkpt lat="45.46117" lon="5.32612">
        <ele>605</ele>
        <time>2011-08-15T16:31:11Z</time>
      </trkpt>
      <trkpt lat="45.46114" lon="5.32618">
        <ele>604</ele>
        <time>2011-08-15T16:31:15Z</time>
      </trkpt>
      <trkpt lat="45.46109" lon="5.32623">
        <ele>604</ele>
        <time>2011-08-15T16:31:19Z</time>
      </trkpt>
      <trkpt lat="45.46106" lon="5.32627">
        <ele>603</ele>
        <time>2011-08-15T16:31:23Z</time>
      </trkpt>
      <trkpt lat="45.46101" lon="5.32631">
        <ele>603</ele>
        <time>2011-08-15T16:31:28Z</time>
      </trkpt>
      <trkpt lat="45.46097" lon="5.32635">
        <ele>603</ele>
        <time>2011-08-15T16:31:32Z</time>
      </trkpt>
      <trkpt lat="45.46093" lon="5.32641">
        <ele>603</ele>
        <time>2011-08-15T16:31:37Z</time>
      </trkpt>
      <trkpt lat="45.46089" lon="5.32646">
        <ele>602</ele>
        <time>2011-08-15T16:31:41Z</time>
      </trkpt>
      <trkpt lat="45.46085" lon="5.3265">
        <ele>602</ele>
        <time>2011-08-15T16:31:45Z</time>
      </trkpt>
      <trkpt lat="45.46081" lon="5.32654">
        <ele>603</ele>
        <time>2011-08-15T16:31:49Z</time>
      </trkpt>
      <trkpt lat="45.46077" lon="5.32659">
        <ele>602</ele>
        <time>2011-08-15T16:31:53Z</time>
      </trkpt>
      <trkpt lat="45.46074" lon="5.32665">
        <ele>602</ele>
        <time>2011-08-15T16:32:25Z</time>
      </trkpt>
      <trkpt lat="45.4607" lon="5.32667">
        <ele>605</ele>
        <time>2011-08-15T16:33:29Z</time>
      </trkpt>
      <trkpt lat="45.4607" lon="5.32667">
        <ele>605</ele>
        <time>2011-08-15T16:33:29Z</time>
      </trkpt>
      <trkpt lat="45.4607" lon="5.32667">
        <ele>605</ele>
        <time>2011-08-15T16:33:34Z</time>
      </trkpt>
      <trkpt lat="45.46068" lon="5.32674">
        <ele>603</ele>
        <time>2011-08-15T16:34:06Z</time>
      </trkpt>
      <trkpt lat="45.46064" lon="5.3268">
        <ele>602</ele>
        <time>2011-08-15T16:34:11Z</time>
      </trkpt>
      <trkpt lat="45.46059" lon="5.32684">
        <ele>601</ele>
        <time>2011-08-15T16:34:17Z</time>
      </trkpt>
    </trkseg>
  </trk>
</gpx>